[[{"header":{"parameterUnit":"m.s-1","parameterCategory":1,"la1":31.0,"la2":29.5877,"lo1":-88.7671,"lo2":-86.6584,"dy":0.0162,"dx":0.0185,"nx":115,"ny":88,"refTime":"2024-03-01T06:00:00:Z","depth":0,"parameterNumber":2,"parameterNumberName":"U-component_of_WINDS"},"data":[0.0,0.0,0.0,0.0,0.0,0.0,0.0,0.0,0.0,0.0,0.0,0.0,0.0,0.0,0.0,0.0,0.0,0.0,0.0,0.0,0.0,0.0,0.0,0.0,0.0,0.0,0.0,0.0,0.0,0.0,0.0,0.0,0.0,0.0,0.0,0.0,0.0,0.0,0.0,0.0,0.0,0.0,0.0,0.0,0.0,0.0,0.0,0.0,0.0,0.0,0.0,0.0,0.0,0.0,0.0,0.0,0.0,0.0,0.0,0.0,0.0,0.0,0.0,0.0,0.0,0.0,0.0,0.0,0.0,0.0,0.0,0.0,0.0,0.0,0.0,0.0,0.0,0.0,0.0,0.0,0.0,0.0,0.0,0.0,0.0,0.0,0.0,0.0,0.0,0.0,0.0,0.0,0.0,0.0,0.0,0.0,0.0,0.0,0.0,0.0,0.0,0.0,0.0,0.0,0.0,0.0,0.0,0.0,0.0,0.0,0.0,0.0,0.0,0.0,0.0,0.0,0.0,0.0,0.0,0.0,0.0,0.0,0.0,0.0,0.0,0.0,0.0,0.0,0.0,0.0,0.0,0.0,0.0,0.0,0.0,0.0,0.0,0.0,0.0,0.0,0.0,0.0,0.0,0.0,0.0,0.0,0.0,0.0,0.0,0.0,0.0,0.0,0.0,0.0,0.0,0.0,0.0,0.0,0.0,0.0,0.0,0.0,0.0,0.0,0.0,0.0,0.0,0.0,0.0,0.0,0.0,0.0,0.0,0.0,0.0,0.0,0.0,0.0,0.0,0.0,0.0,0.0,0.0,0.0,0.0,0.0,0.0,0.0,0.0,0.0,0.0,0.0,0.0,0.0,0.0,0.0,0.0,0.0,0.0,0.0,0.0,0.0,0.0,0.0,0.0,0.0,0.0,0.0,0.0,0.0,0.0,0.0,0.0,0.0,0.0,0.0,0.0,0.0,0.0,0.0,0.0,0.0,0.0,0.0,0.0,0.0,0.0,0.0,0.0,0.0,0.0,0.0,0.0,0.0,0.0,0.0,0.0,0.0,0.0,0.0,0.0,0.0,0.0,0.0,0.0,0.0,0.0,0.0,0.0,0.0,0.0,0.0,0.0,0.0,0.0,0.0,0.0,0.0,0.0,0.0,0.0,0.0,0.0,0.0,0.0,0.0,0.0,0.0,0.0,0.0,0.0,0.0,0.0,0.0,0.0,0.0,0.0,0.0,0.0,0.0,0.0,0.0,0.0,0.0,0.0,0.0,0.0,0.0,0.0,0.0,0.0,0.0,0.0,0.0,0.0,0.0,0.0,0.0,0.0,0.0,0.0,0.0,0.0,0.0,0.0,0.0,0.0,0.0,0.0,0.0,0.0,0.0,0.0,0.0,0.0,0.0,0.0,0.0,0.0,0.0,0.0,0.0,0.0,0.0,0.0,0.0,0.0,0.0,0.0,0.0,0.0,0.0,0.0,0.0,0.0,0.0,0.0,0.0,0.0,0.0,0.0,0.0,0.0,0.0,0.0,0.0,0.0,0.0,0.0,0.0,0.0,0.0,0.0,0.0,0.0,0.0,0.0,0.0,0.0,0.0,0.0,0.0,0.0,0.0,0.0,0.0,0.0,0.0,0.0,0.0,0.0,0.0,0.0,0.0,0.0,0.0,0.0,0.0,0.0,0.0,0.0,0.0,0.0,0.0,0.0,0.0,0.0,0.0,0.0,0.0,0.0,0.0,0.0,0.0,0.0,0.0,0.0,0.0,0.0,0.0,0.0,0.0,0.0,0.0,0.0,0.0,0.0,0.0,0.0,0.0,0.0,0.0,0.0,0.0,0.0,0.0,0.0,0.0,0.0,0.0,0.0,0.0,0.0,0.0,0.0,0.0,0.0,0.0,0.0,0.0,0.0,0.0,0.0,0.0,0.0,0.0,0.0,0.0,0.0,0.0,0.0,0.0,0.0,0.0,0.0,0.0,0.0,0.0,0.0,0.0,0.0,0.0,0.0,0.0,0.0,0.0,0.0,0.0,0.0,0.0,0.0,0.0,0.0,0.0,0.0,0.0,0.0,0.0,0.0,0.0,0.0,0.0,0.0,0.0,0.0,0.0,0.0,0.0,0.0,0.0,0.0,0.0,0.0,0.0,0.0,0.0,0.0,0.0,0.0,0.0,0.0,0.0,0.0,0.0,0.0,0.0,0.0,0.0,0.0,0.0,0.0,0.0,0.0,0.0,0.0,0.0,0.0,0.0,0.0,0.0,0.0,0.0,0.0,0.0,0.0,0.0,0.0,0.0,0.0,0.0,0.0,0.0,0.0,0.0,0.0,0.0,0.0,0.0,0.0,0.0,0.0,0.0,0.0,0.0,0.0,0.0,0.0,0.0,0.0,0.0,0.0,0.0,0.0,0.0,0.0,0.0,0.0,0.0,0.0,0.0,0.0,0.0,0.0,0.0,0.0,0.0,0.0,0.0,0.0,0.0,0.0,0.0,0.0,0.0,0.0,0.0,0.0,0.0,0.0,0.0,0.0,0.0,0.0,0.0,0.0,0.0,0.0,0.0,0.0,0.0,0.0,0.0,0.0,0.0,0.0,0.0,0.0,0.0,0.0,0.0,0.0,0.0,0.0,0.0,0.0,0.0,0.0,0.0,0.0,0.0,0.0,0.0,0.0,0.0,0.0,0.0,0.0,0.0,0.0,0.0,0.0,0.0,0.0,0.0,0.0,0.0,0.0,0.0,0.0,0.0,0.0,0.0,0.0,0.0,0.0,0.0,0.0,0.0,0.0,0.0,0.0,0.0,0.0,0.0,0.0,0.0,0.0,0.0,0.0,0.0,0.0,0.0,0.0,0.0,0.0,0.0,0.0,0.0,0.0,0.0,0.0,0.0,0.0,0.0,0.0,0.0,0.0,0.0,0.0,0.0,0.0,0.0,0.0,0.0,0.0,0.0,0.0,0.0,0.0,0.0,0.0,0.0,0.0,0.0,0.0,0.0,0.0,0.0,0.0,0.0,0.0,0.0,0.0,0.0,0.0,0.0,0.0,0.0,0.0,0.0,0.0,0.0,0.0,0.0,0.0,0.0,0.0,0.0,0.0,0.0,0.0,0.0,0.0,0.0,0.0,0.0,0.0,0.0,0.0,0.0,0.0,0.0,0.0,0.0,0.0,0.0,0.0,0.0,0.0,0.0,0.0,0.0,0.0,0.0,0.0,0.0,0.0,0.0,0.0,0.0,0.0,0.0,0.0,0.0,0.0,0.0,0.0,0.0,0.0,0.0,0.0,0.0,0.0,0.0,0.0,0.0,0.0,0.0,0.0,0.0,0.0,0.0,0.0,0.0,0.0,0.0,0.0,0.0,0.0,0.0,0.0,0.0,0.0,0.0,0.0,0.0,0.0,0.0,0.0,0.0,0.0,0.0,0.0,0.0,0.0,0.0,0.0,0.0,0.0,0.0,0.0,0.0,0.0,0.0,0.0,0.0,0.0,0.0,0.0,0.0,0.0,0.0,0.0,0.0,0.0,0.0,0.0,0.0,0.0,0.0,0.0,0.0,0.0,0.0,0.0,0.0,0.0,0.0,0.0,0.0,0.0,0.0,0.0,0.0,0.0,0.0,0.0,0.0,0.0,0.0,0.0,0.0,0.0,0.0,0.0,0.0,0.0,0.0,0.0,0.0,0.0,0.0,0.0,0.0,0.0,0.0,0.0,0.0,0.0,0.0,0.0,0.0,0.0,0.0,0.0,0.0,0.0,0.0,0.0,0.0,0.0,0.0,0.0,0.0,0.0,0.0,0.0,0.0,0.0,0.0,0.0,0.0,0.0,0.0,0.0,0.0,0.0,0.0,0.0,0.0,0.0,0.0,0.0,0.0,0.0,0.0,0.0,0.0,0.0,0.0,0.0,0.0,0.0,0.0,0.0,0.0,0.0,0.0,0.0,0.0,0.0,0.0,0.0,0.0,0.0,0.0,0.0,0.0,0.0,0.0,0.0,0.0,0.0,0.0,0.0,0.0,0.0,0.0,0.0,0.0,0.0,0.0,0.0,0.0,0.0,0.0,0.0,0.0,0.0,0.0,0.0,0.0,0.0,0.0,0.0,0.0,0.0,0.0,0.0,0.0,0.0,0.0,0.0,0.0,0.0,0.0,0.0,0.0,0.0,0.0,0.0,0.0,0.0,0.0,0.0,0.0,0.0,0.0,0.0,0.0,0.0,0.0,0.0,0.0,0.0,0.0,0.0,0.0,0.0,0.0,0.0,0.0,0.0,0.0,0.0,0.0,-3.2521,0.0,0.0,0.0,0.0,0.0,0.0,0.0,0.0,0.0,0.0,0.0,0.0,0.0,0.0,0.0,0.0,0.0,0.0,0.0,0.0,0.0,0.0,0.0,0.0,0.0,0.0,0.0,0.0,0.0,0.0,0.0,0.0,0.0,0.0,0.0,0.0,0.0,0.0,0.0,0.0,0.0,0.0,0.0,0.0,0.0,0.0,0.0,0.0,0.0,0.0,0.0,0.0,0.0,0.0,0.0,0.0,0.0,0.0,0.0,0.0,0.0,0.0,0.0,0.0,0.0,0.0,0.0,0.0,0.0,0.0,0.0,0.0,0.0,0.0,0.0,0.0,0.0,0.0,0.0,0.0,0.0,0.0,0.0,0.0,0.0,0.0,0.0,0.0,0.0,0.0,0.0,0.0,0.0,0.0,0.0,0.0,0.0,0.0,0.0,0.0,0.0,0.0,0.0,0.0,0.0,0.0,0.0,0.0,0.0,0.0,-3.475,-3.4382,-3.3464,-3.31,-3.3378,0.0,0.0,0.0,0.0,0.0,0.0,0.0,0.0,0.0,0.0,0.0,0.0,0.0,0.0,0.0,0.0,0.0,0.0,0.0,0.0,0.0,0.0,0.0,0.0,0.0,0.0,0.0,0.0,0.0,0.0,0.0,0.0,0.0,0.0,0.0,0.0,0.0,0.0,0.0,0.0,0.0,0.0,0.0,0.0,0.0,0.0,0.0,0.0,0.0,0.0,0.0,0.0,0.0,0.0,0.0,0.0,0.0,0.0,0.0,0.0,0.0,0.0,0.0,0.0,0.0,0.0,0.0,0.0,0.0,0.0,0.0,0.0,0.0,0.0,0.0,0.0,0.0,0.0,0.0,0.0,0.0,0.0,0.0,0.0,0.0,0.0,0.0,0.0,0.0,0.0,0.0,0.0,0.0,0.0,0.0,0.0,0.0,0.0,0.0,0.0,0.0,0.0,0.0,0.0,0.0,0.0,0.0,0.0,0.0,0.0,0.0,0.0,-3.3933,-3.3359,-3.3503,0.0,0.0,0.0,0.0,0.0,0.0,0.0,0.0,0.0,0.0,0.0,0.0,0.0,0.0,0.0,0.0,0.0,0.0,0.0,0.0,0.0,0.0,0.0,0.0,0.0,0.0,0.0,0.0,0.0,0.0,0.0,0.0,0.0,0.0,0.0,0.0,0.0,0.0,0.0,0.0,0.0,0.0,0.0,0.0,0.0,0.0,0.0,0.0,0.0,0.0,0.0,0.0,0.0,0.0,0.0,0.0,0.0,0.0,0.0,0.0,0.0,0.0,0.0,0.0,0.0,0.0,0.0,0.0,0.0,0.0,0.0,0.0,0.0,0.0,0.0,0.0,0.0,0.0,0.0,0.0,0.0,0.0,0.0,0.0,0.0,0.0,0.0,0.0,0.0,0.0,0.0,0.0,0.0,0.0,0.0,0.0,0.0,0.0,0.0,0.0,0.0,0.0,0.0,0.0,0.0,0.0,0.0,0.0,0.0,0.0,-3.5623,-3.5946,-3.4358,0.0,-3.1661,0.0,0.0,0.0,0.0,0.0,0.0,0.0,0.0,0.0,0.0,0.0,0.0,0.0,0.0,0.0,0.0,0.0,0.0,0.0,0.0,0.0,0.0,0.0,0.0,0.0,0.0,0.0,0.0,0.0,0.0,0.0,0.0,0.0,0.0,0.0,0.0,0.0,0.0,0.0,0.0,0.0,0.0,0.0,0.0,0.0,0.0,0.0,0.0,0.0,0.0,0.0,0.0,0.0,0.0,0.0,0.0,0.0,0.0,0.0,0.0,0.0,0.0,0.0,0.0,0.0,0.0,0.0,0.0,0.0,0.0,0.0,0.0,0.0,0.0,0.0,0.0,0.0,0.0,0.0,0.0,0.0,0.0,0.0,0.0,0.0,0.0,0.0,0.0,0.0,0.0,0.0,0.0,0.0,0.0,0.0,0.0,0.0,0.0,0.0,0.0,0.0,0.0,0.0,0.0,0.0,0.0,0.0,0.0,0.0,0.0,-3.674,-3.6354,-3.4641,-3.3211,0.0,0.0,0.0,0.0,0.0,0.0,0.0,0.0,0.0,0.0,0.0,0.0,0.0,0.0,0.0,0.0,0.0,0.0,0.0,0.0,0.0,0.0,0.0,0.0,0.0,0.0,0.0,0.0,0.0,0.0,0.0,0.0,0.0,0.0,0.0,0.0,0.0,0.0,0.0,0.0,0.0,0.0,0.0,0.0,0.0,0.0,0.0,0.0,0.0,0.0,0.0,0.0,0.0,0.0,0.0,0.0,0.0,0.0,0.0,0.0,0.0,0.0,0.0,0.0,0.0,0.0,0.0,0.0,0.0,0.0,0.0,0.0,0.0,0.0,0.0,0.0,0.0,0.0,0.0,0.0,0.0,0.0,0.0,0.0,0.0,0.0,0.0,0.0,0.0,0.0,0.0,0.0,0.0,0.0,0.0,0.0,0.0,0.0,0.0,0.0,0.0,0.0,0.0,0.0,0.0,0.0,0.0,0.0,0.0,0.0,-3.7941,-3.7559,-3.6449,-3.4933,-3.3701,-3.279,0.0,0.0,0.0,0.0,0.0,0.0,0.0,0.0,0.0,0.0,0.0,0.0,0.0,0.0,0.0,0.0,0.0,0.0,0.0,0.0,0.0,0.0,0.0,0.0,0.0,0.0,0.0,0.0,0.0,0.0,0.0,0.0,0.0,0.0,0.0,0.0,0.0,0.0,0.0,0.0,0.0,0.0,0.0,0.0,0.0,0.0,0.0,0.0,0.0,0.0,0.0,0.0,0.0,0.0,0.0,0.0,0.0,0.0,0.0,0.0,0.0,0.0,0.0,0.0,0.0,0.0,0.0,0.0,0.0,0.0,0.0,0.0,0.0,0.0,0.0,0.0,0.0,0.0,0.0,0.0,0.0,0.0,0.0,0.0,0.0,0.0,0.0,0.0,0.0,0.0,0.0,0.0,0.0,0.0,0.0,0.0,0.0,0.0,0.0,0.0,0.0,0.0,0.0,0.0,0.0,0.0,0.0,0.0,-3.9168,-3.8588,-3.765,-3.6381,-3.5258,-3.421,0.0,0.0,0.0,0.0,0.0,0.0,0.0,0.0,0.0,0.0,0.0,0.0,0.0,0.0,0.0,0.0,0.0,0.0,0.0,0.0,0.0,0.0,0.0,0.0,0.0,0.0,0.0,0.0,0.0,0.0,0.0,0.0,0.0,0.0,0.0,0.0,0.0,0.0,0.0,0.0,0.0,0.0,0.0,0.0,0.0,0.0,0.0,0.0,0.0,0.0,0.0,0.0,0.0,0.0,0.0,0.0,0.0,0.0,0.0,0.0,0.0,0.0,0.0,0.0,0.0,0.0,0.0,0.0,0.0,0.0,0.0,0.0,0.0,0.0,0.0,0.0,0.0,0.0,0.0,0.0,0.0,0.0,0.0,0.0,0.0,0.0,0.0,0.0,0.0,0.0,0.0,0.0,0.0,0.0,0.0,0.0,0.0,0.0,0.0,0.0,0.0,0.0,0.0,0.0,0.0,0.0,0.0,0.0,0.0,-3.904,-3.853,-3.8034,-3.7561,-3.6274,-3.5225,0.0,0.0,0.0,0.0,0.0,0.0,0.0,0.0,0.0,0.0,0.0,0.0,0.0,0.0,0.0,0.0,0.0,0.0,0.0,0.0,0.0,0.0,0.0,0.0,0.0,0.0,0.0,0.0,0.0,0.0,0.0,0.0,0.0,0.0,0.0,0.0,0.0,0.0,0.0,0.0,0.0,0.0,0.0,0.0,0.0,0.0,0.0,0.0,0.0,0.0,0.0,0.0,0.0,0.0,0.0,0.0,0.0,0.0,0.0,0.0,0.0,0.0,0.0,0.0,0.0,0.0,0.0,0.0,0.0,0.0,0.0,0.0,0.0,0.0,0.0,0.0,0.0,0.0,0.0,0.0,0.0,0.0,0.0,0.0,0.0,0.0,0.0,0.0,0.0,0.0,0.0,0.0,0.0,0.0,0.0,0.0,0.0,0.0,0.0,0.0,0.0,0.0,0.0,0.0,0.0,0.0,0.0,0.0,0.0,-3.9171,0.0,-3.8626,-3.8521,-3.7181,-3.6146,0.0,0.0,0.0,0.0,0.0,0.0,0.0,0.0,0.0,0.0,0.0,0.0,0.0,0.0,0.0,0.0,0.0,0.0,0.0,0.0,0.0,0.0,0.0,0.0,0.0,0.0,0.0,0.0,0.0,0.0,0.0,0.0,0.0,0.0,0.0,0.0,0.0,0.0,0.0,0.0,0.0,0.0,0.0,0.0,0.0,0.0,0.0,0.0,0.0,0.0,0.0,0.0,0.0,0.0,0.0,0.0,0.0,0.0,0.0,0.0,0.0,0.0,0.0,0.0,0.0,0.0,0.0,0.0,0.0,0.0,0.0,0.0,0.0,0.0,0.0,0.0,0.0,0.0,0.0,0.0,0.0,0.0,0.0,0.0,0.0,0.0,0.0,0.0,0.0,0.0,0.0,0.0,0.0,0.0,0.0,0.0,0.0,0.0,0.0,0.0,0.0,0.0,0.0,0.0,0.0,0.0,0.0,0.0,-3.9931,-3.9698,-3.9624,-3.9422,-3.9107,-3.7882,-3.6991,0.0,0.0,0.0,0.0,0.0,0.0,0.0,0.0,0.0,0.0,0.0,0.0,0.0,0.0,0.0,0.0,0.0,0.0,0.0,0.0,0.0,0.0,0.0,0.0,0.0,0.0,0.0,0.0,0.0,0.0,0.0,0.0,0.0,0.0,0.0,0.0,0.0,0.0,0.0,0.0,0.0,0.0,0.0,0.0,0.0,0.0,0.0,0.0,0.0,0.0,0.0,0.0,0.0,0.0,0.0,0.0,0.0,0.0,0.0,0.0,0.0,0.0,0.0,0.0,0.0,0.0,0.0,0.0,0.0,0.0,0.0,0.0,0.0,0.0,0.0,0.0,0.0,0.0,0.0,0.0,0.0,0.0,0.0,0.0,0.0,0.0,0.0,0.0,0.0,0.0,0.0,0.0,0.0,0.0,0.0,0.0,0.0,0.0,0.0,0.0,0.0,0.0,0.0,0.0,0.0,0.0,0.0,0.0,0.0,-3.9807,-3.9839,-3.982,-3.9683,-3.8765,-3.7916,0.0,0.0,0.0,0.0,0.0,0.0,0.0,0.0,0.0,0.0,0.0,0.0,0.0,0.0,0.0,0.0,0.0,0.0,0.0,0.0,0.0,0.0,0.0,0.0,0.0,0.0,0.0,0.0,0.0,0.0,0.0,0.0,0.0,0.0,0.0,0.0,0.0,0.0,0.0,0.0,0.0,0.0,0.0,0.0,0.0,0.0,0.0,0.0,0.0,0.0,0.0,0.0,0.0,0.0,0.0,0.0,0.0,0.0,0.0,0.0,0.0,0.0,0.0,0.0,0.0,0.0,0.0,0.0,0.0,0.0,0.0,0.0,0.0,0.0,0.0,0.0,0.0,0.0,0.0,0.0,0.0,0.0,0.0,0.0,0.0,0.0,0.0,0.0,0.0,0.0,0.0,0.0,0.0,0.0,0.0,0.0,0.0,0.0,0.0,0.0,0.0,0.0,0.0,0.0,0.0,0.0,0.0,0.0,0.0,-4.0592,-4.103,-4.1048,-4.0587,-3.9869,-3.9026,-3.8086,0.0,0.0,0.0,0.0,0.0,0.0,0.0,0.0,0.0,0.0,0.0,0.0,0.0,0.0,0.0,0.0,0.0,0.0,0.0,0.0,0.0,0.0,0.0,0.0,0.0,0.0,0.0,0.0,0.0,0.0,0.0,0.0,0.0,0.0,0.0,0.0,0.0,0.0,0.0,0.0,0.0,0.0,0.0,0.0,0.0,0.0,0.0,0.0,0.0,0.0,0.0,0.0,0.0,0.0,0.0,0.0,0.0,0.0,0.0,0.0,0.0,0.0,0.0,0.0,0.0,0.0,0.0,0.0,0.0,0.0,0.0,0.0,0.0,0.0,0.0,0.0,0.0,0.0,0.0,0.0,0.0,0.0,0.0,0.0,0.0,0.0,0.0,0.0,0.0,0.0,0.0,0.0,0.0,0.0,0.0,0.0,0.0,0.0,0.0,0.0,0.0,0.0,0.0,0.0,0.0,0.0,0.0,0.0,-4.1891,-4.2961,-4.2933,-4.1721,-4.1184,-4.034,0.0,0.0,0.0,0.0,0.0,0.0,0.0,0.0,0.0,0.0,0.0,0.0,0.0,0.0,0.0,0.0,0.0,0.0,0.0,0.0,0.0,0.0,0.0,0.0,0.0,0.0,0.0,0.0,0.0,0.0,0.0,0.0,0.0,0.0,0.0,0.0,0.0,0.0,0.0,0.0,0.0,0.0,0.0,0.0,0.0,0.0,0.0,0.0,0.0,0.0,0.0,0.0,0.0,0.0,0.0,0.0,0.0,0.0,0.0,0.0,0.0,0.0,0.0,0.0,0.0,0.0,0.0,0.0,0.0,0.0,0.0,0.0,0.0,0.0,0.0,0.0,0.0,0.0,0.0,0.0,0.0,0.0,0.0,0.0,0.0,0.0,0.0,0.0,0.0,0.0,0.0,0.0,0.0,0.0,0.0,0.0,0.0,0.0,0.0,0.0,0.0,0.0,0.0,0.0,0.0,0.0,0.0,0.0,0.0,-4.4053,-4.4883,-4.4522,-4.2859,-4.2411,-4.1632,0.0,0.0,0.0,0.0,0.0,0.0,0.0,0.0,0.0,0.0,0.0,0.0,0.0,0.0,0.0,0.0,0.0,0.0,0.0,0.0,0.0,0.0,0.0,0.0,0.0,0.0,0.0,0.0,0.0,0.0,0.0,0.0,0.0,0.0,0.0,0.0,0.0,0.0,0.0,0.0,0.0,0.0,0.0,0.0,0.0,0.0,0.0,0.0,0.0,0.0,0.0,0.0,0.0,0.0,0.0,0.0,0.0,0.0,0.0,0.0,0.0,0.0,0.0,0.0,0.0,0.0,0.0,0.0,0.0,0.0,0.0,0.0,0.0,0.0,0.0,0.0,0.0,0.0,0.0,0.0,0.0,0.0,0.0,0.0,0.0,0.0,0.0,0.0,0.0,0.0,0.0,0.0,0.0,0.0,0.0,0.0,0.0,0.0,0.0,0.0,0.0,0.0,0.0,0.0,0.0,0.0,0.0,0.0,-4.3948,-4.4774,-4.5954,-4.5896,-4.4491,-4.3394,-4.2229,0.0,0.0,0.0,0.0,0.0,0.0,0.0,0.0,0.0,0.0,0.0,0.0,0.0,0.0,0.0,0.0,0.0,0.0,0.0,0.0,0.0,0.0,0.0,0.0,0.0,0.0,0.0,0.0,0.0,0.0,0.0,0.0,0.0,0.0,0.0,0.0,0.0,0.0,0.0,0.0,0.0,0.0,0.0,0.0,0.0,0.0,0.0,0.0,0.0,0.0,0.0,0.0,0.0,0.0,0.0,0.0,0.0,0.0,0.0,0.0,0.0,0.0,0.0,0.0,0.0,0.0,0.0,0.0,0.0,0.0,0.0,0.0,0.0,0.0,0.0,0.0,0.0,0.0,0.0,0.0,0.0,0.0,0.0,0.0,0.0,0.0,0.0,0.0,0.0,0.0,0.0,0.0,0.0,0.0,0.0,0.0,0.0,0.0,0.0,0.0,0.0,0.0,0.0,0.0,0.0,0.0,0.0,0.0,-4.3849,-4.4731,-4.6384,-4.6907,-4.6173,-4.4316,-4.2714,0.0,0.0,0.0,0.0,0.0,0.0,0.0,0.0,0.0,0.0,0.0,0.0,0.0,0.0,0.0,0.0,0.0,0.0,0.0,0.0,0.0,0.0,0.0,0.0,0.0,0.0,0.0,0.0,0.0,0.0,0.0,0.0,0.0,0.0,0.0,0.0,0.0,0.0,0.0,0.0,0.0,0.0,0.0,0.0,0.0,0.0,0.0,0.0,0.0,0.0,0.0,0.0,0.0,0.0,0.0,0.0,0.0,0.0,0.0,0.0,0.0,0.0,0.0,0.0,0.0,0.0,0.0,0.0,0.0,0.0,0.0,0.0,0.0,0.0,0.0,0.0,0.0,0.0,0.0,0.0,0.0,0.0,0.0,0.0,0.0,0.0,0.0,0.0,0.0,0.0,0.0,0.0,0.0,0.0,0.0,0.0,0.0,0.0,0.0,0.0,0.0,0.0,0.0,0.0,0.0,0.0,0.0,0.0,-4.384,-4.55,-4.6084,-4.6288,-4.6134,-4.5667,-4.4517,0.0,0.0,0.0,0.0,0.0,0.0,0.0,0.0,0.0,0.0,0.0,0.0,0.0,0.0,0.0,0.0,0.0,0.0,0.0,0.0,0.0,0.0,0.0,0.0,0.0,0.0,0.0,0.0,0.0,0.0,0.0,0.0,0.0,0.0,0.0,0.0,0.0,0.0,0.0,0.0,0.0,0.0,0.0,0.0,0.0,0.0,0.0,0.0,-4.3934,0.0,0.0,0.0,0.0,0.0,0.0,0.0,0.0,0.0,0.0,0.0,0.0,0.0,0.0,0.0,0.0,0.0,0.0,0.0,0.0,0.0,0.0,0.0,0.0,0.0,0.0,0.0,0.0,0.0,0.0,0.0,0.0,0.0,0.0,0.0,0.0,0.0,0.0,0.0,0.0,0.0,0.0,0.0,0.0,0.0,0.0,0.0,0.0,0.0,0.0,0.0,0.0,0.0,0.0,0.0,0.0,0.0,0.0,0.0,-4.405,-4.5554,-4.5806,-4.5956,-4.6048,-4.5719,-4.4718,0.0,0.0,0.0,0.0,0.0,0.0,0.0,0.0,0.0,0.0,0.0,0.0,0.0,0.0,0.0,0.0,0.0,0.0,0.0,0.0,0.0,0.0,0.0,0.0,0.0,0.0,0.0,0.0,0.0,0.0,0.0,0.0,0.0,0.0,0.0,0.0,0.0,0.0,0.0,0.0,0.0,0.0,0.0,0.0,0.0,0.0,0.0,0.0,0.0,0.0,0.0,0.0,0.0,0.0,0.0,0.0,0.0,0.0,0.0,0.0,0.0,0.0,0.0,0.0,0.0,0.0,0.0,0.0,0.0,0.0,0.0,0.0,0.0,0.0,0.0,0.0,0.0,0.0,0.0,0.0,0.0,0.0,0.0,0.0,0.0,0.0,0.0,0.0,0.0,0.0,0.0,0.0,0.0,0.0,0.0,0.0,0.0,0.0,0.0,0.0,0.0,0.0,0.0,0.0,0.0,0.0,0.0,-4.3316,-4.418,-4.5283,-4.5529,-4.5756,-4.5946,-4.5141,-4.4144,-4.3015,0.0,0.0,0.0,0.0,0.0,0.0,0.0,0.0,0.0,0.0,0.0,0.0,0.0,0.0,0.0,0.0,0.0,0.0,0.0,0.0,0.0,0.0,0.0,0.0,0.0,0.0,0.0,0.0,0.0,0.0,0.0,0.0,0.0,0.0,0.0,0.0,0.0,0.0,-4.211,-4.4536,0.0,0.0,0.0,0.0,0.0,0.0,0.0,0.0,-4.6805,0.0,0.0,0.0,0.0,0.0,0.0,0.0,0.0,0.0,0.0,0.0,0.0,0.0,0.0,0.0,0.0,0.0,0.0,0.0,0.0,0.0,0.0,0.0,0.0,0.0,0.0,0.0,0.0,0.0,0.0,0.0,0.0,0.0,0.0,0.0,0.0,0.0,0.0,0.0,0.0,0.0,0.0,0.0,0.0,0.0,0.0,0.0,0.0,0.0,0.0,0.0,0.0,0.0,0.0,0.0,0.0,-4.1905,-4.2863,-4.3903,-4.4943,-4.5236,-4.5501,-4.5775,-4.4452,-4.3626,-4.3329,0.0,0.0,0.0,0.0,0.0,0.0,0.0,0.0,0.0,0.0,0.0,0.0,0.0,0.0,0.0,0.0,0.0,0.0,0.0,0.0,0.0,0.0,0.0,0.0,0.0,0.0,0.0,0.0,0.0,0.0,0.0,0.0,0.0,0.0,0.0,0.0,0.0,0.0,0.0,-4.4734,-4.6808,0.0,0.0,0.0,0.0,0.0,0.0,0.0,0.0,-4.6823,0.0,0.0,0.0,0.0,0.0,0.0,0.0,0.0,0.0,0.0,0.0,0.0,0.0,0.0,0.0,0.0,0.0,0.0,0.0,0.0,0.0,0.0,0.0,0.0,0.0,0.0,0.0,0.0,0.0,0.0,0.0,0.0,0.0,0.0,0.0,0.0,0.0,0.0,0.0,0.0,0.0,0.0,0.0,0.0,0.0,0.0,0.0,0.0,0.0,0.0,0.0,0.0,0.0,0.0,0.0,-4.2108,-4.3122,-4.4038,-4.4826,-4.5082,-4.5355,-4.5654,-4.4248,-4.3468,0.0,0.0,0.0,0.0,0.0,0.0,0.0,0.0,0.0,0.0,0.0,0.0,0.0,0.0,0.0,0.0,0.0,0.0,0.0,0.0,0.0,0.0,0.0,0.0,0.0,0.0,0.0,0.0,0.0,0.0,0.0,0.0,0.0,0.0,0.0,0.0,0.0,0.0,0.0,0.0,-4.6358,-4.7836,-4.8156,0.0,0.0,0.0,0.0,0.0,0.0,-4.7804,-4.79,0.0,0.0,0.0,0.0,0.0,0.0,0.0,0.0,0.0,0.0,0.0,0.0,0.0,0.0,0.0,0.0,0.0,0.0,0.0,0.0,0.0,0.0,0.0,0.0,0.0,0.0,0.0,0.0,0.0,0.0,0.0,0.0,0.0,0.0,0.0,0.0,0.0,0.0,0.0,0.0,0.0,0.0,0.0,0.0,0.0,0.0,0.0,0.0,0.0,0.0,0.0,0.0,0.0,0.0,0.0,-4.2284,-4.3268,-4.4076,-4.4668,-4.4887,-4.5156,-4.5518,-4.4104,-4.3376,0.0,0.0,0.0,0.0,0.0,0.0,0.0,0.0,0.0,0.0,0.0,0.0,0.0,0.0,0.0,0.0,0.0,0.0,0.0,0.0,0.0,0.0,0.0,0.0,0.0,0.0,0.0,0.0,0.0,0.0,0.0,0.0,0.0,0.0,0.0,0.0,0.0,0.0,0.0,0.0,0.0,-4.8641,-4.9375,-4.9711,0.0,0.0,0.0,0.0,-4.8978,-4.9284,0.0,0.0,0.0,0.0,0.0,0.0,0.0,0.0,0.0,0.0,0.0,0.0,0.0,0.0,0.0,0.0,0.0,0.0,0.0,0.0,0.0,0.0,0.0,0.0,0.0,0.0,0.0,0.0,0.0,0.0,0.0,0.0,0.0,0.0,0.0,0.0,0.0,0.0,0.0,0.0,0.0,0.0,0.0,0.0,0.0,0.0,0.0,0.0,0.0,0.0,0.0,0.0,0.0,0.0,0.0,0.0,-4.1786,-4.2607,-4.3471,-4.4327,-4.4493,-4.4861,-4.5381,-4.394,-4.3243,0.0,0.0,0.0,0.0,0.0,0.0,0.0,0.0,0.0,0.0,0.0,0.0,0.0,0.0,0.0,0.0,0.0,0.0,0.0,0.0,0.0,0.0,0.0,0.0,0.0,0.0,0.0,0.0,0.0,0.0,0.0,0.0,0.0,0.0,0.0,0.0,0.0,0.0,0.0,0.0,0.0,-4.8324,-4.9497,-5.0244,-5.0444,0.0,0.0,-4.9942,-4.9858,-4.9905,0.0,0.0,0.0,0.0,0.0,0.0,0.0,0.0,0.0,0.0,0.0,0.0,0.0,0.0,0.0,0.0,0.0,0.0,0.0,0.0,0.0,0.0,0.0,0.0,0.0,0.0,0.0,0.0,0.0,0.0,0.0,0.0,0.0,0.0,0.0,0.0,0.0,0.0,0.0,0.0,0.0,0.0,0.0,0.0,0.0,0.0,0.0,0.0,0.0,0.0,0.0,0.0,0.0,0.0,0.0,-4.0985,-4.181,-4.2528,-4.3349,-4.4265,-4.4629,-4.4922,-4.5222,-4.3835,-4.3214,0.0,0.0,0.0,0.0,0.0,0.0,0.0,0.0,0.0,0.0,0.0,0.0,0.0,0.0,0.0,0.0,0.0,0.0,0.0,0.0,0.0,0.0,0.0,0.0,0.0,0.0,0.0,0.0,0.0,0.0,0.0,0.0,0.0,0.0,0.0,0.0,0.0,0.0,0.0,0.0,0.0,0.0,-4.9488,-5.0333,0.0,0.0,0.0,-5.0742,-5.0738,0.0,0.0,0.0,0.0,0.0,0.0,0.0,0.0,0.0,0.0,0.0,0.0,0.0,0.0,0.0,0.0,0.0,0.0,0.0,0.0,0.0,0.0,0.0,0.0,0.0,0.0,0.0,0.0,0.0,0.0,0.0,0.0,0.0,0.0,0.0,0.0,0.0,0.0,0.0,0.0,0.0,0.0,0.0,0.0,0.0,0.0,0.0,0.0,0.0,0.0,0.0,0.0,0.0,0.0,0.0,0.0,0.0,-4.1892,-4.2399,-4.3235,-4.4398,-4.477,-4.4995,-4.5096,-4.377,0.0,0.0,0.0,0.0,0.0,0.0,0.0,0.0,0.0,0.0,0.0,0.0,0.0,0.0,0.0,0.0,0.0,0.0,0.0,0.0,0.0,0.0,0.0,0.0,0.0,0.0,0.0,-3.8925,0.0,0.0,0.0,0.0,0.0,0.0,0.0,0.0,0.0,0.0,0.0,0.0,0.0,0.0,-4.8778,-5.0124,-5.0635,-5.106,0.0,0.0,-5.1196,-5.0976,-4.9862,-4.896,0.0,0.0,0.0,0.0,0.0,0.0,0.0,0.0,0.0,0.0,0.0,0.0,0.0,0.0,0.0,0.0,0.0,0.0,0.0,0.0,0.0,0.0,0.0,0.0,0.0,0.0,0.0,0.0,0.0,0.0,0.0,0.0,0.0,0.0,0.0,0.0,0.0,0.0,0.0,0.0,0.0,0.0,0.0,0.0,0.0,0.0,0.0,0.0,0.0,0.0,0.0,0.0,0.0,0.0,-4.0058,-4.1929,-4.1921,-4.2849,-4.4758,-4.484,-4.495,-4.5154,-4.3656,-4.2909,0.0,0.0,0.0,0.0,0.0,0.0,0.0,0.0,0.0,0.0,0.0,0.0,0.0,0.0,0.0,0.0,0.0,0.0,0.0,0.0,0.0,0.0,0.0,0.0,0.0,0.0,0.0,0.0,0.0,0.0,0.0,0.0,0.0,0.0,0.0,0.0,0.0,0.0,0.0,0.0,0.0,-4.9231,-5.1845,-5.1411,-5.1449,0.0,-5.2206,-5.0923,-5.0134,-4.9964,-4.9059,-4.6576,0.0,0.0,0.0,0.0,0.0,0.0,0.0,0.0,0.0,0.0,0.0,0.0,0.0,0.0,0.0,0.0,0.0,0.0,0.0,0.0,0.0,0.0,0.0,0.0,0.0,0.0,0.0,0.0,0.0,0.0,0.0,0.0,0.0,0.0,0.0,0.0,0.0,0.0,0.0,0.0,0.0,0.0,0.0,0.0,0.0,0.0,0.0,0.0,0.0,0.0,0.0,0.0,0.0,-3.9677,-4.1049,-4.1589,-4.2457,-4.3673,-4.4518,-4.4919,-4.4943,-4.3977,-4.333,0.0,0.0,0.0,0.0,0.0,0.0,0.0,0.0,0.0,0.0,0.0,0.0,0.0,0.0,0.0,0.0,0.0,0.0,0.0,0.0,0.0,0.0,0.0,0.0,0.0,0.0,0.0,0.0,-4.2407,-4.3507,-4.3828,0.0,0.0,0.0,0.0,0.0,0.0,0.0,0.0,0.0,0.0,-4.8926,-5.0578,-5.0836,0.0,0.0,-5.1619,-5.1152,-5.0809,-4.9881,-4.8828,-4.7777,-4.6707,0.0,0.0,0.0,0.0,0.0,0.0,0.0,0.0,0.0,0.0,0.0,0.0,0.0,0.0,0.0,0.0,0.0,0.0,0.0,0.0,0.0,0.0,0.0,0.0,0.0,0.0,0.0,0.0,0.0,0.0,0.0,0.0,0.0,0.0,0.0,0.0,0.0,0.0,0.0,0.0,0.0,0.0,0.0,0.0,0.0,0.0,0.0,0.0,0.0,0.0,0.0,0.0,-3.9942,-4.0974,-4.1822,-4.2696,-4.3562,-4.4462,-4.4919,-4.4864,-4.4243,-4.3577,0.0,0.0,0.0,0.0,0.0,0.0,0.0,0.0,0.0,0.0,0.0,0.0,0.0,0.0,0.0,0.0,0.0,0.0,0.0,0.0,0.0,0.0,0.0,0.0,0.0,0.0,0.0,0.0,-4.3395,-4.4601,-4.4877,0.0,0.0,0.0,0.0,0.0,0.0,0.0,0.0,0.0,0.0,-4.8916,-5.0364,-5.0817,-5.1125,-5.1442,-5.1358,-5.119,-5.0928,-4.9866,-4.8906,-4.8361,0.0,0.0,0.0,0.0,0.0,0.0,0.0,0.0,0.0,0.0,0.0,0.0,0.0,0.0,0.0,0.0,0.0,0.0,0.0,0.0,0.0,0.0,0.0,0.0,0.0,0.0,0.0,-3.4011,0.0,0.0,-3.5073,0.0,0.0,0.0,0.0,0.0,0.0,0.0,0.0,0.0,0.0,0.0,0.0,0.0,0.0,0.0,0.0,0.0,0.0,0.0,0.0,0.0,0.0,-4.0955,-4.2039,-4.2672,-4.3606,-4.4745,-4.4802,-4.4883,-4.5034,-4.4309,-4.3555,-4.2843,0.0,0.0,0.0,0.0,0.0,0.0,0.0,0.0,0.0,0.0,0.0,0.0,0.0,0.0,0.0,0.0,0.0,0.0,0.0,0.0,0.0,0.0,0.0,0.0,0.0,0.0,-4.33,-4.3574,-4.3958,0.0,0.0,0.0,0.0,0.0,0.0,0.0,0.0,0.0,-4.8327,-4.8579,-4.951,-5.1936,-5.168,-5.1436,-5.2214,-5.1705,-5.0911,-5.0117,-4.9977,-4.9374,0.0,0.0,0.0,0.0,0.0,0.0,0.0,0.0,0.0,0.0,0.0,0.0,0.0,0.0,0.0,0.0,0.0,0.0,0.0,0.0,0.0,0.0,0.0,0.0,0.0,0.0,0.0,-3.5195,-3.6396,0.0,0.0,0.0,0.0,0.0,0.0,0.0,0.0,0.0,0.0,0.0,-3.972,-3.9718,0.0,0.0,0.0,0.0,0.0,0.0,0.0,0.0,0.0,0.0,0.0,0.0,-4.0802,-4.1763,-4.2561,-4.295,-4.2942,-4.4153,-4.4612,-4.4201,-4.4509,-4.4387,-4.375,0.0,0.0,0.0,0.0,0.0,0.0,0.0,0.0,0.0,0.0,0.0,0.0,0.0,0.0,0.0,0.0,0.0,0.0,0.0,0.0,0.0,0.0,0.0,0.0,0.0,-4.2319,0.0,0.0,0.0,0.0,0.0,0.0,0.0,0.0,0.0,0.0,-4.5956,-4.6705,-4.8434,-4.9088,-4.9934,-5.1389,-5.1369,-5.1293,0.0,0.0,0.0,0.0,0.0,0.0,0.0,0.0,0.0,0.0,0.0,0.0,0.0,0.0,-4.6183,-4.42,-4.3288,-4.2806,-4.2697,0.0,0.0,0.0,0.0,0.0,0.0,0.0,0.0,0.0,0.0,0.0,0.0,0.0,0.0,-3.6675,-3.7851,-3.7655,0.0,0.0,0.0,0.0,0.0,0.0,0.0,0.0,-3.9968,-4.0235,-4.0719,-4.0774,-4.0929,-4.1139,-4.1053,-4.0814,0.0,0.0,0.0,0.0,0.0,0.0,0.0,0.0,-4.1404,-4.2069,-4.2906,-4.3183,-4.2938,-4.412,-4.46,-4.4243,-4.4301,-4.4143,-4.3757,-4.2997,-4.2304,0.0,0.0,0.0,0.0,0.0,0.0,0.0,0.0,0.0,0.0,0.0,0.0,0.0,0.0,0.0,0.0,0.0,0.0,0.0,0.0,0.0,0.0,0.0,-4.2975,0.0,0.0,0.0,0.0,0.0,0.0,0.0,0.0,0.0,-4.6734,-4.6836,-4.7494,-4.8963,-4.9561,-5.0195,-5.1083,0.0,0.0,0.0,0.0,0.0,0.0,0.0,-5.0448,-5.0449,-4.9723,-4.9117,-4.9055,-4.9373,-4.9622,-4.9572,0.0,0.0,-4.6284,-4.5331,-4.4838,-4.472,-4.5634,-4.6392,-4.6324,-4.7474,-4.8431,0.0,0.0,0.0,0.0,-3.3431,0.0,0.0,0.0,-3.6944,-3.7558,0.0,-3.8585,0.0,0.0,0.0,0.0,-4.0136,-4.0362,0.0,0.0,-4.1213,-4.1583,-4.1739,-4.2297,-4.2591,-4.2575,-4.2122,-4.1959,-4.1992,-4.1526,-4.122,0.0,0.0,0.0,0.0,0.0,-4.2773,-4.2943,-4.3755,-4.4321,-4.4578,-4.4674,-4.4877,-4.5135,-4.3781,-4.3052,-4.2984,-4.2346,-4.1559,-4.0827,-4.0839,0.0,0.0,0.0,0.0,0.0,0.0,0.0,0.0,0.0,0.0,0.0,0.0,0.0,0.0,0.0,0.0,0.0,0.0,0.0,0.0,-4.3092,0.0,0.0,0.0,0.0,0.0,0.0,0.0,0.0,0.0,-4.7596,-4.7616,-4.8254,-4.9052,-4.9869,0.0,0.0,0.0,0.0,-5.1325,-5.1271,-5.134,-5.1387,-5.1266,-5.1308,-5.1328,-5.1288,0.0,0.0,-4.9968,-5.0748,-5.1308,-5.1218,-5.0592,-4.9874,-4.8994,-4.8476,-4.8222,-4.8172,-4.8186,-4.832,-4.8333,-4.9084,-4.967,-3.4835,0.0,0.0,0.0,0.0,-3.5243,-3.6288,-3.764,-3.7664,-3.8553,-3.9928,-3.9698,0.0,0.0,0.0,0.0,0.0,0.0,-4.1415,-4.1907,-4.2118,-4.2243,-4.2284,-4.251,-4.2649,-4.2746,-4.2757,-4.2778,-4.2832,-4.284,-4.2263,-4.1148,0.0,0.0,0.0,0.0,-4.3049,-4.3605,-4.3955,-4.3968,-4.3624,-4.4417,-4.4995,-4.5312,-4.4921,-4.471,-4.4747,-4.4002,-4.3258,-4.2582,-4.2033,0.0,0.0,0.0,0.0,0.0,0.0,0.0,0.0,0.0,0.0,0.0,0.0,0.0,0.0,0.0,0.0,0.0,0.0,0.0,-4.2217,-4.2997,-4.352,0.0,0.0,0.0,0.0,0.0,0.0,0.0,0.0,0.0,-4.9353,-4.951,-4.9718,0.0,0.0,-5.1003,-5.1241,-5.1821,-5.2243,-5.2264,-5.2767,0.0,-5.2355,-5.2255,-5.2029,-5.1462,-5.1191,-5.1008,-5.0972,-5.1206,-5.14,-5.1351,-5.1173,-5.0941,-5.0647,-4.9564,-4.8744,-4.8651,-4.9075,-4.9473,-4.9477,-5.0169,-5.073,-3.6407,-3.6584,-3.6026,-3.588,-3.6097,-3.676,-3.7736,-3.8839,-3.9007,-3.9686,-4.0724,-4.0516,-4.0553,-4.0762,-4.0834,0.0,0.0,0.0,-4.206,-4.2425,-4.2483,-4.2524,-4.2546,-4.2668,-4.2824,-4.2994,-4.3178,-4.3451,-4.3833,-4.3697,-4.327,-4.2575,0.0,-4.2498,-4.293,-4.3156,-4.3546,-4.4117,-4.4273,-4.4228,-4.4002,-4.4718,-4.5208,-4.5381,-4.5112,-4.5012,-4.5087,-4.4633,-4.4066,-4.3419,-4.3228,-4.2419,0.0,0.0,0.0,0.0,0.0,0.0,0.0,0.0,0.0,0.0,0.0,-3.9667,-4.0233,0.0,0.0,0.0,-4.1293,-4.1948,-4.3093,-4.3657,0.0,0.0,0.0,0.0,0.0,0.0,0.0,-4.8449,-4.9467,-5.0213,-5.0523,-5.0566,-5.0555,-5.0563,-5.1004,-5.1339,-5.133,0.0,-5.2146,-5.2174,-5.2603,-5.274,-5.2255,-5.2165,-5.195,-5.1465,-5.1696,-5.1745,-5.143,-5.1387,-5.1384,-5.1423,-5.1671,-5.1804,-5.1453,-5.0798,-5.0193,-4.9877,-5.0131,-5.0442,-5.0431,-5.1066,-5.1548,-3.7238,-3.806,-3.756,-3.7311,-3.7335,-3.871,-3.9625,-4.0171,-4.0534,-4.0793,-4.0918,-4.107,-4.133,-4.167,-4.2121,0.0,-4.2434,-4.2526,-4.247,-4.2369,-4.2508,-4.2607,-4.2707,-4.2881,-4.3123,-4.3447,-4.3516,-4.3969,-4.479,-4.4173,-4.4136,-4.4733,-4.4169,-4.3865,-4.3913,-4.4005,-4.421,-4.4525,-4.4661,-4.4888,-4.5201,-4.5322,-4.5381,-4.54,-4.4744,-4.4479,-4.4612,-4.4539,-4.4228,-4.364,-4.4243,-4.3942,-4.2493,0.0,0.0,0.0,0.0,0.0,0.0,0.0,0.0,0.0,0.0,0.0,0.0,0.0,0.0,-4.1166,-4.1829,0.0,-4.4479,-4.472,0.0,0.0,0.0,-4.6515,-4.7309,-4.7518,-4.8213,-4.9811,0.0,0.0,-5.1223,-5.1358,-5.1389,-5.14,-5.1397,-5.1397,-5.14,-5.1478,-5.1495,-5.1615,-5.1612,-5.1612,-5.1715,-5.154,-5.1464,-5.1435,-5.2072,-5.2204,-5.157,-5.1392,-5.1392,-5.1394,-5.2058,-5.2331,-5.155,-5.1921,-5.2364,-5.1439,-5.1246,-5.1186,-5.1176,-5.1641,-5.1884,-3.7178,-3.7972,-3.8087,-3.8449,-3.8942,-3.9403,-3.9918,-4.0436,-4.0728,-4.0965,-4.114,-4.138,-4.1714,-4.2124,-4.2246,-4.2472,-4.2805,-4.2863,-4.292,-4.2994,-4.3124,-4.3267,-4.3355,-4.3408,-4.3876,-4.4596,-4.4077,-4.4337,-4.5249,-4.45,-4.4293,-4.4645,-4.4491,-4.4294,-4.406,-4.4374,-4.4562,-4.4669,-4.4888,-4.5106,-4.5282,-4.5253,-4.5342,-4.555,-4.5385,-4.534,-4.5395,-4.4892,-4.4498,-4.4343,-4.4045,-4.3689,-4.3298,-4.2459,0.0,0.0,0.0,0.0,0.0,0.0,0.0,0.0,0.0,-4.1274,-4.2016,0.0,-4.2494,0.0,-4.3025,-4.358,-4.4632,-4.4763,0.0,0.0,-4.603,-4.6288,-4.6501,-4.7672,-4.8643,-4.9055,-5.0254,-5.1171,-5.1362,-5.1386,-5.1388,-5.1386,-5.1399,-5.1401,-5.1416,-5.1997,-5.2384,-5.2401,-5.285,-5.3123,-5.2427,-5.1829,-5.1385,-5.1384,-5.1601,-5.1623,-5.1425,-5.1394,-5.1403,-5.1403,-5.1546,-5.1609,-5.1433,-5.159,-5.1664,-5.1435,-5.1372,-5.1323,-5.1288,-5.1391,-5.1397,-3.7208,-3.7934,-3.8234,-3.8683,-3.9202,-3.9484,-3.9807,-4.0188,-4.0541,-4.0871,-4.1088,-4.1448,-4.1823,-4.2225,-4.2685,-4.3055,-4.3463,-4.3903,-4.3998,-4.378,-4.3851,-4.3825,-4.3695,-4.3744,-4.4165,-4.4807,-4.439,-4.468,-4.5556,-4.4857,-4.47,-4.5176,-4.4884,-4.4663,-4.4565,-4.4701,-4.482,-4.4893,-4.5156,-4.5361,-4.5429,-4.54,-4.5448,-4.5586,-4.5594,-4.5646,-4.5743,-4.5309,-4.513,-4.5219,-4.4836,-4.4474,-4.4191,-4.3364,-4.2734,0.0,0.0,0.0,0.0,0.0,0.0,0.0,0.0,0.0,0.0,0.0,-4.3637,-4.4086,-4.4035,-4.4367,-4.5293,-4.539,-4.5579,-4.6039,-4.6167,-4.6345,-4.6695,-4.797,-4.8947,-4.9298,-5.0553,-5.14,-5.1396,-5.1388,-5.1394,-5.1394,-5.139,-5.139,-5.1419,-5.1847,-5.2136,-5.2136,-5.2526,-5.2692,-5.2178,-5.1718,-5.139,-5.1386,-5.1386,-5.1394,-5.1394,-5.1403,-5.1391,-5.1416,-5.1716,-5.1837,-5.149,-5.1742,-5.1874,-5.1496,-5.1386,-5.1382,-5.1328,-5.1243,-5.1201,-3.7312,-3.7963,-3.8307,-3.8588,-3.8832,-3.9282,-3.9563,-3.9729,-4.0221,-4.0614,-4.0959,-4.1403,-4.1762,-4.2118,-4.3027,-4.371,-4.4189,-4.4995,-4.5094,-4.46,-4.4618,-4.4369,-4.3886,-4.3999,-4.4289,-4.4688,-4.4573,-4.4998,-4.5833,-4.5168,-4.5167,-4.5786,-4.5245,-4.5019,-4.5096,-4.503,-4.5038,-4.517,-4.5438,-4.5586,-4.5605,-4.5586,-4.5594,-4.5594,-4.5594,-4.5643,-4.5771,-4.5719,-4.578,-4.5952,-4.5922,-4.5609,-4.4904,-4.4069,-4.3236,0.0,-4.1566,0.0,0.0,0.0,0.0,0.0,0.0,0.0,0.0,-4.4124,-4.5046,-4.5044,-4.4924,-4.5204,-4.6013,-4.6081,-4.612,-4.611,-4.6165,-4.6481,-4.7186,-4.8059,-4.8947,-4.9745,-5.0654,-5.1258,-5.1383,-5.1401,-5.1394,-5.1394,-5.1394,-5.1394,-5.1394,-5.1414,-5.1472,-5.1394,-5.1398,-5.159,-5.1484,-5.1432,-5.1384,-5.1378,-5.1385,-5.1388,-5.1385,-5.1388,-5.1394,-5.1447,-5.1943,-5.2201,-5.1525,-5.2006,-5.2196,-5.1528,-5.1403,-5.1385,-5.1335,-5.1276,-5.1186,-3.7474,-3.8087,-3.8556,-3.875,-3.8832,-3.9191,-3.9468,-3.9729,-3.9986,-4.0458,-4.107,-4.1448,-4.1719,-4.1956,-4.2486,-4.3282,-4.4267,-4.4564,-4.4818,-4.508,-4.5247,-4.4994,-4.4368,-4.4397,-4.4885,-4.5634,-4.4939,-4.5141,-4.6181,-4.5359,-4.5148,-4.5477,-4.5367,-4.5253,-4.5182,0.0,0.0,0.0,-4.555,-4.5577,-4.5541,-4.5568,-4.5594,-4.5594,-4.5594,0.0,-4.5646,-4.5676,-4.5712,-4.5752,-4.5902,0.0,0.0,0.0,0.0,0.0,0.0,0.0,0.0,0.0,0.0,0.0,-4.4287,-4.4609,-4.4528,-4.5342,-4.5862,-4.5794,-4.5769,-4.5822,-4.6007,-4.6066,-4.6114,-4.6193,-4.6201,-4.6271,-4.6445,-4.7228,-4.8077,-4.8935,-4.9806,-5.0625,-5.1286,-5.1392,-5.1394,-5.1394,-5.1394,-5.1394,-5.1394,-5.1394,-5.1394,-5.1396,-5.1391,-5.1386,-5.1402,-5.1364,-5.1311,-5.1307,-5.1312,-5.1331,-5.1316,-5.1326,-5.1317,-5.1323,-5.15,-5.1628,-5.1425,-5.1547,-5.1623,-5.1366,-5.1369,-5.1391,-5.1385,-5.1335,-5.128,-3.8027,-3.8512,-3.8714,-3.8805,0.0,-3.8969,-3.9175,-3.9405,-4.0169,-4.089,-4.1553,-4.1893,-4.2,-4.1987,-4.2718,-4.34,-4.4093,-4.5164,-4.559,-4.5577,-4.6172,-4.6092,-4.5473,-4.5077,-4.5169,-4.5679,-4.499,-4.4953,-4.5475,-4.53,-4.526,-4.5409,-4.5486,-4.5457,-4.5391,-4.5541,-4.5577,-4.5559,-4.5559,-4.5522,-4.5504,-4.5504,-4.5504,-4.5504,-4.5504,0.0,0.0,0.0,0.0,0.0,0.0,0.0,0.0,-4.4497,-4.3891,-4.3463,-4.2711,-4.2659,-4.3497,-4.3581,-4.3952,-4.4822,-4.5313,-4.553,-4.5559,-4.585,-4.6042,-4.5988,-4.6012,-4.6061,-4.6042,-4.6114,-4.6165,-4.6205,-4.6197,-4.6208,-4.6332,-4.7349,-4.8295,-4.8827,-4.9948,-5.0937,-5.1334,-5.14,-5.14,-5.1396,-5.1387,-5.139,-5.1398,-5.1394,-5.1394,-5.1394,-5.1396,-5.1386,-5.1386,-5.1348,-5.1296,-5.1307,-5.13,-5.13,-5.13,-5.1308,-5.13,-5.131,-5.1327,-5.1355,-5.1394,-5.1378,-5.1333,-5.1297,-5.133,-5.1349,-5.1349,-5.1349,-5.1335,-3.8607,-3.8865,-3.9026,-3.9029,-3.8887,-3.9046,-3.9166,-3.9325,-4.0471,0.0,0.0,-4.2217,-4.2279,-4.1998,-4.2947,-4.3514,-4.387,-4.57,-4.6301,-4.5938,-4.6929,-4.7067,-4.6466,-4.5794,-4.5466,-4.536,-4.5002,-4.4794,-4.4676,-4.5074,-4.5292,-4.5332,-4.5457,-4.5559,-4.5586,-4.5594,-4.5594,-4.5594,-4.5522,-4.5495,-4.5485,-4.5429,-4.541,-4.541,-4.5419,-4.5419,-4.5419,-4.5476,-4.5541,-4.5577,-4.5657,-4.561,-4.5461,-4.5021,-4.4718,-4.4548,-4.4054,-4.4121,-4.4962,-4.4891,-4.5227,-4.6099,-4.6177,-4.6146,-4.6117,-4.6061,-4.6012,-4.5982,-4.6042,-4.6095,-4.6105,-4.6141,-4.6185,-4.6212,-4.6208,-4.6199,-4.6297,-4.7579,-4.8552,-4.8934,-5.0152,-5.1235,-5.1359,-5.1389,-5.139,-5.1387,-5.1398,-5.1402,-5.139,-5.14,-5.1394,-5.1396,-5.1396,-5.1385,-5.1386,-5.1379,-5.131,-5.1299,-5.1307,-5.1296,-5.1304,-5.13,-5.1308,-5.1303,-5.131,-5.1336,-5.1362,-5.134,-5.131,-5.1307,-5.1292,-5.13,-5.13,-5.1346,-5.1349,-3.8616,-3.8735,-3.9886,-3.99,-3.9295,-4.0026,-4.0309,-4.0233,-4.0668,-4.0686,-4.054,-4.1784,-4.2084,-4.1688,-4.2228,-4.289,-4.3676,-4.4959,-4.5638,-4.5957,-4.6947,-4.705,-4.644,-4.6292,-4.5913,-4.5354,-4.535,-4.5077,-4.4595,-4.465,-4.4825,-4.5041,-4.5201,-4.5362,-4.5577,-4.5594,-4.5594,-4.5594,-4.5541,-4.5476,-4.5419,-4.541,-4.541,-4.541,-4.5448,-4.5485,-4.5495,-4.5495,-4.5504,-4.5513,-4.5573,-4.528,-4.4573,-4.516,-4.5213,-4.4488,-4.4329,-4.4634,-4.5433,-4.495,-4.5049,-4.592,-4.6042,-4.6037,-4.6113,-4.6089,-4.6071,-4.6007,-4.6007,-4.6047,-4.6104,-4.6078,-4.608,-4.6111,-4.6176,-4.6199,-4.616,-4.7076,-4.8012,-4.8733,-4.9655,-5.0649,-5.1279,-5.1398,-5.1399,-5.1402,-5.1384,-5.1385,-5.1385,-5.1393,-5.1396,-5.1398,-5.1396,-5.1385,-5.1385,-5.1385,-5.1349,-5.1306,-5.1294,-5.1307,-5.1304,-5.13,-5.13,-5.1304,-5.13,-5.1307,-5.1316,-5.1303,-5.1303,-5.1292,-5.13,-5.13,-5.13,-5.1328,-5.1304,-3.9294,-3.9341,-3.9743,-3.9694,-3.9332,-3.9538,-3.9589,-3.9638,-4.0377,-4.1011,-4.1443,-4.2455,-4.2734,-4.2527,-4.2388,-4.2632,-4.3273,-4.4099,-4.4876,-4.5621,-4.6615,-4.7206,-4.737,-4.6982,-4.6594,-4.6258,-4.5591,-4.5121,-4.483,-4.4655,-4.4612,-4.4732,-4.4954,-4.514,-4.5244,-4.4911,-4.4988,-4.5475,-4.5457,-4.5448,-4.54,-4.537,-4.5351,-4.54,-4.5429,-4.5438,-4.5458,-4.5448,-4.5448,-4.5458,-4.5466,-4.5312,-4.493,-4.5383,-4.5627,-4.5642,-4.5305,-4.5441,-4.6262,-4.5611,-4.538,-4.5802,-4.5848,-4.588,-4.5983,-4.6032,-4.6027,-4.6002,-4.6032,-4.5862,-4.5451,-4.5425,-4.527,-4.4828,-4.4793,-4.4998,-4.554,-4.6735,-4.7847,-4.874,-4.9993,-5.0938,-5.1363,-5.1384,-5.1402,-5.1402,-5.1384,-5.1386,-5.1385,-5.1384,-5.139,-5.139,-5.1397,-5.1398,-5.1396,-5.1387,-5.1378,-5.1366,-5.1333,-5.1317,-5.1304,-5.13,-5.13,-5.13,-5.1308,-5.1312,-5.13,-5.1308,-5.1308,-5.1304,-5.13,-5.13,-5.13,-5.13,-5.1292,-3.9886,-3.9794,-3.9665,-3.9557,-3.9504,-3.9024,-3.8805,-3.8942,-4.0286,-4.1366,-4.2262,-4.307,-4.3385,-4.3263,-4.2847,-4.2757,-4.2992,-4.3646,-4.4345,-4.5017,-4.5995,-4.6993,-4.7826,-4.7313,-4.7057,-4.6948,-4.5876,-4.5238,-4.4992,-4.4569,-4.4388,-4.4517,-4.4953,-4.5117,-4.4962,-4.4454,-4.455,-4.5214,-4.5262,-4.5302,-4.54,-4.5339,-4.5328,-4.5398,-4.5418,-4.5418,-4.5409,-4.5227,-4.5208,-4.537,-4.5198,-4.5179,-4.536,-4.5649,-4.6061,-4.6532,-4.6164,-4.6069,-4.6499,-4.6007,-4.5657,-4.5688,-4.5688,-4.5734,-4.5886,-4.5949,-4.6,-4.5997,-4.5842,-4.5497,-4.4956,-4.4666,-4.4398,-4.3925,-4.3893,-4.4394,-4.5178,-4.6554,-4.7825,-4.8774,-5.0182,-5.1123,-5.1345,-5.1386,-5.1386,-5.1385,-5.1386,-5.1386,-5.1401,-5.1386,-5.1386,-5.1402,-5.1398,-5.1391,-5.14,-5.1401,-5.1386,-5.1384,-5.1361,-5.1327,-5.132,-5.1303,-5.1312,-5.1308,-5.13,-5.13,-5.13,-5.13,-5.13,-5.13,-5.13,-5.13,-5.13,-5.13,-5.1292,-3.981,-3.9744,-4.0216,-4.0429,-4.015,-3.9221,-3.8805,-3.9024,-4.0657,-4.1594,-4.2045,-4.3029,-4.3454,-4.336,-4.3623,-4.3434,-4.3044,-4.4027,-4.4327,-4.4144,-4.4961,-4.5995,-4.6936,-4.6864,-4.6924,-4.6965,-4.625,-4.5457,-4.4794,-4.4208,-4.4039,-4.4416,-4.5329,-4.5451,-4.4883,-4.4737,-4.4761,-4.4849,-4.4788,-4.4973,-4.5362,-4.5339,-4.5328,-4.5408,-4.539,-4.5419,-4.5333,-4.471,-4.4653,-4.5255,-4.4582,-4.4504,-4.526,-4.5978,-4.6418,-4.6502,-4.6466,-4.6222,-4.5715,-4.558,-4.5556,-4.5673,-4.5692,-4.5754,-4.5886,-4.5906,-4.5931,-4.5903,-4.5361,-4.5007,-4.4759,-4.4217,-4.4086,-4.4514,-4.4591,-4.5108,-4.594,-4.6911,-4.7818,-4.8702,-4.9754,-5.0503,-5.123,-5.1387,-5.1387,-5.1386,-5.1384,-5.1398,-5.1393,-5.1393,-5.14,-5.1387,-5.1397,-5.14,-5.1396,-5.1398,-5.1398,-5.1386,-5.1386,-5.136,-5.1332,-5.1311,-5.1302,-5.1307,-5.13,-5.13,-5.13,-5.13,-5.13,-5.13,-5.13,-5.13,-5.13,-5.13,-5.1292,-4.0024,-3.9971,-3.9984,-3.9919,-3.9675,-3.9155,-3.8914,-3.9084,-4.0615,-4.1543,-4.2068,-4.346,-4.418,-4.4277,-4.4032,-4.3839,-4.3818,-4.4067,-4.4422,-4.4755,-4.5186,-4.5893,-4.6755,-4.6527,-4.6434,-4.6386,-4.5436,-4.4765,-4.4437,-4.4271,-4.4623,-4.5326,-4.5543,-4.539,-4.5054,-4.4253,-4.4127,-4.4625,-4.414,-4.4222,-4.4829,-4.4547,-4.4341,-4.4388,-4.4504,-4.4565,-4.4613,-4.4767,-4.5034,-4.522,-4.4406,-4.4338,-4.5178,-4.4592,-4.4906,-4.6312,-4.6503,-4.6175,-4.5427,-4.538,-4.5448,-4.5575,-4.5513,-4.5584,-4.5866,-4.5819,-4.5834,-4.5936,-4.5691,-4.5327,-4.487,-4.4504,-4.4292,-4.4195,-4.4136,-4.4673,-4.606,-4.6499,-4.7395,-4.9271,-4.9939,-5.0469,-5.1191,-5.1387,-5.1387,-5.1386,-5.1402,-5.1398,-5.1391,-5.1394,-5.1401,-5.1386,-5.1401,-5.1389,-5.1398,-5.139,-5.1398,-5.1385,-5.1387,-5.138,-5.1373,-5.133,-5.1294,-5.1294,-5.131,-5.1308,-5.13,-5.13,-5.13,-5.1304,-5.13,-5.13,-5.13,-5.13,-5.1296,-4.0206,-4.0163,-3.9831,-3.9557,-3.9331,-3.9229,-3.9168,-3.9253,-4.05,-4.1406,-4.2112,-4.3535,-4.4326,-4.4475,-4.41,-4.4101,-4.4374,-4.3903,-4.4173,-4.4929,-4.4987,-4.5473,-4.6172,-4.5889,-4.5773,-4.5683,-4.4688,-4.4006,-4.3862,-4.4272,-4.4784,-4.5273,-4.5218,-4.5164,-4.5066,-4.4099,-4.4031,-4.4618,-4.413,-4.4064,-4.4398,-4.4026,-4.3819,-4.4002,-4.4402,-4.4497,-4.4298,-4.4753,-4.5067,-4.5162,-4.4122,-4.3931,-4.4731,-4.3632,-4.3888,-4.5818,-4.6104,-4.5878,-4.5314,-4.5275,-4.5319,-4.5429,-4.535,-4.5438,-4.5712,-4.5719,-4.5786,-4.5964,-4.5986,-4.5647,-4.4934,-4.4573,-4.4264,-4.395,-4.3934,-4.4656,-4.6308,-4.6552,-4.7542,-4.9705,-5.0136,-5.0508,-5.1191,-5.1387,-5.1387,-5.1386,-5.1386,-5.1384,-5.1457,-5.1596,-5.1775,-5.1758,-5.1757,-5.1653,-5.146,-5.1387,-5.1399,-5.1402,-5.1386,-5.1387,-5.1385,-5.1354,-5.131,-5.1321,-5.1336,-5.1336,-5.1349,-5.1342,-5.1333,-5.1333,-5.1333,-5.1333,-5.1343,-5.133,-5.1319,-4.0206,-4.0177,-3.999,-3.97,-3.9415,-3.9596,-3.9546,-3.9531,-4.0388,-4.1262,-4.2129,-4.3075,-4.3484,-4.3457,-4.3619,-4.4087,-4.4408,-4.3617,-4.3572,-4.4114,-4.4103,-4.4258,-4.4692,-4.4678,-4.491,-4.5253,-4.45,-4.3746,-4.3171,-4.3942,-4.4035,-4.3506,-4.4361,-4.476,-4.4884,-4.4872,-4.494,-4.5087,-4.5077,-4.4811,-4.4212,-4.4185,-4.4393,-4.4688,-4.5526,-4.558,-4.4938,-4.4309,-4.4342,-4.5095,-4.3599,-4.3115,-4.3896,-4.3904,-4.4265,-4.5026,-4.5179,-4.5213,-4.52,-4.5222,-4.5235,-4.5317,-4.5317,-4.539,-4.5621,-4.5629,-4.5749,-4.598,-4.5983,-4.5664,-4.4972,-4.4394,-4.4184,-4.4692,-4.4795,-4.5634,-4.7223,-4.7366,-4.8242,-4.974,-5.0273,-5.0625,-5.1308,-5.1387,-5.1387,-5.1387,-5.1386,-5.1385,-5.1482,-5.2046,-5.236,-5.2441,-5.2422,-5.2363,-5.16,-5.1385,-5.1384,-5.1384,-5.1391,-5.1391,-5.1401,-5.1386,-5.1361,-5.1346,-5.1343,-5.1371,-5.1391,-5.1389,-5.1384,-5.1386,-5.1381,-5.1381,-5.1374,-5.1383,-5.1372,-4.0315,-4.019,-4.0133,-3.9944,-3.9722,-3.9794,-4.0049,-4.0466,-4.1366,-4.1846,-4.2104,-4.2966,-4.3044,-4.2425,-4.189,-4.2516,-4.3906,-4.3726,-4.4062,-4.4774,-4.4852,-4.4953,-4.504,-4.4756,-4.4677,-4.4746,-4.4267,-4.3989,-4.4052,-4.4433,-4.4654,-4.4653,-4.462,-4.4911,-4.5349,-4.5176,-4.526,-4.5768,-4.5514,-4.5119,-4.4934,-4.5372,-4.55,-4.5092,-4.5213,-4.4903,-4.4063,-4.4418,-4.479,-4.5026,-4.3927,-4.3696,-4.4405,-4.4495,-4.4345,-4.4225,-4.4623,-4.4962,-4.5038,-4.508,-4.5162,-4.5341,-4.5288,-4.5371,-4.5645,-4.5704,-4.5757,-4.5956,-4.5994,-4.5797,-4.5633,-4.5303,-4.5264,-4.555,-4.5689,-4.6364,-4.7691,-4.7891,-4.8356,-5.0309,-5.0937,-5.1113,-5.1269,-5.1387,-5.1387,-5.1387,-5.1387,-5.1386,-5.1424,-5.1716,-5.1971,-5.1992,-5.2305,-5.2382,-5.1548,-5.1409,-5.139,-5.14,-5.1398,-5.14,-5.139,-5.1402,-5.1367,-5.1365,-5.1364,-5.1362,-5.1372,-5.1389,-5.1395,-5.139,-5.1389,-5.1384,-5.1394,-5.1384,-5.1389,-4.038,-4.0219,-4.0259,-4.0176,-4.0008,-4.0072,-4.0292,-4.073,-4.1284,-4.1519,-4.1637,-4.2094,-4.1921,-4.1311,-4.0934,-4.1316,-4.2507,-4.2729,-4.3539,-4.4738,-4.4549,-4.4318,-4.4148,-4.3801,-4.3717,-4.3854,-4.3938,-4.3983,-4.4098,-4.4193,-4.4342,-4.4438,-4.4122,-4.4582,-4.548,-4.5369,-4.5657,-4.6366,-4.6244,-4.5941,-4.5844,-4.6475,-4.6494,-4.5834,-4.5756,-4.5286,-4.4265,-4.4756,-4.5003,-4.4837,-4.4125,-4.3899,-4.4386,-4.4568,-4.4427,-4.4014,-4.4449,-4.4796,-4.4883,-4.4931,-4.5053,-4.527,-4.5227,-4.5311,-4.5613,-4.564,-4.5734,-4.5874,-4.5953,-4.5975,-4.6002,-4.6017,-4.6071,-4.6139,-4.6342,-4.712,-4.8538,-4.8535,-4.9359,-5.084,-5.1328,-5.1367,-5.1387,-5.1387,-5.1387,-5.1387,-5.1387,-5.1387,-5.1386,-5.1659,-5.1816,-5.1914,-5.2656,-5.289,-5.2475,-5.2278,-5.1666,-5.1519,-5.1394,-5.1394,-5.1398,-5.1394,-5.1401,-5.1384,-5.1386,-5.1347,-5.1348,-5.1386,-5.1386,-5.1384,-5.1401,-5.1399,-5.1391,-5.14,-5.1392,-4.0411,-4.0263,-4.0436,-4.0399,-4.0233,-4.0399,-4.0368,-4.0321,-4.0087,-4.0452,-4.0874,-4.0508,-4.0388,-4.0196,-4.0866,-4.1039,-4.0608,-4.0696,-4.1816,-4.351,-4.2904,-4.2311,-4.2031,-4.2039,-4.2213,-4.2562,-4.3429,-4.3617,-4.3257,-4.3359,-4.3259,-4.2734,-4.2825,-4.3711,-4.5433,-4.5422,-4.6067,-4.6855,-4.7052,-4.6915,-4.6663,-4.7055,-4.7073,-4.6568,-4.7194,-4.6993,-4.5702,-4.5217,-4.4972,-4.4815,-4.4147,-4.363,-4.3804,-4.4079,-4.4345,-4.4388,-4.46,-4.4699,-4.4693,-4.4796,-4.4919,-4.5061,-4.5072,-4.5143,-4.5322,-4.5457,-4.559,-4.5778,-4.588,-4.5916,-4.5986,-4.6002,-4.6012,-4.6178,-4.6735,-4.7665,-4.8641,-4.9577,-5.0421,-5.1191,-5.1387,-5.1387,-5.1387,-5.1387,-5.1387,-5.1387,-5.1387,-5.1387,-5.1445,-5.1894,-5.248,-5.2676,-5.2929,-5.3105,-5.3222,-5.3221,-5.2353,-5.1657,-5.1496,-5.1394,-5.1394,-5.1387,-5.1393,-5.1396,-5.1389,-5.137,-5.1349,-5.1374,-5.14,-5.1384,-5.1386,-5.1386,-5.1385,-5.1401,-5.1395,-4.0591,-4.0436,-4.0466,-4.0485,-4.0436,-4.0481,-4.0696,-4.1078,-4.0956,-4.0912,-4.0887,-4.0782,-4.0323,-3.9736,-3.978,-3.9998,-4.0277,-3.9706,-4.0464,-4.221,-4.2257,-4.2074,-4.2029,-4.2038,-4.2159,-4.2475,-4.34,-4.3617,-4.3252,-4.3488,-4.3514,-4.3041,-4.2701,-4.3246,-4.4489,-4.4648,-4.5184,-4.5918,-4.5754,-4.5438,-4.5237,-4.6149,-4.6533,-4.6386,-4.7303,-4.7386,-4.6457,-4.5885,-4.5593,-4.5469,-4.5115,-4.478,-4.4504,-4.4185,-4.4036,-4.4116,-4.4296,-4.4397,-4.4331,-4.4505,-4.4685,-4.4815,-4.4858,-4.4988,-4.5201,-4.5342,-4.5521,-4.5704,-4.5821,-4.5925,-4.5978,-4.5991,-4.6002,-4.6032,-4.6844,-4.7758,-4.8785,-5.0074,-5.0993,-5.1308,-5.1387,-5.1387,-5.1387,-5.1387,-5.1387,-5.1387,-5.1387,-5.1387,-5.1465,-5.166,-5.1797,-5.1875,-5.2519,-5.3047,-5.2832,-5.2849,-5.2571,-5.1956,-5.1714,-5.1414,-5.1394,-5.1394,-5.1402,-5.138,-5.1386,-5.1377,-5.1372,-5.1357,-5.1373,-5.1385,-5.1395,-5.14,-5.1384,-5.1386,-5.1384,-4.0696,-4.0489,-4.0489,-4.0489,-4.0489,-4.0489,-4.0749,-4.1078,-4.1009,-4.0844,-4.0642,-4.0483,-4.0118,-3.9629,-3.9621,-3.9736,-3.9882,-3.9424,-3.9844,-4.0767,-4.0936,-4.1017,-4.1244,-4.163,-4.1741,-4.1929,-4.2794,-4.3039,-4.2609,-4.3249,-4.3378,-4.289,-4.3002,-4.3611,-4.442,-4.4677,-4.5122,-4.5848,-4.5618,-4.5314,-4.5388,-4.5809,-4.6063,-4.6192,-4.7101,-4.7252,-4.6592,-4.6293,-4.605,-4.5846,-4.5938,-4.5743,-4.4986,-4.4658,-4.4363,-4.3925,-4.3992,-4.4116,-4.4048,-4.4233,-4.4393,-4.45,-4.464,-4.4808,-4.5011,-4.5178,-4.54,-4.5528,-4.5712,-4.5827,-4.588,-4.5972,-4.598,-4.6025,-4.6849,-4.7882,-4.9052,-5.0481,-5.1283,-5.1387,-5.1387,-5.1386,-5.1387,-5.1387,-5.1387,-5.1387,-5.1387,-5.1387,-5.1387,-5.1406,-5.1406,-5.1601,-5.2266,-5.2422,-5.2129,-5.2303,-5.2631,-5.2313,-5.1973,-5.1615,-5.1394,-5.1394,-5.1398,-5.1386,-5.1372,-5.1369,-5.1364,-5.1352,-5.1344,-5.136,-5.1375,-5.1394,-5.1402,-5.1386,-5.1385,-4.0646,-4.0443,-4.0489,-4.0489,-4.0489,-4.0489,-4.0524,-4.05,-4.0262,-4.0179,-4.0043,-3.9894,-3.9676,-3.9787,-4.0309,-4.0068,-3.9328,-3.984,-3.9765,-3.938,-3.9319,-3.9506,-3.9796,-4.0398,-4.0709,-4.0879,-4.1724,-4.1987,-4.1699,-4.253,-4.2763,-4.2404,-4.3028,-4.4021,-4.4387,-4.4981,-4.5146,-4.5686,-4.5891,-4.5827,-4.5894,-4.5972,-4.5755,-4.5773,-4.6709,-4.6982,-4.6417,-4.6541,-4.6383,-4.5876,-4.648,-4.6268,-4.5329,-4.537,-4.4821,-4.3691,-4.3765,-4.3865,-4.3913,-4.402,-4.414,-4.421,-4.4407,-4.4619,-4.4745,-4.4991,-4.5194,-4.5312,-4.5519,-4.5669,-4.5725,-4.5854,-4.5999,-4.6202,-4.7067,-4.8264,-4.977,-5.082,-5.1288,-5.1391,-5.1395,-5.1402,-5.1386,-5.1387,-5.1387,-5.1387,-5.1387,-5.1387,-5.1387,-5.1387,-5.1387,-5.168,-5.2051,-5.2051,-5.1836,-5.1893,-5.2262,-5.2592,-5.2273,-5.2012,-5.1593,-5.1513,-5.1392,-5.1379,-5.1361,-5.1358,-5.1349,-5.1333,-5.131,-5.133,-5.134,-5.137,-5.1381,-5.1385,-5.1387,-4.0266,-3.949,-4.0171,-4.0489,-4.0489,-4.0489,-4.0489,-4.0474,-4.0408,-4.0353,-4.0322,-4.0195,-4.0093,-4.0225,-4.0068,-3.9889,-3.9722,-3.9755,-3.9765,-3.9502,-3.9498,-3.9531,-3.9502,-3.9588,-3.9754,-3.9897,-4.0762,-4.1129,-4.1057,-4.175,-4.1953,-4.1768,-4.1878,-4.1897,-4.1991,-4.2323,-4.2166,-4.2539,-4.3349,-4.3496,-4.344,-4.461,-4.4927,-4.4682,-4.6174,-4.6654,-4.6175,-4.6706,-4.6753,-4.6151,-4.6507,-4.6329,-4.5255,-4.4928,-4.4418,-4.365,-4.3654,-4.3789,-4.3721,-4.3798,-4.3942,-4.3974,-4.4079,-4.4273,-4.4605,-4.4764,-4.4955,-4.5154,-4.5351,-4.5482,-4.5646,-4.5826,-4.6177,-4.6951,-4.7772,-4.8786,-4.9818,-5.077,-5.134,-5.1396,-5.139,-5.1378,-5.1402,-5.1387,-5.1387,-5.1387,-5.1387,-5.1387,-5.1387,-5.1387,-5.1387,-5.1387,-5.1601,-5.166,-5.166,-5.166,-5.1951,-5.2595,-5.263,-5.2526,-5.2109,-5.179,-5.1568,-5.1379,-5.1349,-5.132,-5.1319,-5.13,-5.1308,-5.1292,-5.133,-5.1381,-5.1359,-5.1351,-5.1384,-3.9059,-3.8462,-3.9474,-3.9868,-3.9933,-4.0332,-4.0489,-4.0489,-4.0436,-4.0436,-4.0366,-4.0226,-4.0191,-4.025,-3.9987,-3.9788,-3.9714,-3.962,-3.9597,-3.9581,-3.9688,-3.974,-3.9699,-3.9581,-3.9548,-3.9597,-4.0139,-4.0438,-4.0661,-4.1271,-4.1657,-4.1839,-4.1905,-4.1925,-4.2172,-4.1776,-4.1699,-4.1911,-4.2476,-4.2702,-4.2549,-4.3793,-4.4139,-4.4132,-4.5311,-4.591,-4.5901,-4.658,-4.6691,-4.6232,-4.6298,-4.6057,-4.4925,-4.4787,-4.4376,-4.3742,-4.3888,-4.3977,-4.3868,-4.3752,-4.36,-4.3632,-4.3765,-4.4036,-4.4321,-4.4519,-4.4783,-4.501,-4.5154,-4.5322,-4.5531,-4.5951,-4.6583,-4.727,-4.8437,-4.9372,-4.9924,-5.0762,-5.1242,-5.1344,-5.1362,-5.1361,-5.1389,-5.1401,-5.1385,-5.1387,-5.1387,-5.1387,-5.1387,-5.1387,-5.1387,-5.1387,-5.1387,-5.1484,-5.1523,-5.1523,-5.1914,-5.2519,-5.275,-5.2707,-5.2428,-5.201,-5.1629,-5.1379,-5.1327,-5.1296,-5.1304,-5.1284,-5.1258,-5.1272,-5.1328,-5.1353,-5.1319,-5.1323,-5.1367,-3.753,-3.7409,-3.8413,-3.8823,-3.8948,-3.9742,-3.999,-4.0213,-3.9852,-3.9958,-4.013,-3.992,-3.9804,-4.0011,-3.996,-3.9771,-3.9514,-3.9699,-3.9643,-3.964,-3.9755,-3.9882,-3.9866,-3.9855,-3.9832,-3.9865,-3.9872,-4.0039,-4.0342,-4.1084,-4.1559,-4.1681,-4.2442,-4.2947,-4.2415,-4.2415,-4.2528,-4.2299,-4.268,-4.2859,-4.2968,-4.3717,-4.4089,-4.3835,-4.4396,-4.5138,-4.5546,-4.6076,-4.6128,-4.5387,-4.5992,-4.5448,-4.4317,-4.4714,-4.4635,-4.4211,-4.4088,-4.4234,-4.4181,-4.3634,-4.3342,-4.3359,-4.3548,-4.3763,-4.4002,-4.4306,-4.4587,-4.4783,-4.5022,-4.5243,-4.5619,-4.6357,-4.7097,-4.776,-4.9057,-4.9728,-5.014,-5.0763,-5.1292,-5.13,-5.13,-5.1333,-5.1384,-5.1389,-5.1399,-5.1402,-5.1387,-5.1387,-5.1387,-5.1387,-5.1387,-5.1387,-5.1387,-5.1387,-5.1406,-5.1406,-5.1953,-5.25,-5.2656,-5.267,-5.2509,-5.2112,-5.1654,-5.1384,-5.1358,-5.1333,-5.1296,-5.1265,-5.124,-5.122,-5.1263,-5.1284,-5.1285,-5.1301,-5.1333,-3.6817,-3.6178,-3.7345,-3.7732,-3.7629,-3.7833,-3.8281,-3.8807,-3.7998,-3.8642,-3.9536,-3.9063,-3.9174,-3.996,-3.9839,-3.9804,-3.9792,-3.9882,-3.9906,-3.9914,-3.9922,-3.999,-3.9985,-3.9927,-3.9892,-3.9845,-3.9859,-3.9906,-4.0094,-4.0362,-4.0557,-4.0778,-4.116,-4.11,-4.1208,-4.1114,-4.0565,-4.0783,-4.1829,-4.2321,-4.2465,-4.3655,-4.4259,-4.3902,-4.4374,-4.4625,-4.4776,-4.5226,-4.482,-4.4115,-4.4536,-4.4818,-4.4083,-4.4113,-4.4014,-4.3732,-4.3956,-4.4069,-4.367,-4.3798,-4.3834,-4.3251,-4.334,-4.3549,-4.3763,-4.407,-4.435,-4.4587,-4.4789,-4.5312,-4.6041,-4.6491,-4.7437,-4.8527,-4.9339,-4.9964,-5.0494,-5.0945,-5.123,-5.1287,-5.1281,-5.132,-5.138,-5.1379,-5.1372,-5.1398,-5.1387,-5.1387,-5.1387,-5.1387,-5.1387,-5.1387,-5.1387,-5.1387,-5.1387,-5.1465,-5.1894,-5.2285,-5.2441,-5.2887,-5.2727,-5.2096,-5.156,-5.139,-5.1391,-5.1352,-5.1326,-5.1288,-5.124,-5.1225,-5.121,-5.1235,-5.1243,-5.1277,-5.128,-3.5424,-3.5117,-3.6197,-3.6532,-3.6473,-3.6862,-3.7292,-3.7535,-3.7054,-3.7658,-3.8756,-3.8329,-3.8689,-3.9696,-3.9625,-3.9625,-3.9696,-3.9818,-3.991,-3.9965,-4.0016,-3.9996,-4.0021,-3.9915,-3.979,-3.9477,-3.9953,-3.9987,-3.9863,-4.0134,-4.0641,-4.069,-4.0706,-4.1008,-4.0894,-4.053,-4.0474,-4.0629,-4.1309,-4.1755,-4.1842,-4.3254,-4.4358,-4.4327,-4.4693,-4.4932,-4.4853,-4.5122,-4.4653,-4.4005,-4.4046,-4.4098,-4.3629,-4.3673,-4.3706,-4.3773,-4.3776,-4.3928,-4.3715,-4.3537,-4.3429,-4.3067,-4.316,-4.3357,-4.3692,-4.4108,-4.4588,-4.4882,-4.5195,-4.5623,-4.6398,-4.698,-4.7904,-4.899,-4.9765,-5.0222,-5.0657,-5.1004,-5.1194,-5.1197,-5.118,-5.1225,-5.1281,-5.1297,-5.1342,-5.1367,-5.1396,-5.1387,-5.1387,-5.1387,-5.1387,-5.1387,-5.1387,-5.1387,-5.1387,-5.1543,-5.1836,-5.207,-5.2148,-5.2811,-5.3258,-5.2374,-5.1428,-5.1435,-5.1518,-5.1378,-5.133,-5.1312,-5.1273,-5.1225,-5.1215,-5.121,-5.1215,-5.1249,-5.1248,-3.3839,-3.402,-3.4882,-3.5169,-3.5186,-3.5901,-3.6318,-3.652,-3.6222,-3.6635,-3.7665,-3.7603,-3.7706,-3.8695,-3.8826,-3.8901,-3.8973,-3.9257,-3.9288,-3.9043,-3.9677,-3.9476,-3.9375,-3.9329,-3.9031,-3.8486,-3.9413,-3.96,-3.9358,-3.9847,-4.0091,-4.0761,-4.0888,-4.0929,-4.1223,-4.1038,-4.0753,-4.0906,-4.1305,-4.1508,-4.1627,-4.2946,-4.3811,-4.4198,-4.4487,-4.4794,-4.4763,-4.4915,-4.4802,-4.4329,-4.3787,-4.3366,-4.3193,-4.335,-4.3633,-4.4072,-4.3878,-4.3691,-4.338,-4.319,-4.3054,-4.2818,-4.2955,-4.3269,-4.3704,-4.4335,-4.4922,-4.539,-4.5735,-4.6191,-4.6724,-4.7339,-4.8254,-4.9243,-5.0074,-5.0442,-5.0652,-5.089,-5.0976,-5.1042,-5.1063,-5.1119,-5.1145,-5.1167,-5.1253,-5.134,-5.1371,-5.1394,-5.1379,-5.1387,-5.1387,-5.1387,-5.1387,-5.1387,-5.1387,-5.1406,-5.1719,-5.1797,-5.1872,-5.2417,-5.3098,-5.2278,-5.1401,-5.1595,-5.1644,-5.1467,-5.1366,-5.1339,-5.1304,-5.124,-5.1215,-5.121,-5.1208,-5.122,-5.1215,-3.2739,-3.3164,-3.3191,-3.3269,-3.3438,-3.3607,-3.4327,-3.4888,-3.4299,-3.4981,-3.6458,-3.5796,-3.6077,-3.6821,-3.6936,-3.6936,-3.7328,-3.7881,-3.791,-3.7706,-3.8489,-3.8805,-3.7836,-3.8302,-3.7833,-3.7099,-3.7913,-3.8467,-3.8028,-3.8115,-3.8959,-3.9536,-3.9864,-4.0315,-4.0767,-4.0891,-4.0642,-4.0801,-4.1164,-4.1301,-4.16,-4.2323,-4.3098,-4.3373,-4.3605,-4.3778,-4.4032,-4.4109,-4.4091,-4.3933,-4.3266,-4.2945,-4.2868,-4.3141,-4.3167,-4.3068,-4.3469,-4.3358,-4.2682,-4.3151,-4.3111,-4.2904,-4.2823,-4.3281,-4.3851,-4.4546,-4.5253,-4.5885,-4.6355,-4.6865,-4.7879,-4.799,-4.8694,-4.9556,-4.9983,-5.0222,-5.0309,-5.0449,-5.0675,-5.0816,-5.0898,-5.1002,-5.1011,-5.1042,-5.1125,-5.1195,-5.1245,-5.1296,-5.1316,-5.1351,-5.1367,-5.1387,-5.1387,-5.1387,-5.1387,-5.1387,-5.1504,-5.1523,-5.1585,-5.1655,-5.2032,-5.1684,-5.1437,-5.1828,-5.1722,-5.1418,-5.1358,-5.1359,-5.1331,-5.1272,-5.124,-5.1215,-5.1219,-5.1208,-5.1234,-3.2345,-3.2668,-3.2596,-3.2525,-3.2561,-3.2775,-3.3141,-3.3613,-3.3452,-3.4136,-3.5081,-3.5095,-3.5575,-3.6504,-3.6488,-3.6387,-3.6553,-3.691,-3.6925,-3.6866,-3.7511,-3.7763,-3.6716,-3.7395,-3.6806,-3.6257,-3.6678,-3.7042,-3.6758,-3.7368,-3.7896,-3.8446,-3.8721,-3.9072,-3.9539,-3.9536,-3.9922,-4.0275,-4.0561,-4.0732,-4.0889,-4.1564,-4.2011,-4.255,-4.2689,-4.2843,-4.2995,-4.307,-4.2938,-4.2711,-4.2484,-4.2268,-4.2244,-4.2322,-4.239,-4.2088,-4.2405,-4.2464,-4.1881,-4.2452,-4.2632,-4.2461,-4.2591,-4.2929,-4.3625,-4.4435,-4.5553,-4.6507,-4.692,-4.7324,-4.7963,-4.8103,-4.8649,-4.9438,-4.9721,-4.9817,-4.9993,-4.9987,-5.0179,-5.0471,-5.0623,-5.0741,-5.0883,-5.0923,-5.0985,-5.1047,-5.1128,-5.1176,-5.1229,-5.1274,-5.1295,-5.1308,-5.1308,-5.1348,-5.1348,-5.1367,-5.1354,-5.1338,-5.1364,-5.145,-5.1531,-5.1475,-5.1843,-5.2308,-5.1999,-5.1372,-5.1355,-5.1339,-5.133,-5.1296,-5.1267,-5.124,-5.1225,-5.1225,-5.1244,-3.1823,-3.2237,-3.2164,-3.2055,-3.2055,-3.2345,-3.2596,-3.2739,-3.3051,-3.3621,-3.4398,-3.4505,-3.5096,-3.5892,-3.5748,-3.544,-3.5626,-3.5823,-3.5957,-3.5966,-3.6642,-3.6781,-3.6375,-3.6483,-3.6171,-3.5451,-3.5455,-3.5509,-3.5712,-3.6281,-3.7005,-3.7469,-3.7488,-3.7873,-3.8451,-3.874,-3.914,-3.9572,-3.9794,-3.9913,-4.0379,-4.0606,-4.1165,-4.2102,-4.2213,-4.2314,-4.2719,-4.2571,-4.2347,-4.2078,-4.1856,-4.1596,-4.127,-4.1355,-4.1318,-4.1093,-4.1119,-4.1179,-4.1249,-4.1657,-4.209,-4.2103,-4.2409,-4.2679,-4.3304,-4.4512,-4.5872,-4.7016,-4.7316,-4.7515,-4.7953,-4.8051,-4.8538,-4.9068,-4.9296,-4.9246,-4.9569,-4.9674,-4.9649,-4.9917,-5.0218,-5.039,-5.0481,-5.0671,-5.0705,-5.0817,-5.0907,-5.1033,-5.1074,-5.1139,-5.1172,-5.1197,-5.123,-5.1269,-5.1289,-5.1328,-5.1311,-5.1294,-5.132,-5.1385,-5.151,-5.1612,-5.1966,-5.2106,-5.1767,-5.1215,-5.128,-5.1333,-5.1355,-5.133,-5.1292,-5.1267,-5.1258,-5.1249,-5.1254,-3.0482,-3.1666,-3.1347,-3.1347,-3.1629,-3.174,-3.2128,-3.2632,-3.2739,-3.303,-3.341,-3.3438,-3.3409,-3.3362,-3.3037,-3.2863,-3.3209,-3.3977,-3.4265,-3.4209,-3.5469,-3.5572,-3.4816,-3.5478,-3.533,-3.4821,-3.4654,-3.4571,-3.4795,-3.4968,-3.551,-3.6312,-3.672,-3.7164,-3.7984,-3.8127,-3.9017,-3.9546,-3.9756,-4.0117,-4.0515,-4.0264,-4.081,-4.1458,-4.1773,-4.1943,-4.2493,-4.228,-4.2087,-4.2116,-4.1375,-4.0879,-4.0521,-4.011,-4.0059,-4.028,-4.0714,-4.1117,-4.0882,-4.1192,-4.1666,-4.1898,-4.2219,-4.2823,-4.3562,-4.4478,-4.5653,-4.6477,-4.6825,-4.7368,-4.8071,-4.842,-4.8776,-4.8947,-4.9071,-4.9071,-4.923,-4.9198,-4.9181,-4.9393,-4.9722,-4.9854,-4.9977,-5.021,-5.0432,-5.0567,-5.0686,-5.0813,-5.094,-5.099,-5.1047,-5.1084,-5.1103,-5.1141,-5.1189,-5.121,-5.1382,-5.1306,-5.1243,-5.1332,-5.1531,-5.1613,-5.1327,-5.1371,-5.1136,-5.1164,-5.1219,-5.1288,-5.1361,-5.1499,-5.162,-5.1479,-5.1296,-5.1304,-5.1429,-2.9433,-3.0923,-3.0973,-3.1099,-3.1272,-3.1482,-3.1776,-3.2055,-3.2273,-3.2245,-3.2173,-3.2223,-3.2064,-3.1753,-3.1785,-3.1748,-3.1641,-3.2166,-3.2281,-3.2431,-3.3591,-3.4072,-3.3847,-3.442,-3.4634,-3.4486,-3.4406,-3.4456,-3.4377,-3.4427,-3.4899,-3.5457,-3.5754,-3.6064,-3.6936,-3.7186,-3.7868,-3.8672,-3.9524,-4.0109,-4.0161,-3.9961,-3.9888,-4.0186,-4.0084,-4.0566,-4.0945,-4.0887,-4.0916,-4.106,-4.0726,-4.0566,-4.0414,-4.023,-4.0161,-4.0209,-4.0545,-4.0657,-4.0522,-4.0764,-4.1179,-4.1626,-4.1974,-4.2441,-4.3545,-4.4597,-4.5533,-4.6416,-4.7066,-4.7611,-4.7986,-4.8231,-4.8513,-4.8694,-4.8783,-4.892,-4.892,-4.8712,-4.8728,-4.8965,-4.919,-4.9359,-4.9546,-4.9841,-5.0081,-5.0241,-5.0429,-5.0633,-5.0748,-5.0859,-5.0916,-5.0966,-5.0985,-5.1004,-5.1036,-5.1074,-5.1495,-5.1463,-5.1163,-5.1289,-5.1579,-5.1592,-5.125,-5.1081,-5.1063,-5.1103,-5.1174,-5.1245,-5.13,-5.1626,-5.1992,-5.1871,-5.1769,-5.1887,-5.1892,-2.8688,-3.0088,-3.0508,-3.0672,-3.0697,-3.1147,-3.1371,-3.1431,-3.1603,-3.1589,-3.1482,-3.1514,-3.1294,-3.0917,-3.1267,-3.1293,-3.0675,-3.0852,-3.1079,-3.1443,-3.1886,-3.2546,-3.2938,-3.3611,-3.373,-3.3966,-3.3581,-3.363,-3.375,-3.3952,-3.4147,-3.4857,-3.4831,-3.5055,-3.5255,-3.5469,-3.6025,-3.7127,-3.8342,-3.8975,-3.9155,-3.9205,-3.9116,-3.9061,-3.8921,-3.9014,-3.9256,-3.9251,-3.9539,-3.9991,-3.9997,-3.9944,-4.0153,-4.0318,-4.0418,-4.0471,-4.0605,-4.0512,-4.0484,-4.0622,-4.0866,-4.129,-4.1834,-4.2405,-4.3675,-4.4591,-4.5309,-4.6167,-4.6789,-4.7347,-4.7777,-4.7931,-4.8191,-4.8345,-4.8439,-4.8623,-4.8747,-4.8569,-4.8495,-4.8678,-4.8854,-4.8872,-4.9115,-4.9453,-4.9721,-4.991,-5.0135,-5.0393,-5.0576,-5.071,-5.078,-5.0832,-5.089,-5.0905,-5.094,-5.1068,-5.1471,-5.1568,-5.1257,-5.116,-5.142,-5.1355,-5.1063,-5.0974,-5.0974,-5.099,-5.1042,-5.1138,-5.1258,-5.1521,-5.1823,-5.2226,-5.2327,-5.2408,-5.2188,-2.8343,-2.9236,-2.9613,-2.9806,-2.9858,-3.0279,-3.0697,-3.091,-3.0771,-3.106,-3.1341,-3.1584,-3.0761,-3.0259,-3.048,-3.0706,-3.0442,-3.088,-3.1057,-3.1322,-3.1696,-3.1893,-3.2279,-3.2381,-3.2319,-3.2734,-3.2644,-3.2521,-3.2534,-3.2963,-3.3645,-3.4469,-3.4155,-3.4094,-3.4106,-3.4174,-3.4503,-3.546,-3.6446,-3.7222,-3.7665,-3.8022,-3.8388,-3.8998,-3.9269,-3.9438,-3.9174,-3.8877,-3.892,-3.9393,-3.9342,-3.9306,-3.9766,-4.0156,-4.0396,-4.0527,-4.0428,-4.0427,-4.0609,-4.0606,-4.0742,-4.1129,-4.1727,-4.252,-4.3684,-4.3976,-4.4688,-4.5695,-4.6323,-4.6863,-4.7319,-4.7708,-4.7933,-4.817,-4.8305,-4.8363,-4.8476,-4.8458,-4.84,-4.8493,-4.8568,-4.8643,-4.8751,-4.9123,-4.9355,-4.9565,-4.9929,-5.019,-5.0442,-5.0586,-5.0654,-5.0718,-5.0782,-5.0836,-5.0869,-5.1054,-5.1192,-5.1294,-5.1172,-5.1083,-5.1145,-5.099,-5.0869,-5.0866,-5.0874,-5.0882,-5.0898,-5.0978,-5.1101,-5.1328,-5.1666,-5.2206,-5.2478,-5.2484,-5.2152,-2.7551,-2.8375,-2.8823,-2.927,-2.9704,-2.9871,-3.0114,-3.0317,-3.0024,-2.9788,-2.9774,-2.9658,-2.9272,-2.8934,-2.8881,-2.9023,-2.8707,-2.8539,-2.9332,-3.0042,-3.0373,-3.1034,-3.1496,-3.1702,-3.1869,-3.1986,-3.1784,-3.1827,-3.2141,-3.2117,-3.2546,-3.3091,-3.3284,-3.3446,-3.3367,-3.3133,-3.3532,-3.4159,-3.4853,-3.5601,-3.6358,-3.6771,-3.7158,-3.7454,-3.8068,-3.8136,-3.8024,-3.8269,-3.8525,-3.8786,-3.9043,-3.9154,-3.9265,-3.9739,-4.0086,-4.0241,-4.0071,-4.0338,-4.0719,-4.0702,-4.0748,-4.1416,-4.1996,-4.2677,-4.3621,-4.3993,-4.4404,-4.5164,-4.5916,-4.6618,-4.6986,-4.7432,-4.7747,-4.803,-4.8169,-4.8169,-4.8131,-4.8093,-4.8212,-4.8251,-4.8419,-4.855,-4.8661,-4.8804,-4.8991,-4.922,-4.9612,-4.9968,-5.0221,-5.0399,-5.0434,-5.0495,-5.0556,-5.0644,-5.0683,-5.0779,-5.0855,-5.095,-5.1033,-5.1052,-5.1005,-5.0873,-5.0777,-5.0785,-5.085,-5.0928,-5.0945,-5.0872,-5.103,-5.1363,-5.183,-5.2375,-5.2521,-5.2634,-5.2172,-2.7178,-2.7918,-2.8437,-2.8992,-2.9561,-2.9576,-2.9706,-2.9811,-2.9128,-2.8562,-2.8045,-2.823,-2.8057,-2.7762,-2.7898,-2.7897,-2.7763,-2.7543,-2.7955,-2.8389,-2.8852,-2.9361,-2.9797,-2.9769,-2.9318,-3.0162,-3.0432,-3.0341,-3.0584,-3.116,-3.145,-3.1761,-3.2214,-3.2196,-3.2174,-3.2061,-3.2306,-3.2882,-3.3499,-3.4035,-3.4758,-3.5421,-3.5853,-3.6074,-3.6613,-3.6685,-3.6606,-3.6749,-3.7197,-3.7726,-3.8214,-3.8586,-3.8857,-3.9172,-3.9529,-3.9501,-3.9614,-3.9972,-4.0337,-4.069,-4.0875,-4.1674,-4.2094,-4.2773,-4.3563,-4.425,-4.4723,-4.5003,-4.5839,-4.6411,-4.6613,-4.6931,-4.7129,-4.7331,-4.7645,-4.7687,-4.7648,-4.763,-4.7848,-4.8009,-4.8119,-4.8187,-4.8476,-4.8624,-4.8907,-4.909,-4.9374,-4.9707,-4.9974,-5.0099,-5.0135,-5.0209,-5.0283,-5.0371,-5.0468,-5.0487,-5.0517,-5.07,-5.0798,-5.0943,-5.0914,-5.0826,-5.0769,-5.0769,-5.0856,-5.0991,-5.126,-5.1577,-5.1556,-5.1506,-5.2121,-5.2857,-5.3073,-5.3141,-5.2389,-2.7479,-2.7958,-2.8397,-2.8881,-2.9347,-2.9292,-2.9378,-2.9314,-2.8214,-2.7481,-2.7296,-2.8096,-2.8007,-2.7382,-2.7672,-2.7722,-2.7564,-2.7337,-2.7622,-2.7897,-2.7413,-2.6986,-2.7017,-2.7124,-2.7308,-2.676,-2.7509,-2.8353,-2.8577,-2.9324,-2.9818,-3.029,-3.0659,-3.0633,-3.0438,-2.9926,-3.0049,-3.0721,-3.1606,-3.2155,-3.2934,-3.3834,-3.4388,-3.4914,-3.5398,-3.548,-3.52,-3.5254,-3.5784,-3.6432,-3.6821,-3.7366,-3.8138,-3.9059,-3.9219,-3.8562,-3.9027,-3.9305,-3.9453,-4.0303,-4.1069,-4.1784,-4.2149,-4.2744,-4.4079,-4.4715,-4.4749,-4.479,-4.5459,-4.5734,-4.601,-4.628,-4.6448,-4.6689,-4.7004,-4.7222,-4.7182,-4.7309,-4.7521,-4.749,-4.7554,-4.7702,-4.811,-4.8457,-4.8784,-4.9021,-4.9201,-4.9446,-4.9688,-4.9744,-4.9744,-4.9942,-5.0025,-5.0272,-5.0367,-5.0171,-5.0201,-5.0382,-5.0615,-5.0848,-5.1007,-5.1034,-5.0973,-5.0864,-5.121,-5.1629,-5.2075,-5.2491,-5.2367,-5.2329,-5.2858,-5.3424,-5.3647,-5.3619,-5.2973,-2.7555,-2.8021,-2.8529,-2.9056,-2.9519,-2.9024,-2.8741,-2.8361,-2.7649,-2.7212,-2.7268,-2.7954,-2.7891,-2.7457,-2.7267,-2.7379,-2.7331,-2.7016,-2.7171,-2.7772,-2.6876,-2.7388,-2.7199,-2.6506,-2.629,-2.6729,-2.7081,-2.7296,-2.8147,-2.826,-2.8992,-2.9659,-2.9694,-2.9848,-2.9965,-2.9708,-2.9732,-3.0133,-3.0477,-3.0797,-3.1575,-3.2272,-3.2874,-3.3518,-3.4139,-3.4224,-3.3913,-3.4099,-3.4659,-3.5384,-3.5791,-3.647,-3.7218,-3.8145,-3.8476,-3.8098,-3.8467,-3.9072,-3.9569,-4.0322,-4.0929,-4.1597,-4.2012,-4.2501,-4.3623,-4.3856,-4.4042,-4.4311,-4.4657,-4.4831,-4.4949,-4.5502,-4.5833,-4.6143,-4.6454,-4.6699,-4.6809,-4.7044,-4.7186,-4.6927,-4.6845,-4.7151,-4.7521,-4.7909,-4.8287,-4.8661,-4.8844,-4.9061,-4.9309,-4.9277,-4.9277,-4.9579,-4.9816,-5.0151,-5.0303,-5.0359,-5.0529,-5.0823,-5.09,-5.0925,-5.1066,-5.1292,-5.1273,-5.124,-5.1801,-5.2349,-5.2609,-5.2848,-5.3065,-5.326,-5.3609,-5.3311,-5.2936,-5.3359,-5.3774,-2.7475,-2.7794,-2.8468,-2.8789,-2.8881,-2.8612,-2.8115,-2.7506,-2.7128,-2.7039,-2.7122,-2.7204,-2.7054,-2.6739,-2.645,-2.6419,-2.6418,-2.6049,-2.6089,-2.6822,-2.6211,-2.6036,-2.604,-2.6014,-2.5151,-2.5769,-2.6137,-2.6422,-2.6983,-2.7186,-2.7829,-2.8558,-2.9003,-2.9239,-2.9418,-2.9497,-2.9667,-3.0036,-3.0292,-3.047,-3.1021,-3.1501,-3.1902,-3.237,-3.2814,-3.3077,-3.3088,-3.3368,-3.3979,-3.4568,-3.5223,-3.5831,-3.6396,-3.7106,-3.7565,-3.7404,-3.7714,-3.8415,-3.9139,-3.9945,-4.0644,-4.1511,-4.1613,-4.218,-4.2953,-4.3339,-4.3505,-4.3697,-4.3839,-4.398,-4.422,-4.4814,-4.5066,-4.5381,-4.5655,-4.5898,-4.5933,-4.6116,-4.6448,-4.6231,-4.6326,-4.6619,-4.7002,-4.7312,-4.7672,-4.8084,-4.847,-4.8716,-4.8947,-4.8946,-4.9093,-4.9487,-4.9893,-5.0341,-5.0657,-5.0808,-5.0994,-5.1242,-5.1294,-5.1294,-5.1509,-5.1779,-5.1692,-5.1651,-5.2055,-5.2456,-5.2865,-5.3177,-5.3614,-5.3862,-5.3994,-5.3398,-5.2389,-5.2822,-5.3689,-2.7325,-2.7409,-2.829,-2.8168,-2.7478,-2.7947,-2.7561,-2.6679,-2.6647,-2.6721,-2.6877,-2.6278,-2.6125,-2.5785,-2.4977,-2.4908,-2.525,-2.4867,-2.4959,-2.4897,-2.4658,-2.4316,-2.4013,-2.37,-2.3907,-2.3823,-2.426,-2.5304,-2.56,-2.6411,-2.6988,-2.7302,-2.7846,-2.8438,-2.8945,-2.9364,-2.9699,-3.0016,-3.0275,-3.04,-3.0704,-3.1086,-3.1364,-3.1669,-3.184,-3.2016,-3.2093,-3.2365,-3.3103,-3.3833,-3.4654,-3.5418,-3.6219,-3.708,-3.6633,-3.6507,-3.6967,-3.7768,-3.86,-3.9536,-4.0235,-4.1088,-4.164,-4.2142,-4.2554,-4.2929,-4.3082,-4.3235,-4.3429,-4.3472,-4.3634,-4.3881,-4.4078,-4.4418,-4.4695,-4.4783,-4.4735,-4.4981,-4.5416,-4.5572,-4.5771,-4.613,-4.6621,-4.695,-4.757,-4.8,-4.8389,-4.8558,-4.8744,-4.8808,-4.9067,-4.9675,-5.0127,-5.0659,-5.0938,-5.1196,-5.1449,-5.171,-5.1853,-5.1904,-5.2111,-5.2186,-5.213,-5.2107,-5.2234,-5.2648,-5.3428,-5.3996,-5.4441,-5.4541,-5.4283,-5.3161,-5.2027,-5.251,-5.3019,-2.7585,-2.8144,-2.8447,-2.8307,-2.7803,-2.6929,-2.6605,-2.6749,-2.6687,-2.6723,-2.6886,-2.6496,-2.6207,-2.6227,-2.563,-2.54,-2.5352,-2.5266,-2.4841,-2.4464,-2.4013,-2.3855,-2.3593,-2.3313,-2.3416,-2.3639,-2.4054,-2.4423,-2.5141,-2.5891,-2.6129,-2.6277,-2.6832,-2.7709,-2.8437,-2.9065,-2.9533,-3.0034,-3.025,-3.034,-3.0352,-3.0623,-3.0791,-3.097,-3.1059,-3.1205,-3.1364,-3.1859,-3.2684,-3.3801,-3.454,-3.5397,-3.6739,-3.7272,-3.7268,-3.721,-3.7546,-3.803,-3.8641,-3.9224,-3.9915,-4.0627,-4.1156,-4.1687,-4.2061,-4.2412,-4.2633,-4.2867,-4.299,-4.3066,-4.3174,-4.3323,-4.3545,-4.3839,-4.4207,-4.4525,-4.453,-4.4699,-4.5097,-4.5289,-4.5517,-4.6165,-4.6604,-4.7133,-4.7723,-4.8113,-4.8392,-4.8532,-4.8577,-4.8654,-4.9228,-4.9871,-5.0099,-5.0564,-5.1269,-5.1621,-5.1881,-5.212,-5.2303,-5.2432,-5.2505,-5.2557,-5.2534,-5.2517,-5.2501,-5.3263,-5.4311,-5.4648,-5.4652,-5.4501,-5.4167,-5.2914,-5.2026,-5.2502,-5.2628,-2.7229,-2.7702,-2.7881,-2.769,-2.7111,-2.6282,-2.6159,-2.6386,-2.6447,-2.6603,-2.6822,-2.6582,-2.64,-2.6081,-2.5567,-2.5226,-2.4982,-2.4602,-2.4365,-2.4325,-2.3728,-2.3732,-2.352,-2.3129,-2.2926,-2.3229,-2.337,-2.3416,-2.4187,-2.4884,-2.5275,-2.5168,-2.58,-2.6617,-2.7369,-2.8028,-2.8852,-2.952,-2.9988,-3.017,-3.0216,-3.0216,-3.0306,-3.0442,-3.0532,-3.0679,-3.0982,-3.1588,-3.2814,-3.3904,-3.4674,-3.5766,-3.6755,-3.7109,-3.7471,-3.7386,-3.7553,-3.8182,-3.887,-3.9211,-3.9793,-4.0301,-4.073,-4.1223,-4.1687,-4.2093,-4.2365,-4.2586,-4.2618,-4.2649,-4.279,-4.2914,-4.3143,-4.3399,-4.3964,-4.4493,-4.4613,-4.4715,-4.4919,-4.5111,-4.5648,-4.6362,-4.6955,-4.7438,-4.7951,-4.8414,-4.861,-4.8617,-4.86,-4.8519,-4.9354,-5.0274,-5.0276,-5.0403,-5.1187,-5.2009,-5.2237,-5.2522,-5.2824,-5.2917,-5.2912,-5.2899,-5.2902,-5.2804,-5.268,-5.3459,-5.4179,-5.4418,-5.4465,-5.428,-5.4026,-5.321,-5.2495,-5.2511,-5.2428,-2.6388,-2.6305,-2.6804,-2.6635,-2.5869,-2.5975,-2.5945,-2.5742,-2.5952,-2.6361,-2.6658,-2.6458,-2.6004,-2.5411,-2.4913,-2.4381,-2.3976,-2.3569,-2.337,-2.3845,-2.2769,-2.2619,-2.2627,-2.2476,-2.1971,-2.192,-2.2224,-2.2669,-2.2911,-2.361,-2.4223,-2.4026,-2.4174,-2.4982,-2.6137,-2.7152,-2.8049,-2.9002,-2.9749,-3.0216,-3.0216,-3.0216,-3.0216,-3.0261,-3.0397,-3.0623,-3.097,-3.1853,-3.3122,-3.3956,-3.4883,-3.591,-3.6482,-3.6707,-3.706,-3.7162,-3.7187,-3.7863,-3.8523,-3.8965,-3.9595,-4.0071,-4.0505,-4.0901,-4.1357,-4.1785,-4.2077,-4.2476,-4.2602,-4.2634,-4.2728,-4.279,-4.2976,-4.3415,-4.3976,-4.4449,-4.4691,-4.4968,-4.54,-4.569,-4.6224,-4.6881,-4.7288,-4.7786,-4.8271,-4.8775,-4.8983,-4.8923,-4.8785,-4.8625,-4.9234,-5.0356,-5.0339,-5.0461,-5.158,-5.2258,-5.2546,-5.284,-5.3049,-5.309,-5.2879,-5.3029,-5.3288,-5.307,-5.2846,-5.312,-5.3631,-5.3946,-5.4103,-5.3786,-5.3562,-5.3409,-5.3131,-5.294,-5.2601,-2.5208,-2.5048,-2.5468,-2.5841,-2.6142,-2.5918,-2.5732,-2.5684,-2.5305,-2.5489,-2.5829,-2.5509,-2.502,-2.4569,-2.4125,-2.3587,-2.2979,-2.2509,-2.2005,-2.1802,-2.1302,-2.1302,-2.1046,-2.0842,-2.0593,-2.0995,-2.1454,-2.203,-2.2627,-2.3038,-2.3297,-2.3288,-2.3438,-2.4115,-2.5178,-2.6282,-2.7426,-2.8283,-2.9371,-2.9977,-3.0034,-3.017,-3.0216,-3.0216,-3.0306,-3.0352,-3.0656,-3.1193,-3.2345,-3.3365,-3.422,-3.5277,-3.6351,-3.6445,-3.6484,-3.6457,-3.6612,-3.7246,-3.782,-3.8397,-3.8965,-3.9717,-4.0191,-4.0608,-4.1037,-4.1489,-4.1916,-4.2349,-4.2602,-4.2634,-4.2696,-4.2759,-4.295,-4.352,-4.4125,-4.445,-4.482,-4.535,-4.5898,-4.6371,-4.6895,-4.7346,-4.7712,-4.8107,-4.8595,-4.8963,-4.924,-4.9291,-4.9148,-4.9015,-4.8995,-4.9824,-5.0104,-5.055,-5.1676,-5.2219,-5.233,-5.2468,-5.2593,-5.267,-5.2743,-5.2706,-5.2718,-5.2999,-5.3065,-5.3143,-5.3311,-5.3702,-5.3718,-5.3476,-5.3567,-5.3604,-5.361,-5.3447,-5.3078,-2.439,-2.4757,-2.5227,-2.5431,-2.5492,-2.5282,-2.5137,-2.503,-2.4362,-2.4156,-2.4559,-2.4667,-2.4569,-2.4125,-2.3786,-2.3029,-2.2417,-2.17,-2.1599,-2.114,-2.0277,-2.0285,-1.9975,-1.9561,-1.9554,-1.9908,-2.0644,-2.1369,-2.2241,-2.2695,-2.2846,-2.2846,-2.3038,-2.3429,-2.4353,-2.546,-2.6522,-2.7332,-2.8656,-2.9314,-2.9612,-2.9886,-3.017,-3.0216,-3.0216,-3.0216,-3.0487,-3.097,-3.2008,-3.3322,-3.4483,-3.5413,-3.6272,-3.6405,-3.6351,-3.6324,-3.6401,-3.6584,-3.7155,-3.7706,-3.8248,-3.9038,-3.9803,-4.0161,-4.0646,-4.1091,-4.154,-4.1964,-4.2492,-4.2618,-4.279,-4.2883,-4.3411,-4.397,-4.4717,-4.5346,-4.5768,-4.6279,-4.656,-4.6755,-4.7314,-4.7891,-4.8228,-4.8402,-4.8787,-4.8709,-4.906,-4.8988,-4.8975,-4.932,-4.9328,-4.9433,-4.9793,-5.0346,-5.1264,-5.1694,-5.1831,-5.1976,-5.2125,-5.2325,-5.2417,-5.2159,-5.2079,-5.2505,-5.2784,-5.2847,-5.3079,-5.3387,-5.3662,-5.359,-5.3753,-5.397,-5.3924,-5.3883,-5.3682,-2.3786,-2.4677,-2.5049,-2.4892,-2.443,-2.4332,-2.4332,-2.4183,-2.327,-2.2878,-2.312,-2.3998,-2.4115,-2.3926,-2.3737,-2.302,-2.2106,-2.0987,-2.0936,-2.0577,-1.9761,-1.9457,-1.9242,-1.9086,-1.8923,-1.9183,-1.9916,-2.0696,-2.1522,-2.2139,-2.2653,-2.2603,-2.2695,-2.2837,-2.3329,-2.4106,-2.5168,-2.6127,-2.7226,-2.8168,-2.8841,-2.96,-3.0034,-3.017,-3.017,-3.0216,-3.0521,-3.1003,-3.1965,-3.3377,-3.4744,-3.5629,-3.6058,-3.6192,-3.6204,-3.6137,-3.6057,-3.6334,-3.6713,-3.7144,-3.7729,-3.8391,-3.9096,-3.9687,-4.0115,-4.0699,-4.114,-4.1555,-4.2125,-4.2556,-4.2729,-4.3175,-4.3737,-4.4459,-4.5324,-4.6179,-4.6688,-4.71,-4.7182,-4.7263,-4.7693,-4.8321,-4.853,-4.8721,-4.8738,-4.8627,-4.857,-4.8405,-4.845,-4.9078,-4.9447,-4.9507,-4.9724,-5.0344,-5.0955,-5.1167,-5.1322,-5.1373,-5.1533,-5.1891,-5.2096,-5.1897,-5.1878,-5.219,-5.2422,-5.252,-5.2693,-5.2975,-5.3249,-5.349,-5.3701,-5.3851,-5.3976,-5.3979,-5.4213,-2.307,-2.327,-2.292,-2.3079,-2.3479,-2.3538,-2.3538,-2.3379,-2.2636,-2.2476,-2.2627,-2.2325,-2.2224,-2.2173,-2.2123,-2.1666,-2.0944,-2.0078,-1.9354,-1.884,-1.8624,-1.8363,-1.8258,-1.8363,-1.8356,-1.8826,-1.9554,-2.049,-2.1062,-2.1987,-2.2603,-2.2594,-2.2603,-2.2695,-2.2887,-2.366,-2.4541,-2.5266,-2.6021,-2.7063,-2.8168,-2.9026,-2.9909,-3.0091,-3.0125,-3.0306,-3.0532,-3.0668,-3.1777,-3.3182,-3.4718,-3.5588,-3.5884,-3.5938,-3.5911,-3.5871,-3.579,-3.5857,-3.6203,-3.6415,-3.6883,-3.7396,-3.8092,-3.8789,-3.9421,-4.0257,-4.0655,-4.0941,-4.1516,-4.214,-4.2527,-4.3267,-4.3896,-4.4909,-4.5849,-4.6822,-4.7566,-4.7699,-4.7766,-4.7782,-4.7899,-4.826,-4.8435,-4.8595,-4.8627,-4.8658,-4.8815,-4.8669,-4.8635,-4.909,-4.9521,-4.9602,-4.9677,-5.0003,-5.0499,-5.063,-5.0785,-5.083,-5.091,-5.121,-5.1467,-5.1644,-5.1732,-5.1837,-5.2048,-5.2201,-5.2422,-5.2558,-5.2846,-5.3122,-5.3404,-5.3621,-5.3832,-5.3963,-5.4054]},{"header":{"parameterUnit":"m.s-1","parameterCategory":1,"la1":31.0,"la2":29.5877,"lo1":-88.7671,"lo2":-86.6584,"dy":0.0162,"dx":0.0185,"nx":115,"ny":88,"refTime":"2024-03-01T06:00:00:Z","depth":0,"parameterNumber":3,"parameterNumberName":"V-component_of_WINDS"},"data":[0.0,0.0,0.0,0.0,0.0,0.0,0.0,0.0,0.0,0.0,0.0,0.0,0.0,0.0,0.0,0.0,0.0,0.0,0.0,0.0,0.0,0.0,0.0,0.0,0.0,0.0,0.0,0.0,0.0,0.0,0.0,0.0,0.0,0.0,0.0,0.0,0.0,0.0,0.0,0.0,0.0,0.0,0.0,0.0,0.0,0.0,0.0,0.0,0.0,0.0,0.0,0.0,0.0,0.0,0.0,0.0,0.0,0.0,0.0,0.0,0.0,0.0,0.0,0.0,0.0,0.0,0.0,0.0,0.0,0.0,0.0,0.0,0.0,0.0,0.0,0.0,0.0,0.0,0.0,0.0,0.0,0.0,0.0,0.0,0.0,0.0,0.0,0.0,0.0,0.0,0.0,0.0,0.0,0.0,0.0,0.0,0.0,0.0,0.0,0.0,0.0,0.0,0.0,0.0,0.0,0.0,0.0,0.0,0.0,0.0,0.0,0.0,0.0,0.0,0.0,0.0,0.0,0.0,0.0,0.0,0.0,0.0,0.0,0.0,0.0,0.0,0.0,0.0,0.0,0.0,0.0,0.0,0.0,0.0,0.0,0.0,0.0,0.0,0.0,0.0,0.0,0.0,0.0,0.0,0.0,0.0,0.0,0.0,0.0,0.0,0.0,0.0,0.0,0.0,0.0,0.0,0.0,0.0,0.0,0.0,0.0,0.0,0.0,0.0,0.0,0.0,0.0,0.0,0.0,0.0,0.0,0.0,0.0,0.0,0.0,0.0,0.0,0.0,0.0,0.0,0.0,0.0,0.0,0.0,0.0,0.0,0.0,0.0,0.0,0.0,0.0,0.0,0.0,0.0,0.0,0.0,0.0,0.0,0.0,0.0,0.0,0.0,0.0,0.0,0.0,0.0,0.0,0.0,0.0,0.0,0.0,0.0,0.0,0.0,0.0,0.0,0.0,0.0,0.0,0.0,0.0,0.0,0.0,0.0,0.0,0.0,0.0,0.0,0.0,0.0,0.0,0.0,0.0,0.0,0.0,0.0,0.0,0.0,0.0,0.0,0.0,0.0,0.0,0.0,0.0,0.0,0.0,0.0,0.0,0.0,0.0,0.0,0.0,0.0,0.0,0.0,0.0,0.0,0.0,0.0,0.0,0.0,0.0,0.0,0.0,0.0,0.0,0.0,0.0,0.0,0.0,0.0,0.0,0.0,0.0,0.0,0.0,0.0,0.0,0.0,0.0,0.0,0.0,0.0,0.0,0.0,0.0,0.0,0.0,0.0,0.0,0.0,0.0,0.0,0.0,0.0,0.0,0.0,0.0,0.0,0.0,0.0,0.0,0.0,0.0,0.0,0.0,0.0,0.0,0.0,0.0,0.0,0.0,0.0,0.0,0.0,0.0,0.0,0.0,0.0,0.0,0.0,0.0,0.0,0.0,0.0,0.0,0.0,0.0,0.0,0.0,0.0,0.0,0.0,0.0,0.0,0.0,0.0,0.0,0.0,0.0,0.0,0.0,0.0,0.0,0.0,0.0,0.0,0.0,0.0,0.0,0.0,0.0,0.0,0.0,0.0,0.0,0.0,0.0,0.0,0.0,0.0,0.0,0.0,0.0,0.0,0.0,0.0,0.0,0.0,0.0,0.0,0.0,0.0,0.0,0.0,0.0,0.0,0.0,0.0,0.0,0.0,0.0,0.0,0.0,0.0,0.0,0.0,0.0,0.0,0.0,0.0,0.0,0.0,0.0,0.0,0.0,0.0,0.0,0.0,0.0,0.0,0.0,0.0,0.0,0.0,0.0,0.0,0.0,0.0,0.0,0.0,0.0,0.0,0.0,0.0,0.0,0.0,0.0,0.0,0.0,0.0,0.0,0.0,0.0,0.0,0.0,0.0,0.0,0.0,0.0,0.0,0.0,0.0,0.0,0.0,0.0,0.0,0.0,0.0,0.0,0.0,0.0,0.0,0.0,0.0,0.0,0.0,0.0,0.0,0.0,0.0,0.0,0.0,0.0,0.0,0.0,0.0,0.0,0.0,0.0,0.0,0.0,0.0,0.0,0.0,0.0,0.0,0.0,0.0,0.0,0.0,0.0,0.0,0.0,0.0,0.0,0.0,0.0,0.0,0.0,0.0,0.0,0.0,0.0,0.0,0.0,0.0,0.0,0.0,0.0,0.0,0.0,0.0,0.0,0.0,0.0,0.0,0.0,0.0,0.0,0.0,0.0,0.0,0.0,0.0,0.0,0.0,0.0,0.0,0.0,0.0,0.0,0.0,0.0,0.0,0.0,0.0,0.0,0.0,0.0,0.0,0.0,0.0,0.0,0.0,0.0,0.0,0.0,0.0,0.0,0.0,0.0,0.0,0.0,0.0,0.0,0.0,0.0,0.0,0.0,0.0,0.0,0.0,0.0,0.0,0.0,0.0,0.0,0.0,0.0,0.0,0.0,0.0,0.0,0.0,0.0,0.0,0.0,0.0,0.0,0.0,0.0,0.0,0.0,0.0,0.0,0.0,0.0,0.0,0.0,0.0,0.0,0.0,0.0,0.0,0.0,0.0,0.0,0.0,0.0,0.0,0.0,0.0,0.0,0.0,0.0,0.0,0.0,0.0,0.0,0.0,0.0,0.0,0.0,0.0,0.0,0.0,0.0,0.0,0.0,0.0,0.0,0.0,0.0,0.0,0.0,0.0,0.0,0.0,0.0,0.0,0.0,0.0,0.0,0.0,0.0,0.0,0.0,0.0,0.0,0.0,0.0,0.0,0.0,0.0,0.0,0.0,0.0,0.0,0.0,0.0,0.0,0.0,0.0,0.0,0.0,0.0,0.0,0.0,0.0,0.0,0.0,0.0,0.0,0.0,0.0,0.0,0.0,0.0,0.0,0.0,0.0,0.0,0.0,0.0,0.0,0.0,0.0,0.0,0.0,0.0,0.0,0.0,0.0,0.0,0.0,0.0,0.0,0.0,0.0,0.0,0.0,0.0,0.0,0.0,0.0,0.0,0.0,0.0,0.0,0.0,0.0,0.0,0.0,0.0,0.0,0.0,0.0,0.0,0.0,0.0,0.0,0.0,0.0,0.0,0.0,0.0,0.0,0.0,0.0,0.0,0.0,0.0,0.0,0.0,0.0,0.0,0.0,0.0,0.0,0.0,0.0,0.0,0.0,0.0,0.0,0.0,0.0,0.0,0.0,0.0,0.0,0.0,0.0,0.0,0.0,0.0,0.0,0.0,0.0,0.0,0.0,0.0,0.0,0.0,0.0,0.0,0.0,0.0,0.0,0.0,0.0,0.0,0.0,0.0,0.0,0.0,0.0,0.0,0.0,0.0,0.0,0.0,0.0,0.0,0.0,0.0,0.0,0.0,0.0,0.0,0.0,0.0,0.0,0.0,0.0,0.0,0.0,0.0,0.0,0.0,0.0,0.0,0.0,0.0,0.0,0.0,0.0,0.0,0.0,0.0,0.0,0.0,0.0,0.0,0.0,0.0,0.0,0.0,0.0,0.0,0.0,0.0,0.0,0.0,0.0,0.0,0.0,0.0,0.0,0.0,0.0,0.0,0.0,0.0,0.0,0.0,0.0,0.0,0.0,0.0,0.0,0.0,0.0,0.0,0.0,0.0,0.0,0.0,0.0,0.0,0.0,0.0,0.0,0.0,0.0,0.0,0.0,0.0,0.0,0.0,0.0,0.0,0.0,0.0,0.0,0.0,0.0,0.0,0.0,0.0,0.0,0.0,0.0,0.0,0.0,0.0,0.0,0.0,0.0,0.0,0.0,0.0,0.0,0.0,0.0,0.0,0.0,0.0,0.0,0.0,0.0,0.0,0.0,0.0,0.0,0.0,0.0,0.0,0.0,0.0,0.0,0.0,0.0,0.0,0.0,0.0,0.0,0.0,0.0,0.0,0.0,0.0,0.0,0.0,0.0,0.0,0.0,0.0,0.0,0.0,0.0,0.0,0.0,0.0,0.0,0.0,0.0,0.0,0.0,0.0,0.0,0.0,0.0,0.0,0.0,0.0,0.0,0.0,0.0,0.0,0.0,0.0,0.0,0.0,0.0,0.0,0.0,0.0,0.0,0.0,0.0,0.0,0.0,0.0,0.0,0.0,0.0,0.0,0.0,0.0,0.0,0.0,0.0,0.0,0.0,0.0,0.0,0.0,0.0,0.0,0.0,0.0,0.0,0.0,0.0,0.0,0.0,0.0,0.0,0.0,0.0,0.0,0.0,0.0,0.0,0.0,0.0,0.0,0.0,0.0,0.0,0.0,0.0,0.0,-2.0818,0.0,0.0,0.0,0.0,0.0,0.0,0.0,0.0,0.0,0.0,0.0,0.0,0.0,0.0,0.0,0.0,0.0,0.0,0.0,0.0,0.0,0.0,0.0,0.0,0.0,0.0,0.0,0.0,0.0,0.0,0.0,0.0,0.0,0.0,0.0,0.0,0.0,0.0,0.0,0.0,0.0,0.0,0.0,0.0,0.0,0.0,0.0,0.0,0.0,0.0,0.0,0.0,0.0,0.0,0.0,0.0,0.0,0.0,0.0,0.0,0.0,0.0,0.0,0.0,0.0,0.0,0.0,0.0,0.0,0.0,0.0,0.0,0.0,0.0,0.0,0.0,0.0,0.0,0.0,0.0,0.0,0.0,0.0,0.0,0.0,0.0,0.0,0.0,0.0,0.0,0.0,0.0,0.0,0.0,0.0,0.0,0.0,0.0,0.0,0.0,0.0,0.0,0.0,0.0,0.0,0.0,0.0,0.0,0.0,0.0,-2.1714,-2.2435,-2.086,-2.0185,-2.0554,0.0,0.0,0.0,0.0,0.0,0.0,0.0,0.0,0.0,0.0,0.0,0.0,0.0,0.0,0.0,0.0,0.0,0.0,0.0,0.0,0.0,0.0,0.0,0.0,0.0,0.0,0.0,0.0,0.0,0.0,0.0,0.0,0.0,0.0,0.0,0.0,0.0,0.0,0.0,0.0,0.0,0.0,0.0,0.0,0.0,0.0,0.0,0.0,0.0,0.0,0.0,0.0,0.0,0.0,0.0,0.0,0.0,0.0,0.0,0.0,0.0,0.0,0.0,0.0,0.0,0.0,0.0,0.0,0.0,0.0,0.0,0.0,0.0,0.0,0.0,0.0,0.0,0.0,0.0,0.0,0.0,0.0,0.0,0.0,0.0,0.0,0.0,0.0,0.0,0.0,0.0,0.0,0.0,0.0,0.0,0.0,0.0,0.0,0.0,0.0,0.0,0.0,0.0,0.0,0.0,0.0,0.0,0.0,0.0,0.0,0.0,0.0,-2.0088,-1.9601,-1.9932,0.0,0.0,0.0,0.0,0.0,0.0,0.0,0.0,0.0,0.0,0.0,0.0,0.0,0.0,0.0,0.0,0.0,0.0,0.0,0.0,0.0,0.0,0.0,0.0,0.0,0.0,0.0,0.0,0.0,0.0,0.0,0.0,0.0,0.0,0.0,0.0,0.0,0.0,0.0,0.0,0.0,0.0,0.0,0.0,0.0,0.0,0.0,0.0,0.0,0.0,0.0,0.0,0.0,0.0,0.0,0.0,0.0,0.0,0.0,0.0,0.0,0.0,0.0,0.0,0.0,0.0,0.0,0.0,0.0,0.0,0.0,0.0,0.0,0.0,0.0,0.0,0.0,0.0,0.0,0.0,0.0,0.0,0.0,0.0,0.0,0.0,0.0,0.0,0.0,0.0,0.0,0.0,0.0,0.0,0.0,0.0,0.0,0.0,0.0,0.0,0.0,0.0,0.0,0.0,0.0,0.0,0.0,0.0,0.0,0.0,-2.0052,-1.9466,-1.9192,0.0,-1.805,0.0,0.0,0.0,0.0,0.0,0.0,0.0,0.0,0.0,0.0,0.0,0.0,0.0,0.0,0.0,0.0,0.0,0.0,0.0,0.0,0.0,0.0,0.0,0.0,0.0,0.0,0.0,0.0,0.0,0.0,0.0,0.0,0.0,0.0,0.0,0.0,0.0,0.0,0.0,0.0,0.0,0.0,0.0,0.0,0.0,0.0,0.0,0.0,0.0,0.0,0.0,0.0,0.0,0.0,0.0,0.0,0.0,0.0,0.0,0.0,0.0,0.0,0.0,0.0,0.0,0.0,0.0,0.0,0.0,0.0,0.0,0.0,0.0,0.0,0.0,0.0,0.0,0.0,0.0,0.0,0.0,0.0,0.0,0.0,0.0,0.0,0.0,0.0,0.0,0.0,0.0,0.0,0.0,0.0,0.0,0.0,0.0,0.0,0.0,0.0,0.0,0.0,0.0,0.0,0.0,0.0,0.0,0.0,0.0,0.0,-1.7969,-1.9076,-1.876,-1.8362,0.0,0.0,0.0,0.0,0.0,0.0,0.0,0.0,0.0,0.0,0.0,0.0,0.0,0.0,0.0,0.0,0.0,0.0,0.0,0.0,0.0,0.0,0.0,0.0,0.0,0.0,0.0,0.0,0.0,0.0,0.0,0.0,0.0,0.0,0.0,0.0,0.0,0.0,0.0,0.0,0.0,0.0,0.0,0.0,0.0,0.0,0.0,0.0,0.0,0.0,0.0,0.0,0.0,0.0,0.0,0.0,0.0,0.0,0.0,0.0,0.0,0.0,0.0,0.0,0.0,0.0,0.0,0.0,0.0,0.0,0.0,0.0,0.0,0.0,0.0,0.0,0.0,0.0,0.0,0.0,0.0,0.0,0.0,0.0,0.0,0.0,0.0,0.0,0.0,0.0,0.0,0.0,0.0,0.0,0.0,0.0,0.0,0.0,0.0,0.0,0.0,0.0,0.0,0.0,0.0,0.0,0.0,0.0,0.0,0.0,-1.5426,-1.6185,-1.8073,-1.804,-1.7825,-1.7665,0.0,0.0,0.0,0.0,0.0,0.0,0.0,0.0,0.0,0.0,0.0,0.0,0.0,0.0,0.0,0.0,0.0,0.0,0.0,0.0,0.0,0.0,0.0,0.0,0.0,0.0,0.0,0.0,0.0,0.0,0.0,0.0,0.0,0.0,0.0,0.0,0.0,0.0,0.0,0.0,0.0,0.0,0.0,0.0,0.0,0.0,0.0,0.0,0.0,0.0,0.0,0.0,0.0,0.0,0.0,0.0,0.0,0.0,0.0,0.0,0.0,0.0,0.0,0.0,0.0,0.0,0.0,0.0,0.0,0.0,0.0,0.0,0.0,0.0,0.0,0.0,0.0,0.0,0.0,0.0,0.0,0.0,0.0,0.0,0.0,0.0,0.0,0.0,0.0,0.0,0.0,0.0,0.0,0.0,0.0,0.0,0.0,0.0,0.0,0.0,0.0,0.0,0.0,0.0,0.0,0.0,0.0,0.0,-1.2303,-1.3902,-1.5259,-1.6293,-1.6723,-1.6917,0.0,0.0,0.0,0.0,0.0,0.0,0.0,0.0,0.0,0.0,0.0,0.0,0.0,0.0,0.0,0.0,0.0,0.0,0.0,0.0,0.0,0.0,0.0,0.0,0.0,0.0,0.0,0.0,0.0,0.0,0.0,0.0,0.0,0.0,0.0,0.0,0.0,0.0,0.0,0.0,0.0,0.0,0.0,0.0,0.0,0.0,0.0,0.0,0.0,0.0,0.0,0.0,0.0,0.0,0.0,0.0,0.0,0.0,0.0,0.0,0.0,0.0,0.0,0.0,0.0,0.0,0.0,0.0,0.0,0.0,0.0,0.0,0.0,0.0,0.0,0.0,0.0,0.0,0.0,0.0,0.0,0.0,0.0,0.0,0.0,0.0,0.0,0.0,0.0,0.0,0.0,0.0,0.0,0.0,0.0,0.0,0.0,0.0,0.0,0.0,0.0,0.0,0.0,0.0,0.0,0.0,0.0,0.0,0.0,-1.2638,-1.4119,-1.4982,-1.5271,-1.6245,-1.6566,0.0,0.0,0.0,0.0,0.0,0.0,0.0,0.0,0.0,0.0,0.0,0.0,0.0,0.0,0.0,0.0,0.0,0.0,0.0,0.0,0.0,0.0,0.0,0.0,0.0,0.0,0.0,0.0,0.0,0.0,0.0,0.0,0.0,0.0,0.0,0.0,0.0,0.0,0.0,0.0,0.0,0.0,0.0,0.0,0.0,0.0,0.0,0.0,0.0,0.0,0.0,0.0,0.0,0.0,0.0,0.0,0.0,0.0,0.0,0.0,0.0,0.0,0.0,0.0,0.0,0.0,0.0,0.0,0.0,0.0,0.0,0.0,0.0,0.0,0.0,0.0,0.0,0.0,0.0,0.0,0.0,0.0,0.0,0.0,0.0,0.0,0.0,0.0,0.0,0.0,0.0,0.0,0.0,0.0,0.0,0.0,0.0,0.0,0.0,0.0,0.0,0.0,0.0,0.0,0.0,0.0,0.0,0.0,0.0,-1.2163,0.0,-1.3442,-1.3973,-1.5117,-1.5764,0.0,0.0,0.0,0.0,0.0,0.0,0.0,0.0,0.0,0.0,0.0,0.0,0.0,0.0,0.0,0.0,0.0,0.0,0.0,0.0,0.0,0.0,0.0,0.0,0.0,0.0,0.0,0.0,0.0,0.0,0.0,0.0,0.0,0.0,0.0,0.0,0.0,0.0,0.0,0.0,0.0,0.0,0.0,0.0,0.0,0.0,0.0,0.0,0.0,0.0,0.0,0.0,0.0,0.0,0.0,0.0,0.0,0.0,0.0,0.0,0.0,0.0,0.0,0.0,0.0,0.0,0.0,0.0,0.0,0.0,0.0,0.0,0.0,0.0,0.0,0.0,0.0,0.0,0.0,0.0,0.0,0.0,0.0,0.0,0.0,0.0,0.0,0.0,0.0,0.0,0.0,0.0,0.0,0.0,0.0,0.0,0.0,0.0,0.0,0.0,0.0,0.0,0.0,0.0,0.0,0.0,0.0,0.0,-0.954,-1.0544,-0.9971,-1.0517,-1.2237,-1.3322,-1.4432,0.0,0.0,0.0,0.0,0.0,0.0,0.0,0.0,0.0,0.0,0.0,0.0,0.0,0.0,0.0,0.0,0.0,0.0,0.0,0.0,0.0,0.0,0.0,0.0,0.0,0.0,0.0,0.0,0.0,0.0,0.0,0.0,0.0,0.0,0.0,0.0,0.0,0.0,0.0,0.0,0.0,0.0,0.0,0.0,0.0,0.0,0.0,0.0,0.0,0.0,0.0,0.0,0.0,0.0,0.0,0.0,0.0,0.0,0.0,0.0,0.0,0.0,0.0,0.0,0.0,0.0,0.0,0.0,0.0,0.0,0.0,0.0,0.0,0.0,0.0,0.0,0.0,0.0,0.0,0.0,0.0,0.0,0.0,0.0,0.0,0.0,0.0,0.0,0.0,0.0,0.0,0.0,0.0,0.0,0.0,0.0,0.0,0.0,0.0,0.0,0.0,0.0,0.0,0.0,0.0,0.0,0.0,0.0,0.0,-1.0202,-0.9335,-0.933,-1.0448,-1.2409,-1.352,0.0,0.0,0.0,0.0,0.0,0.0,0.0,0.0,0.0,0.0,0.0,0.0,0.0,0.0,0.0,0.0,0.0,0.0,0.0,0.0,0.0,0.0,0.0,0.0,0.0,0.0,0.0,0.0,0.0,0.0,0.0,0.0,0.0,0.0,0.0,0.0,0.0,0.0,0.0,0.0,0.0,0.0,0.0,0.0,0.0,0.0,0.0,0.0,0.0,0.0,0.0,0.0,0.0,0.0,0.0,0.0,0.0,0.0,0.0,0.0,0.0,0.0,0.0,0.0,0.0,0.0,0.0,0.0,0.0,0.0,0.0,0.0,0.0,0.0,0.0,0.0,0.0,0.0,0.0,0.0,0.0,0.0,0.0,0.0,0.0,0.0,0.0,0.0,0.0,0.0,0.0,0.0,0.0,0.0,0.0,0.0,0.0,0.0,0.0,0.0,0.0,0.0,0.0,0.0,0.0,0.0,0.0,0.0,0.0,-0.7661,-0.7327,-0.7561,-0.8673,-1.1104,-1.2492,-1.2789,0.0,0.0,0.0,0.0,0.0,0.0,0.0,0.0,0.0,0.0,0.0,0.0,0.0,0.0,0.0,0.0,0.0,0.0,0.0,0.0,0.0,0.0,0.0,0.0,0.0,0.0,0.0,0.0,0.0,0.0,0.0,0.0,0.0,0.0,0.0,0.0,0.0,0.0,0.0,0.0,0.0,0.0,0.0,0.0,0.0,0.0,0.0,0.0,0.0,0.0,0.0,0.0,0.0,0.0,0.0,0.0,0.0,0.0,0.0,0.0,0.0,0.0,0.0,0.0,0.0,0.0,0.0,0.0,0.0,0.0,0.0,0.0,0.0,0.0,0.0,0.0,0.0,0.0,0.0,0.0,0.0,0.0,0.0,0.0,0.0,0.0,0.0,0.0,0.0,0.0,0.0,0.0,0.0,0.0,0.0,0.0,0.0,0.0,0.0,0.0,0.0,0.0,0.0,0.0,0.0,0.0,0.0,0.0,-0.3665,-0.4184,-0.5319,-0.7122,-0.9413,-1.1235,0.0,0.0,0.0,0.0,0.0,0.0,0.0,0.0,0.0,0.0,0.0,0.0,0.0,0.0,0.0,0.0,0.0,0.0,0.0,0.0,0.0,0.0,0.0,0.0,0.0,0.0,0.0,0.0,0.0,0.0,0.0,0.0,0.0,0.0,0.0,0.0,0.0,0.0,0.0,0.0,0.0,0.0,0.0,0.0,0.0,0.0,0.0,0.0,0.0,0.0,0.0,0.0,0.0,0.0,0.0,0.0,0.0,0.0,0.0,0.0,0.0,0.0,0.0,0.0,0.0,0.0,0.0,0.0,0.0,0.0,0.0,0.0,0.0,0.0,0.0,0.0,0.0,0.0,0.0,0.0,0.0,0.0,0.0,0.0,0.0,0.0,0.0,0.0,0.0,0.0,0.0,0.0,0.0,0.0,0.0,0.0,0.0,0.0,0.0,0.0,0.0,0.0,0.0,0.0,0.0,0.0,0.0,0.0,0.0,-0.0913,-0.1862,-0.3602,-0.6167,-0.7813,-0.9468,0.0,0.0,0.0,0.0,0.0,0.0,0.0,0.0,0.0,0.0,0.0,0.0,0.0,0.0,0.0,0.0,0.0,0.0,0.0,0.0,0.0,0.0,0.0,0.0,0.0,0.0,0.0,0.0,0.0,0.0,0.0,0.0,0.0,0.0,0.0,0.0,0.0,0.0,0.0,0.0,0.0,0.0,0.0,0.0,0.0,0.0,0.0,0.0,0.0,0.0,0.0,0.0,0.0,0.0,0.0,0.0,0.0,0.0,0.0,0.0,0.0,0.0,0.0,0.0,0.0,0.0,0.0,0.0,0.0,0.0,0.0,0.0,0.0,0.0,0.0,0.0,0.0,0.0,0.0,0.0,0.0,0.0,0.0,0.0,0.0,0.0,0.0,0.0,0.0,0.0,0.0,0.0,0.0,0.0,0.0,0.0,0.0,0.0,0.0,0.0,0.0,0.0,0.0,0.0,0.0,0.0,0.0,0.0,0.1775,0.1661,0.0501,-0.1402,-0.4186,-0.6292,-0.8352,0.0,0.0,0.0,0.0,0.0,0.0,0.0,0.0,0.0,0.0,0.0,0.0,0.0,0.0,0.0,0.0,0.0,0.0,0.0,0.0,0.0,0.0,0.0,0.0,0.0,0.0,0.0,0.0,0.0,0.0,0.0,0.0,0.0,0.0,0.0,0.0,0.0,0.0,0.0,0.0,0.0,0.0,0.0,0.0,0.0,0.0,0.0,0.0,0.0,0.0,0.0,0.0,0.0,0.0,0.0,0.0,0.0,0.0,0.0,0.0,0.0,0.0,0.0,0.0,0.0,0.0,0.0,0.0,0.0,0.0,0.0,0.0,0.0,0.0,0.0,0.0,0.0,0.0,0.0,0.0,0.0,0.0,0.0,0.0,0.0,0.0,0.0,0.0,0.0,0.0,0.0,0.0,0.0,0.0,0.0,0.0,0.0,0.0,0.0,0.0,0.0,0.0,0.0,0.0,0.0,0.0,0.0,0.0,0.3692,0.3913,0.2735,0.0819,-0.1865,-0.4756,-0.734,0.0,0.0,0.0,0.0,0.0,0.0,0.0,0.0,0.0,0.0,0.0,0.0,0.0,0.0,0.0,0.0,0.0,0.0,0.0,0.0,0.0,0.0,0.0,0.0,0.0,0.0,0.0,0.0,0.0,0.0,0.0,0.0,0.0,0.0,0.0,0.0,0.0,0.0,0.0,0.0,0.0,0.0,0.0,0.0,0.0,0.0,0.0,0.0,0.0,0.0,0.0,0.0,0.0,0.0,0.0,0.0,0.0,0.0,0.0,0.0,0.0,0.0,0.0,0.0,0.0,0.0,0.0,0.0,0.0,0.0,0.0,0.0,0.0,0.0,0.0,0.0,0.0,0.0,0.0,0.0,0.0,0.0,0.0,0.0,0.0,0.0,0.0,0.0,0.0,0.0,0.0,0.0,0.0,0.0,0.0,0.0,0.0,0.0,0.0,0.0,0.0,0.0,0.0,0.0,0.0,0.0,0.0,0.0,0.5626,0.4883,0.3425,0.1364,-0.1309,-0.2943,-0.5072,0.0,0.0,0.0,0.0,0.0,0.0,0.0,0.0,0.0,0.0,0.0,0.0,0.0,0.0,0.0,0.0,0.0,0.0,0.0,0.0,0.0,0.0,0.0,0.0,0.0,0.0,0.0,0.0,0.0,0.0,0.0,0.0,0.0,0.0,0.0,0.0,0.0,0.0,0.0,0.0,0.0,0.0,0.0,0.0,0.0,0.0,0.0,0.0,-0.8689,0.0,0.0,0.0,0.0,0.0,0.0,0.0,0.0,0.0,0.0,0.0,0.0,0.0,0.0,0.0,0.0,0.0,0.0,0.0,0.0,0.0,0.0,0.0,0.0,0.0,0.0,0.0,0.0,0.0,0.0,0.0,0.0,0.0,0.0,0.0,0.0,0.0,0.0,0.0,0.0,0.0,0.0,0.0,0.0,0.0,0.0,0.0,0.0,0.0,0.0,0.0,0.0,0.0,0.0,0.0,0.0,0.0,0.0,0.0,0.752,0.6504,0.4966,0.3012,0.0754,-0.0549,-0.3078,0.0,0.0,0.0,0.0,0.0,0.0,0.0,0.0,0.0,0.0,0.0,0.0,0.0,0.0,0.0,0.0,0.0,0.0,0.0,0.0,0.0,0.0,0.0,0.0,0.0,0.0,0.0,0.0,0.0,0.0,0.0,0.0,0.0,0.0,0.0,0.0,0.0,0.0,0.0,0.0,0.0,0.0,0.0,0.0,0.0,0.0,0.0,0.0,0.0,0.0,0.0,0.0,0.0,0.0,0.0,0.0,0.0,0.0,0.0,0.0,0.0,0.0,0.0,0.0,0.0,0.0,0.0,0.0,0.0,0.0,0.0,0.0,0.0,0.0,0.0,0.0,0.0,0.0,0.0,0.0,0.0,0.0,0.0,0.0,0.0,0.0,0.0,0.0,0.0,0.0,0.0,0.0,0.0,0.0,0.0,0.0,0.0,0.0,0.0,0.0,0.0,0.0,0.0,0.0,0.0,0.0,0.0,0.9454,0.934,0.8393,0.6804,0.5062,0.3162,0.1774,-0.1204,-0.5902,0.0,0.0,0.0,0.0,0.0,0.0,0.0,0.0,0.0,0.0,0.0,0.0,0.0,0.0,0.0,0.0,0.0,0.0,0.0,0.0,0.0,0.0,0.0,0.0,0.0,0.0,0.0,0.0,0.0,0.0,0.0,0.0,0.0,0.0,0.0,0.0,0.0,0.0,0.3129,0.287,0.0,0.0,0.0,0.0,0.0,0.0,0.0,0.0,-0.7623,0.0,0.0,0.0,0.0,0.0,0.0,0.0,0.0,0.0,0.0,0.0,0.0,0.0,0.0,0.0,0.0,0.0,0.0,0.0,0.0,0.0,0.0,0.0,0.0,0.0,0.0,0.0,0.0,0.0,0.0,0.0,0.0,0.0,0.0,0.0,0.0,0.0,0.0,0.0,0.0,0.0,0.0,0.0,0.0,0.0,0.0,0.0,0.0,0.0,0.0,0.0,0.0,0.0,0.0,0.0,0.0,1.2016,1.1485,1.0895,1.0324,0.8537,0.6597,0.4508,0.2962,0.0761,-0.2081,0.0,0.0,0.0,0.0,0.0,0.0,0.0,0.0,0.0,0.0,0.0,0.0,0.0,0.0,0.0,0.0,0.0,0.0,0.0,0.0,0.0,0.0,0.0,0.0,0.0,0.0,0.0,0.0,0.0,0.0,0.0,0.0,0.0,0.0,0.0,0.0,0.0,0.0,0.0,0.4702,0.3684,0.0,0.0,0.0,0.0,0.0,0.0,0.0,0.0,-0.7259,0.0,0.0,0.0,0.0,0.0,0.0,0.0,0.0,0.0,0.0,0.0,0.0,0.0,0.0,0.0,0.0,0.0,0.0,0.0,0.0,0.0,0.0,0.0,0.0,0.0,0.0,0.0,0.0,0.0,0.0,0.0,0.0,0.0,0.0,0.0,0.0,0.0,0.0,0.0,0.0,0.0,0.0,0.0,0.0,0.0,0.0,0.0,0.0,0.0,0.0,0.0,0.0,0.0,0.0,0.0,1.1727,1.2518,1.2368,1.1228,0.9788,0.7997,0.5909,0.4261,0.204,0.0,0.0,0.0,0.0,0.0,0.0,0.0,0.0,0.0,0.0,0.0,0.0,0.0,0.0,0.0,0.0,0.0,0.0,0.0,0.0,0.0,0.0,0.0,0.0,0.0,0.0,0.0,0.0,0.0,0.0,0.0,0.0,0.0,0.0,0.0,0.0,0.0,0.0,0.0,0.0,0.5949,0.5081,0.4425,0.0,0.0,0.0,0.0,0.0,0.0,-0.5552,-0.6359,0.0,0.0,0.0,0.0,0.0,0.0,0.0,0.0,0.0,0.0,0.0,0.0,0.0,0.0,0.0,0.0,0.0,0.0,0.0,0.0,0.0,0.0,0.0,0.0,0.0,0.0,0.0,0.0,0.0,0.0,0.0,0.0,0.0,0.0,0.0,0.0,0.0,0.0,0.0,0.0,0.0,0.0,0.0,0.0,0.0,0.0,0.0,0.0,0.0,0.0,0.0,0.0,0.0,0.0,0.0,1.1231,1.3125,1.3423,1.1917,1.0984,0.9444,0.726,0.5562,0.3223,0.0,0.0,0.0,0.0,0.0,0.0,0.0,0.0,0.0,0.0,0.0,0.0,0.0,0.0,0.0,0.0,0.0,0.0,0.0,0.0,0.0,0.0,0.0,0.0,0.0,0.0,0.0,0.0,0.0,0.0,0.0,0.0,0.0,0.0,0.0,0.0,0.0,0.0,0.0,0.0,0.0,0.6566,0.6063,0.364,0.0,0.0,0.0,0.0,-0.3747,-0.4312,0.0,0.0,0.0,0.0,0.0,0.0,0.0,0.0,0.0,0.0,0.0,0.0,0.0,0.0,0.0,0.0,0.0,0.0,0.0,0.0,0.0,0.0,0.0,0.0,0.0,0.0,0.0,0.0,0.0,0.0,0.0,0.0,0.0,0.0,0.0,0.0,0.0,0.0,0.0,0.0,0.0,0.0,0.0,0.0,0.0,0.0,0.0,0.0,0.0,0.0,0.0,0.0,0.0,0.0,0.0,0.0,1.2626,1.3281,1.3394,1.292,1.2339,1.0925,0.8616,0.6861,0.4688,0.0,0.0,0.0,0.0,0.0,0.0,0.0,0.0,0.0,0.0,0.0,0.0,0.0,0.0,0.0,0.0,0.0,0.0,0.0,0.0,0.0,0.0,0.0,0.0,0.0,0.0,0.0,0.0,0.0,0.0,0.0,0.0,0.0,0.0,0.0,0.0,0.0,0.0,0.0,0.0,0.0,0.8249,0.553,0.3844,0.2533,0.0,0.0,-0.1362,-0.0707,-0.1307,0.0,0.0,0.0,0.0,0.0,0.0,0.0,0.0,0.0,0.0,0.0,0.0,0.0,0.0,0.0,0.0,0.0,0.0,0.0,0.0,0.0,0.0,0.0,0.0,0.0,0.0,0.0,0.0,0.0,0.0,0.0,0.0,0.0,0.0,0.0,0.0,0.0,0.0,0.0,0.0,0.0,0.0,0.0,0.0,0.0,0.0,0.0,0.0,0.0,0.0,0.0,0.0,0.0,0.0,0.0,1.2238,1.2683,1.3205,1.346,1.327,1.2063,1.0837,0.9509,0.7729,0.5593,0.0,0.0,0.0,0.0,0.0,0.0,0.0,0.0,0.0,0.0,0.0,0.0,0.0,0.0,0.0,0.0,0.0,0.0,0.0,0.0,0.0,0.0,0.0,0.0,0.0,0.0,0.0,0.0,0.0,0.0,0.0,0.0,0.0,0.0,0.0,0.0,0.0,0.0,0.0,0.0,0.0,0.0,0.657,0.4847,0.0,0.0,0.0,-0.0055,-0.0664,0.0,0.0,0.0,0.0,0.0,0.0,0.0,0.0,0.0,0.0,0.0,0.0,0.0,0.0,0.0,0.0,0.0,0.0,0.0,0.0,0.0,0.0,0.0,0.0,0.0,0.0,0.0,0.0,0.0,0.0,0.0,0.0,0.0,0.0,0.0,0.0,0.0,0.0,0.0,0.0,0.0,0.0,0.0,0.0,0.0,0.0,0.0,0.0,0.0,0.0,0.0,0.0,0.0,0.0,0.0,0.0,0.0,1.2409,1.2963,1.3167,1.2888,1.1683,1.0699,0.9998,0.8409,0.0,0.0,0.0,0.0,0.0,0.0,0.0,0.0,0.0,0.0,0.0,0.0,0.0,0.0,0.0,0.0,0.0,0.0,0.0,0.0,0.0,0.0,0.0,0.0,0.0,0.0,0.0,-0.0297,0.0,0.0,0.0,0.0,0.0,0.0,0.0,0.0,0.0,0.0,0.0,0.0,0.0,0.0,0.6855,0.71,0.5545,0.4411,0.0,0.0,0.1229,0.0111,0.0326,-0.0694,0.0,0.0,0.0,0.0,0.0,0.0,0.0,0.0,0.0,0.0,0.0,0.0,0.0,0.0,0.0,0.0,0.0,0.0,0.0,0.0,0.0,0.0,0.0,0.0,0.0,0.0,0.0,0.0,0.0,0.0,0.0,0.0,0.0,0.0,0.0,0.0,0.0,0.0,0.0,0.0,0.0,0.0,0.0,0.0,0.0,0.0,0.0,0.0,0.0,0.0,0.0,0.0,0.0,0.0,1.2726,1.2073,1.2517,1.2337,1.1419,1.1492,1.1051,1.001,0.8981,0.747,0.0,0.0,0.0,0.0,0.0,0.0,0.0,0.0,0.0,0.0,0.0,0.0,0.0,0.0,0.0,0.0,0.0,0.0,0.0,0.0,0.0,0.0,0.0,0.0,0.0,0.0,0.0,0.0,0.0,0.0,0.0,0.0,0.0,0.0,0.0,0.0,0.0,0.0,0.0,0.0,0.0,0.6427,0.6136,0.563,0.5464,0.0,0.4051,0.2724,0.3176,0.2345,0.0535,-0.2798,0.0,0.0,0.0,0.0,0.0,0.0,0.0,0.0,0.0,0.0,0.0,0.0,0.0,0.0,0.0,0.0,0.0,0.0,0.0,0.0,0.0,0.0,0.0,0.0,0.0,0.0,0.0,0.0,0.0,0.0,0.0,0.0,0.0,0.0,0.0,0.0,0.0,0.0,0.0,0.0,0.0,0.0,0.0,0.0,0.0,0.0,0.0,0.0,0.0,0.0,0.0,0.0,0.0,1.2892,1.2501,1.2468,1.2425,1.2368,1.1565,1.1096,1.0998,0.9901,0.8521,0.0,0.0,0.0,0.0,0.0,0.0,0.0,0.0,0.0,0.0,0.0,0.0,0.0,0.0,0.0,0.0,0.0,0.0,0.0,0.0,0.0,0.0,0.0,0.0,0.0,0.0,0.0,0.0,0.2501,0.3042,0.3209,0.0,0.0,0.0,0.0,0.0,0.0,0.0,0.0,0.0,0.0,0.6496,0.5874,0.5848,0.0,0.0,0.4516,0.3465,0.333,0.2014,0.0213,-0.2295,-0.3727,0.0,0.0,0.0,0.0,0.0,0.0,0.0,0.0,0.0,0.0,0.0,0.0,0.0,0.0,0.0,0.0,0.0,0.0,0.0,0.0,0.0,0.0,0.0,0.0,0.0,0.0,0.0,0.0,0.0,0.0,0.0,0.0,0.0,0.0,0.0,0.0,0.0,0.0,0.0,0.0,0.0,0.0,0.0,0.0,0.0,0.0,0.0,0.0,0.0,0.0,0.0,0.0,1.2834,1.2478,1.2438,1.2445,1.2543,1.155,1.1096,1.1238,1.0316,0.9263,0.0,0.0,0.0,0.0,0.0,0.0,0.0,0.0,0.0,0.0,0.0,0.0,0.0,0.0,0.0,0.0,0.0,0.0,0.0,0.0,0.0,0.0,0.0,0.0,0.0,0.0,0.0,0.0,0.2654,0.2777,0.2401,0.0,0.0,0.0,0.0,0.0,0.0,0.0,0.0,0.0,0.0,0.6114,0.585,0.5678,0.5373,0.4953,0.3873,0.2851,0.2224,0.1306,0.0,-0.19,0.0,0.0,0.0,0.0,0.0,0.0,0.0,0.0,0.0,0.0,0.0,0.0,0.0,0.0,0.0,0.0,0.0,0.0,0.0,0.0,0.0,0.0,0.0,0.0,0.0,0.0,0.0,2.2995,0.0,0.0,2.1074,0.0,0.0,0.0,0.0,0.0,0.0,0.0,0.0,0.0,0.0,0.0,0.0,0.0,0.0,0.0,0.0,0.0,0.0,0.0,0.0,0.0,0.0,1.2472,1.1757,1.2387,1.2247,1.1312,1.1482,1.1243,1.0449,1.0026,0.9457,0.8765,0.0,0.0,0.0,0.0,0.0,0.0,0.0,0.0,0.0,0.0,0.0,0.0,0.0,0.0,0.0,0.0,0.0,0.0,0.0,0.0,0.0,0.0,0.0,0.0,0.0,0.0,0.1323,0.1855,0.2015,0.0,0.0,0.0,0.0,0.0,0.0,0.0,0.0,0.0,0.4494,0.4731,0.504,0.586,0.4919,0.3879,0.3079,0.1862,0.0833,0.0219,0.0545,0.0323,0.0,0.0,0.0,0.0,0.0,0.0,0.0,0.0,0.0,0.0,0.0,0.0,0.0,0.0,0.0,0.0,0.0,0.0,0.0,0.0,0.0,0.0,0.0,0.0,0.0,0.0,0.0,2.1886,2.2358,0.0,0.0,0.0,0.0,0.0,0.0,0.0,0.0,0.0,0.0,0.0,1.8154,1.8205,0.0,0.0,0.0,0.0,0.0,0.0,0.0,0.0,0.0,0.0,0.0,0.0,1.3159,1.2968,1.3165,1.2824,1.201,1.1727,1.1278,1.0663,1.0378,0.9587,0.8306,0.0,0.0,0.0,0.0,0.0,0.0,0.0,0.0,0.0,0.0,0.0,0.0,0.0,0.0,0.0,0.0,0.0,0.0,0.0,0.0,0.0,0.0,0.0,0.0,0.0,0.1432,0.0,0.0,0.0,0.0,0.0,0.0,0.0,0.0,0.0,0.0,0.3012,0.3984,0.4397,0.4943,0.5303,0.5288,0.489,0.4431,0.0,0.0,0.0,0.0,0.0,0.0,0.0,0.0,0.0,0.0,0.0,0.0,0.0,0.0,-0.4345,-0.631,-0.7341,-0.7934,-0.8299,0.0,0.0,0.0,0.0,0.0,0.0,0.0,0.0,0.0,0.0,0.0,0.0,0.0,0.0,2.1281,2.1744,2.098,0.0,0.0,0.0,0.0,0.0,0.0,0.0,0.0,1.9278,1.9083,1.8076,1.8047,1.7743,1.7251,1.6691,1.6026,0.0,0.0,0.0,0.0,0.0,0.0,0.0,0.0,1.3703,1.3618,1.3631,1.3202,1.2312,1.1925,1.1327,1.0571,0.9974,0.9232,0.8159,0.7533,0.6322,0.0,0.0,0.0,0.0,0.0,0.0,0.0,0.0,0.0,0.0,0.0,0.0,0.0,0.0,0.0,0.0,0.0,0.0,0.0,0.0,0.0,0.0,0.0,0.2111,0.0,0.0,0.0,0.0,0.0,0.0,0.0,0.0,0.0,0.1479,0.3019,0.4155,0.4176,0.4718,0.5054,0.4806,0.0,0.0,0.0,0.0,0.0,0.0,0.0,-0.0275,-0.0055,-0.1519,-0.2843,-0.3215,-0.2804,-0.2546,-0.3086,0.0,0.0,-0.4712,-0.5666,-0.6401,-0.6933,-0.7279,-0.7607,-0.8012,-0.7891,-0.7725,0.0,0.0,0.0,0.0,1.9594,0.0,0.0,0.0,2.1009,2.1034,0.0,2.0787,0.0,0.0,0.0,0.0,1.7608,1.8767,0.0,0.0,1.9934,2.0113,1.9741,1.8611,1.8079,1.8017,1.7018,1.637,1.6067,1.4909,1.4546,0.0,0.0,0.0,0.0,0.0,1.4105,1.3643,1.3796,1.3286,1.2101,1.197,1.1345,1.0006,0.8957,0.8417,0.8355,0.7514,0.6536,0.5466,0.4202,0.0,0.0,0.0,0.0,0.0,0.0,0.0,0.0,0.0,0.0,0.0,0.0,0.0,0.0,0.0,0.0,0.0,0.0,0.0,0.0,0.2494,0.0,0.0,0.0,0.0,0.0,0.0,0.0,0.0,0.0,0.1974,0.1403,0.2529,0.3538,0.387,0.0,0.0,0.0,0.0,0.2521,0.1958,0.0896,-0.0056,-0.0615,-0.0112,0.0224,-0.0224,0.0,0.0,-0.3001,-0.2715,-0.2464,-0.3357,-0.2707,-0.2178,-0.2193,-0.3656,-0.4962,-0.5595,-0.597,-0.6308,-0.6793,-0.619,-0.5385,2.4449,0.0,0.0,0.0,0.0,2.0245,2.0583,2.1404,2.1363,2.1535,2.1792,2.0941,0.0,0.0,0.0,0.0,0.0,0.0,1.8385,1.8768,1.8918,1.8974,1.8881,1.8319,1.7994,1.7761,1.7166,1.6743,1.6441,1.5752,1.5226,1.4977,0.0,0.0,0.0,0.0,1.4143,1.4326,1.407,1.3442,1.2612,1.1798,1.0699,0.9167,0.8833,0.8589,0.8394,0.7907,0.7045,0.5748,0.4789,0.0,0.0,0.0,0.0,0.0,0.0,0.0,0.0,0.0,0.0,0.0,0.0,0.0,0.0,0.0,0.0,0.0,0.0,0.0,0.2397,0.3054,0.3139,0.0,0.0,0.0,0.0,0.0,0.0,0.0,0.0,0.0,0.1454,0.2811,0.3804,0.0,0.0,0.3902,0.3302,0.3113,0.2909,0.251,0.2189,0.0,0.1714,0.1026,0.0511,0.0505,-0.0112,-0.089,-0.1557,-0.1564,-0.1627,-0.1905,-0.1955,-0.189,-0.1935,-0.2543,-0.3462,-0.415,-0.4455,-0.4818,-0.5528,-0.5494,-0.5388,2.6149,2.41,2.2731,2.2041,2.1797,2.133,2.1513,2.2142,2.1845,2.1829,2.1882,2.1148,2.0607,2.0102,1.8771,0.0,0.0,0.0,1.8179,1.8612,1.8527,1.8435,1.8334,1.7947,1.752,1.7099,1.6683,1.6462,1.6334,1.5797,1.5482,1.5338,0.0,1.4737,1.5097,1.444,1.3939,1.3752,1.3377,1.263,1.1533,1.0684,0.9764,0.8821,0.8565,0.814,0.7596,0.7469,0.6684,0.5043,0.4639,0.3898,0.0,0.0,0.0,0.0,0.0,0.0,0.0,0.0,0.0,0.0,0.0,-0.026,-0.0351,0.0,0.0,0.0,0.2119,0.2933,0.3818,0.3867,0.0,0.0,0.0,0.0,0.0,0.0,0.0,0.0899,0.1565,0.2028,0.2095,0.2816,0.3314,0.3203,0.3343,0.3309,0.2802,0.0,0.2904,0.2734,0.2757,0.2764,0.2681,0.1537,0.051,0.0056,-0.0564,-0.1129,-0.1234,-0.1402,-0.1514,-0.1515,-0.1692,-0.1809,-0.1797,-0.2051,-0.2466,-0.3214,-0.378,-0.4302,-0.4856,-0.5367,-0.5816,2.7429,2.6036,2.3813,2.3033,2.3216,2.2405,2.2419,2.296,2.2353,2.1919,2.1642,2.1437,2.0888,2.0155,1.9196,0.0,1.8396,1.8381,1.8411,1.8643,1.8373,1.8141,1.7854,1.738,1.677,1.6082,1.5838,1.5732,1.5696,1.521,1.5197,1.5622,1.5101,1.4783,1.464,1.4298,1.3516,1.2296,1.2019,1.114,0.9608,0.9118,0.8821,0.8722,0.8192,0.7443,0.6468,0.6557,0.5823,0.4058,0.4114,0.3748,0.2692,0.0,0.0,0.0,0.0,0.0,0.0,0.0,0.0,0.0,0.0,0.0,0.0,0.0,0.0,0.2924,0.412,0.0,0.5708,0.4651,0.0,0.0,0.0,0.1624,0.1807,0.1971,0.2158,0.2284,0.0,0.0,0.2965,0.2635,0.2412,0.2581,0.2637,0.2637,0.2581,0.2585,0.2642,0.2592,0.2648,0.2648,0.2541,0.1518,0.0281,-0.101,-0.1364,-0.1538,-0.1801,-0.1851,-0.1851,-0.1795,-0.1818,-0.1827,-0.18,-0.1813,-0.2,-0.2583,-0.3527,-0.4309,-0.4421,-0.5314,-0.5969,2.751,2.6404,2.5509,2.4672,2.3922,2.3501,2.3047,2.253,2.1998,2.1553,2.1132,2.0744,2.0065,1.9142,1.892,1.8357,1.7567,1.7372,1.7232,1.7099,1.6662,1.6285,1.6048,1.5906,1.5645,1.5301,1.5069,1.4727,1.4321,1.4031,1.3647,1.3224,1.2915,1.3173,1.3998,1.3039,1.2306,1.176,1.114,1.031,0.9316,0.9361,0.9019,0.8237,0.8054,0.774,0.7291,0.6709,0.6155,0.569,0.4338,0.3486,0.3218,0.2272,0.0,0.0,0.0,0.0,0.0,0.0,0.0,0.0,0.0,0.1126,0.1146,0.0,0.2971,0.0,0.4522,0.5013,0.474,0.4212,0.0,0.0,0.2412,0.192,0.2742,0.2446,0.2177,0.2142,0.2414,0.2458,0.213,0.2019,0.1963,0.2019,0.2188,0.2132,0.1739,0.1873,0.2001,0.2059,0.2076,0.2087,0.1888,0.0848,-0.0448,-0.1514,-0.2027,-0.2423,-0.247,-0.23,-0.2076,-0.2076,-0.1913,-0.1802,-0.1796,-0.1802,-0.1917,-0.2246,-0.2748,-0.3251,-0.3755,-0.444,-0.5006,2.747,2.6561,2.6093,2.5422,2.4615,2.4196,2.3624,2.2969,2.2299,2.1731,2.1275,2.0609,1.9837,1.8966,1.8893,1.8387,1.7505,1.7349,1.7055,1.6587,1.6286,1.5789,1.5099,1.4956,1.4563,1.3967,1.373,1.3447,1.3171,1.2704,1.2396,1.221,1.1712,1.1707,1.215,1.1717,1.1331,1.1037,0.9908,0.9126,0.8676,0.8825,0.8577,0.8038,0.7988,0.769,0.7092,0.6822,0.6292,0.5452,0.4663,0.394,0.3332,0.2842,0.224,0.0,0.0,0.0,0.0,0.0,0.0,0.0,0.0,0.0,0.0,0.0,0.3147,0.3663,0.4628,0.5006,0.4411,0.4221,0.4088,0.3977,0.3077,0.2733,0.3368,0.3039,0.2726,0.2745,0.2705,0.2581,0.2244,0.1963,0.1795,0.1795,0.1907,0.1907,0.1627,0.1697,0.1821,0.1821,0.1834,0.1552,0.0968,-0.0226,-0.129,-0.2019,-0.2468,-0.2693,-0.2693,-0.2525,-0.2356,-0.2245,-0.2088,-0.198,-0.1854,-0.192,-0.2038,-0.2192,-0.2468,-0.2918,-0.3477,-0.4089,-0.4592,2.7296,2.652,2.6021,2.5601,2.5158,2.4487,2.4067,2.3754,2.2872,2.2167,2.1607,2.0699,1.992,1.925,1.8989,1.8441,1.7741,1.7667,1.7197,1.6399,1.6295,1.5657,1.4472,1.419,1.3593,1.2656,1.2414,1.2268,1.2174,1.1471,1.1314,1.1575,1.0915,1.0342,0.9998,1.0293,1.0346,1.0117,0.873,0.8038,0.8041,0.8038,0.7988,0.7988,0.7988,0.7587,0.6637,0.6986,0.6434,0.488,0.4979,0.4593,0.3485,0.313,0.2692,0.0,0.1134,0.0,0.0,0.0,0.0,0.0,0.0,0.0,0.0,0.2892,0.315,0.3693,0.4573,0.4901,0.4481,0.4386,0.439,0.4288,0.3887,0.3607,0.361,0.3466,0.3369,0.3424,0.2987,0.2686,0.2524,0.2132,0.1795,0.1795,0.1795,0.1795,0.1795,0.1795,0.1797,0.1795,0.1683,0.1069,-0.0112,-0.1178,-0.2075,-0.2636,-0.2862,-0.2806,-0.2862,-0.2806,-0.2693,-0.2415,-0.2268,-0.2165,-0.1968,-0.2157,-0.2279,-0.2362,-0.2525,-0.2862,-0.3365,-0.3923,-0.4534,2.704,2.6238,2.558,2.5285,2.5158,2.4668,2.4186,2.3754,2.3202,2.2369,2.1437,2.0609,2.0011,1.9509,1.8861,1.815,1.7437,1.6995,1.6202,1.5029,1.4647,1.4025,1.3195,1.3098,1.2818,1.2388,1.241,1.1885,1.1034,1.0942,1.0475,0.9718,0.9385,0.9361,0.9604,0.0,0.0,0.0,0.8237,0.8088,0.8287,0.8137,0.7988,0.7988,0.7988,0.0,0.769,0.7388,0.7036,0.6634,0.5331,0.0,0.0,0.0,0.0,0.0,0.0,0.0,0.0,0.0,0.0,0.0,0.2466,0.2289,0.1944,0.2823,0.376,0.451,0.476,0.4816,0.4734,0.4537,0.4237,0.3788,0.3687,0.354,0.3299,0.3303,0.3204,0.2939,0.2774,0.2432,0.2071,0.1851,0.1795,0.1795,0.1795,0.1795,0.1795,0.1795,0.1795,0.1739,0.1234,0.0336,-0.0673,-0.1513,-0.2409,-0.3194,-0.3419,-0.3421,-0.3363,-0.3195,-0.3026,-0.2914,-0.253,-0.2311,-0.247,-0.2363,-0.2423,-0.2861,-0.2805,-0.275,-0.2862,-0.3365,-0.3867,2.7375,2.6654,2.5624,2.52,0.0,2.4946,2.4658,2.4325,2.3779,2.2958,2.1862,2.1116,2.0371,1.9579,1.8964,1.8422,1.7927,1.745,1.6706,1.5693,1.5337,1.4699,1.3794,1.362,1.338,1.3098,1.2371,1.1678,1.1128,1.025,0.9517,0.8981,0.8584,0.8528,0.8772,0.8287,0.8088,0.8187,0.8187,0.8283,0.8382,0.8382,0.8382,0.8382,0.8382,0.0,0.0,0.0,0.0,0.0,0.0,0.0,0.0,0.453,0.3888,0.385,0.3221,0.2843,0.2899,0.2809,0.2833,0.2987,0.297,0.2934,0.2787,0.3659,0.4383,0.4732,0.4684,0.4587,0.4585,0.4237,0.3887,0.3636,0.3484,0.3332,0.324,0.3259,0.3165,0.2773,0.2672,0.2447,0.1849,0.1627,0.1627,0.1739,0.1402,0.129,0.1683,0.1795,0.1795,0.1795,0.1009,0.028,-0.028,-0.1401,-0.2296,-0.2857,-0.3306,-0.3587,-0.3587,-0.3475,-0.3306,-0.3138,-0.2858,-0.2691,-0.2693,-0.2636,-0.2746,-0.3025,-0.3139,-0.3141,-0.3141,-0.3141,-0.3365,2.7538,2.6899,2.5647,2.5105,2.5073,2.5115,2.5072,2.4932,2.4378,0.0,0.0,2.1685,2.0735,1.9696,1.9121,1.8752,1.8565,1.8117,1.7484,1.672,1.6503,1.5863,1.4874,1.4604,1.4281,1.403,1.2692,1.1898,1.1658,1.0096,0.9266,0.9069,0.8528,0.8187,0.8038,0.7988,0.7988,0.7988,0.8283,0.8432,0.8482,0.8676,0.8775,0.8775,0.8726,0.8726,0.8726,0.8531,0.8287,0.8088,0.7743,0.7428,0.6997,0.6227,0.5689,0.547,0.463,0.4151,0.4181,0.3878,0.3609,0.3476,0.3482,0.3632,0.3984,0.4384,0.4684,0.4782,0.4585,0.4438,0.4338,0.3935,0.3635,0.3536,0.3332,0.318,0.3187,0.3327,0.3129,0.2618,0.2519,0.2349,0.1681,0.1346,0.129,0.1402,0.0897,0.0617,0.129,0.1627,0.1795,0.1739,0.1009,0.0392,0.0168,-0.0897,-0.196,-0.224,-0.2857,-0.3362,-0.3531,-0.3587,-0.3475,-0.325,-0.3138,-0.3027,-0.2917,-0.2971,-0.3138,-0.3194,-0.3418,-0.3587,-0.3587,-0.3197,-0.3141,2.6914,2.5699,2.5105,2.4751,2.4614,2.4769,2.4944,2.514,2.4618,2.3787,2.2704,2.1926,2.104,2.0164,1.9244,1.8816,1.8821,1.8336,1.7633,1.667,1.651,1.5971,1.5145,1.5097,1.4807,1.4246,1.3865,1.3139,1.2262,1.1755,1.1072,1.0243,0.9608,0.892,0.8088,0.7988,0.7988,0.7988,0.8287,0.8531,0.8726,0.8775,0.8775,0.8775,0.8577,0.8482,0.8432,0.8432,0.8382,0.8333,0.7882,0.7628,0.7709,0.7153,0.6808,0.6897,0.6773,0.672,0.679,0.6018,0.5232,0.4624,0.4585,0.4433,0.4034,0.4083,0.4284,0.4734,0.4734,0.4535,0.4135,0.3981,0.3728,0.3325,0.3229,0.318,0.3177,0.324,0.2989,0.2341,0.2277,0.1879,0.1007,0.0897,0.0841,0.0673,0.0561,0.0392,0.0448,0.1177,0.1739,0.1683,0.1009,0.0448,0.0392,-0.0392,-0.1345,-0.2072,-0.2352,-0.2857,-0.3531,-0.3587,-0.3587,-0.3531,-0.3306,-0.3194,-0.3363,-0.325,-0.325,-0.3418,-0.3587,-0.3587,-0.3587,-0.3477,-0.3531,2.7514,2.6723,2.5258,2.4563,2.4518,2.4887,2.51,2.5131,2.4683,2.4158,2.3567,2.2455,2.1833,2.1377,1.9597,1.9204,1.9777,1.8776,1.8074,1.7512,1.7313,1.6949,1.6542,1.635,1.6158,1.5815,1.4978,1.4335,1.376,1.2699,1.1901,1.1361,1.0534,0.9801,0.9308,0.8882,0.8592,0.8428,0.8528,0.868,0.8825,0.9076,0.9175,0.9031,0.8882,0.8832,0.8836,0.868,0.868,0.8836,0.8478,0.8347,0.8581,0.7951,0.7686,0.7945,0.748,0.7248,0.7431,0.6918,0.6479,0.6132,0.6087,0.5837,0.5138,0.4686,0.4533,0.4784,0.4686,0.4416,0.3976,0.3824,0.3563,0.3184,0.3132,0.2999,0.2785,0.2756,0.2455,0.1702,0.1637,0.1389,0.0616,0.0561,0.0673,0.0617,0.0561,0.0168,-0.0392,0.0504,0.129,0.129,0.0953,0.0897,0.1009,-0.0056,-0.0953,-0.1457,-0.2353,-0.3026,-0.3531,-0.3587,-0.3587,-0.3587,-0.3475,-0.3419,-0.3587,-0.3475,-0.3475,-0.3531,-0.3587,-0.3587,-0.3587,-0.3587,-0.3699,2.7928,2.7478,2.5452,2.4598,2.4685,2.5041,2.52,2.5168,2.4869,2.4671,2.4339,2.2961,2.2404,2.2342,2.0322,1.9824,2.0334,1.9376,1.8595,1.8245,1.806,1.7863,1.7644,1.7455,1.7302,1.7088,1.5964,1.5356,1.5109,1.3679,1.278,1.2398,1.1364,1.078,1.0587,1.0008,0.9571,0.9353,0.9414,0.9217,0.8825,0.9327,0.948,0.9236,0.9137,0.9137,0.9084,0.8894,0.889,0.9179,0.9042,0.9038,0.9229,0.877,0.8589,0.8834,0.8244,0.7761,0.7677,0.7544,0.7385,0.7185,0.7185,0.6886,0.6092,0.5438,0.4987,0.4834,0.4616,0.4331,0.4032,0.3761,0.3445,0.3216,0.3117,0.2958,0.2615,0.2491,0.2088,0.1224,0.115,0.1004,0.0504,0.0336,0.0336,0.0448,0.028,-0.028,-0.0729,-0.0168,0.028,0.0673,0.0897,0.1234,0.1627,0.0729,-0.0224,-0.0504,-0.1625,-0.2465,-0.297,-0.325,-0.3419,-0.3475,-0.3587,-0.3587,-0.3587,-0.3587,-0.3587,-0.3587,-0.3587,-0.3587,-0.3587,-0.3587,-0.3699,2.7489,2.6368,2.5313,2.4897,2.5088,2.5167,2.52,2.5221,2.5529,2.5426,2.4828,2.3121,2.244,2.2452,2.1631,2.095,2.0589,2.0006,1.9332,1.8568,1.828,1.806,1.7958,1.7872,1.7603,1.721,1.6548,1.6097,1.5862,1.5168,1.4256,1.3104,1.2464,1.186,1.1243,1.1102,1.1005,1.0974,1.1219,1.0538,0.892,0.9327,0.948,0.9187,0.8977,0.8829,0.8863,0.8691,0.8781,0.9156,0.9324,0.9409,0.9517,0.9616,0.9708,0.9778,0.9665,0.9299,0.8421,0.8293,0.7982,0.7285,0.7288,0.6889,0.6092,0.5942,0.5589,0.4977,0.4718,0.4532,0.426,0.3966,0.3663,0.3455,0.3216,0.3105,0.2961,0.2766,0.2245,0.1648,0.1086,0.0716,0.0168,0.0,0.0,-0.0112,-0.0504,-0.0897,-0.1177,-0.1177,-0.0785,0.0056,0.0953,0.1627,0.1739,0.1683,0.0897,0.0336,0.0112,-0.084,-0.1905,-0.2409,-0.2576,-0.3194,-0.3587,-0.3587,-0.3587,-0.3587,-0.3587,-0.3587,-0.3587,-0.3587,-0.3587,-0.3587,-0.3699,2.888,2.8248,2.6465,2.5309,2.4852,2.4944,2.5031,2.5019,2.4706,2.4716,2.4904,2.3474,2.3244,2.3853,2.2254,2.1678,2.2026,2.1256,2.0597,2.0102,2.0,1.9895,1.9666,1.9094,1.8702,1.8506,1.7612,1.7128,1.6891,1.6332,1.5583,1.4782,1.4033,1.3391,1.3079,1.2325,1.1824,1.1697,1.1776,1.1385,1.0556,1.0387,1.0237,0.9942,0.9409,0.9118,0.9077,0.9006,0.9162,0.9612,0.9591,0.9627,0.9809,0.9835,0.9955,1.0108,1.015,0.9815,0.9191,0.913,0.8783,0.7985,0.8333,0.7935,0.6242,0.6439,0.6187,0.5031,0.4752,0.4664,0.4321,0.404,0.3778,0.3527,0.328,0.2879,0.2212,0.203,0.1603,0.0806,0.049,0.0,0.0,0.0,0.0,-0.0336,-0.0673,-0.0897,-0.1234,-0.1121,-0.0729,-0.0112,0.0729,0.1346,0.1683,0.129,0.0897,0.0448,-0.0056,-0.0841,-0.1177,-0.1961,-0.2352,-0.2744,-0.3138,-0.3475,-0.3587,-0.3587,-0.3587,-0.3531,-0.3587,-0.3587,-0.3587,-0.3587,-0.3643,2.9887,2.9584,2.7631,2.612,2.5177,2.5658,2.568,2.537,2.4819,2.4756,2.4868,2.407,2.413,2.459,2.3018,2.2592,2.2915,2.2249,2.1664,2.131,2.1277,2.1023,2.0618,1.9953,1.943,1.904,1.8225,1.7724,1.761,1.705,1.6522,1.6088,1.5294,1.4838,1.4697,1.3746,1.3095,1.2899,1.2758,1.2635,1.2313,1.19,1.1383,1.0818,1.0149,0.9814,0.9719,0.9462,0.9579,1.0064,0.9883,0.984,1.0019,0.9923,1.0031,1.0262,1.0327,1.0171,0.9735,0.9727,0.9426,0.8882,0.9278,0.873,0.7036,0.6986,0.6537,0.5135,0.4935,0.4798,0.4475,0.4145,0.3873,0.3652,0.3361,0.2829,0.1921,0.1676,0.1245,0.038,0.0164,0.0,0.0,0.0,0.0,-0.0224,-0.0336,-0.0504,-0.0898,-0.0732,-0.0452,-0.0056,0.0339,0.0845,0.1572,0.1402,0.0841,0.0673,0.0336,0.0,-0.0448,-0.1177,-0.196,-0.2185,-0.269,-0.3027,-0.3141,-0.3253,-0.3083,-0.3083,-0.3083,-0.3083,-0.2915,-0.3139,-0.3307,2.9887,2.9729,2.8525,2.7477,2.6648,2.7661,2.7562,2.6476,2.6669,2.6034,2.4878,2.4806,2.4916,2.4964,2.4241,2.3627,2.2933,2.2888,2.2381,2.1695,2.1629,2.0992,1.9957,1.9892,1.9411,1.8802,1.8376,1.7897,1.7497,1.7198,1.6848,1.6592,1.6201,1.6015,1.5784,1.5341,1.52,1.4759,1.4538,1.4344,1.4099,1.3667,1.2834,1.1765,1.1245,1.0943,1.0685,1.0026,0.9881,1.0359,1.0066,0.9904,1.0084,1.0136,1.0219,1.0395,1.043,1.0282,1.0072,0.9974,0.9821,0.9529,0.9529,0.8977,0.7481,0.7431,0.6786,0.534,0.5138,0.5001,0.4677,0.4372,0.4109,0.391,0.3624,0.3141,0.2423,0.1861,0.1369,0.076,0.0274,0.0,0.0,0.0,0.0,0.0,-0.0224,-0.0448,-0.0505,-0.0681,-0.0571,-0.0229,0.0,0.0171,0.1464,0.1458,0.1514,0.1514,0.1234,0.1234,0.0729,0.0112,-0.0784,-0.1457,-0.1569,-0.1906,-0.2356,-0.2412,-0.2075,-0.2019,-0.2131,-0.2131,-0.2299,-0.2524,-0.2748,3.0587,2.9875,2.9427,2.8623,2.7685,2.8059,2.759,2.6657,2.6671,2.6022,2.5111,2.4994,2.4977,2.499,2.486,2.4485,2.3963,2.3803,2.3551,2.3246,2.3224,2.3028,2.264,2.2071,2.161,2.1103,2.0466,1.9758,1.8983,1.8689,1.8155,1.7364,1.6738,1.6402,1.6282,1.5776,1.5474,1.5314,1.4898,1.466,1.46,1.4578,1.4237,1.3571,1.2221,1.1404,1.1139,1.051,1.0289,1.0654,1.0546,1.0591,1.0815,1.0939,1.1057,1.0975,1.1074,1.1002,1.0605,1.0511,1.0064,0.9225,0.9575,0.8973,0.7332,0.7086,0.6736,0.5541,0.5037,0.4864,0.4746,0.4512,0.4309,0.4185,0.3947,0.3344,0.2447,0.1934,0.1477,0.0549,0.0,0.0,0.0,0.0,0.0,0.0,0.0,-0.0224,-0.0393,-0.0508,-0.0454,-0.0113,-0.0057,0.0229,0.1237,0.129,0.129,0.1627,0.1683,0.1627,0.129,0.0673,-0.0168,-0.0448,-0.056,-0.0728,-0.1233,-0.1346,-0.1065,-0.129,-0.1346,-0.1514,-0.1795,-0.2075,-0.2412,3.0985,3.0033,3.0338,2.9797,2.8802,2.9114,2.8674,2.7667,2.7261,2.6578,2.5766,2.5355,2.5189,2.5253,2.5269,2.5133,2.4851,2.4545,2.4383,2.4354,2.4251,2.4063,2.3721,2.3167,2.2697,2.2345,2.1787,2.0979,2.0039,1.9734,1.9051,1.8011,1.738,1.7058,1.6948,1.6401,1.6056,1.5739,1.5305,1.5038,1.4896,1.5101,1.5107,1.4672,1.3391,1.24,1.1912,1.1107,1.0752,1.1023,1.1053,1.1149,1.1376,1.1838,1.206,1.1793,1.1754,1.1585,1.1243,1.1047,1.0453,0.9468,0.9768,0.927,0.7531,0.7484,0.6886,0.5887,0.5236,0.5035,0.4784,0.4634,0.4487,0.4392,0.4105,0.345,0.2331,0.196,0.1239,0.0,0.0,0.0,0.0,0.0,0.0,0.0,0.0,0.0,-0.0224,-0.0282,-0.0226,-0.0057,-0.0115,0.0173,0.0744,0.0855,0.1184,0.1574,0.1795,0.1795,0.1683,0.1121,0.0729,0.0504,0.0336,0.0224,0.0056,-0.0168,-0.0336,-0.0504,-0.0729,-0.0841,-0.1234,-0.1627,-0.1851,3.1009,3.0203,3.1168,3.0929,3.0112,3.0929,3.0905,2.9633,2.8792,2.7867,2.6926,2.6055,2.5916,2.5855,2.5784,2.5582,2.5498,2.5061,2.4754,2.4554,2.4397,2.3938,2.3238,2.3183,2.2741,2.2039,2.1712,2.1156,2.0459,2.0104,1.943,1.8637,1.8178,1.7827,1.7782,1.7379,1.6938,1.642,1.6029,1.5641,1.5218,1.5403,1.5409,1.5131,1.4711,1.4031,1.3159,1.1905,1.1369,1.159,1.152,1.1487,1.2045,1.2796,1.3136,1.278,1.2316,1.2029,1.1975,1.1585,1.1096,1.0507,1.0458,1.006,0.9118,0.8528,0.7783,0.6587,0.5837,0.5384,0.4935,0.4784,0.4684,0.4396,0.4089,0.349,0.2602,0.1785,0.0935,0.0,0.0,0.0,0.0,0.0,0.0,0.0,0.0,0.0,0.0,0.0,0.0,-0.0057,-0.0115,0.0058,0.0232,0.0464,0.1028,0.1522,0.1686,0.1795,0.1795,0.1402,0.1177,0.1009,0.1346,0.1289,0.1345,0.1121,0.0785,0.0561,0.0224,-0.0112,-0.0392,-0.0729,-0.1065,3.1288,3.1168,3.1545,3.1488,3.1168,3.1557,3.1086,3.012,2.9757,2.9115,2.8233,2.7833,2.7778,2.763,2.7085,2.6726,2.6659,2.5785,2.5101,2.474,2.4582,2.4352,2.3961,2.3905,2.3731,2.3484,2.338,2.2888,2.1978,2.1152,2.0233,1.9389,1.8567,1.8135,1.8144,1.7644,1.7344,1.7282,1.654,1.609,1.6075,1.589,1.5796,1.5802,1.5142,1.4487,1.3982,1.2725,1.2163,1.2396,1.2724,1.3318,1.4085,1.425,1.4202,1.4016,1.3437,1.3098,1.3184,1.2657,1.2078,1.159,1.134,1.0645,0.9608,0.9019,0.818,0.7086,0.6287,0.5639,0.5188,0.4885,0.4784,0.4686,0.4407,0.3811,0.2824,0.153,0.0556,0.0,0.0,0.0,0.0,0.0,0.0,0.0,0.0,0.0,0.0,0.0,0.0,0.0,0.0,0.0,0.0173,0.0461,0.086,0.1304,0.158,0.1795,0.1795,0.1795,0.157,0.1626,0.2019,0.2243,0.2355,0.2242,0.185,0.1458,0.1065,0.0785,0.0561,0.0112,-0.0504,3.1439,3.1705,3.1705,3.1705,3.1705,3.1705,3.1339,3.0744,3.0345,2.9811,2.9258,2.8876,2.8748,2.866,2.8066,2.763,2.7282,2.653,2.5752,2.4982,2.4779,2.4645,2.4416,2.4339,2.4342,2.433,2.4273,2.3796,2.2954,2.2155,2.1333,2.0458,1.9711,1.936,1.9314,1.8964,1.8863,1.864,1.7683,1.7168,1.7083,1.6504,1.6255,1.6301,1.576,1.5239,1.4802,1.3713,1.315,1.3363,1.4209,1.5139,1.549,1.5541,1.5438,1.491,1.44,1.4016,1.41,1.3576,1.3044,1.2603,1.217,1.1536,1.0547,0.9809,0.8825,0.8028,0.7036,0.6237,0.5837,0.5238,0.4985,0.4939,0.4563,0.3979,0.2946,0.1653,0.0783,0.0,0.0,0.0224,0.0,0.0,0.0,0.0,0.0,0.0,0.0,0.0,0.0,0.0,0.0,0.0,0.0,0.0456,0.0746,0.1084,0.1418,0.1633,0.1795,0.1795,0.1683,0.2019,0.2355,0.2411,0.2523,0.2747,0.2522,0.2186,0.1794,0.1121,0.0617,0.0112,-0.0392,3.1472,3.1669,3.1705,3.1705,3.1705,3.1705,3.1661,3.15,3.0754,3.0346,3.0106,2.9587,2.9158,2.904,2.8952,2.8449,2.7601,2.7446,2.6759,2.5819,2.5412,2.5229,2.4807,2.4574,2.44,2.4381,2.4333,2.3876,2.3233,2.2852,2.2499,2.1664,2.1336,2.1352,2.0994,2.1154,2.0753,2.0221,1.9302,1.869,1.8368,1.736,1.6767,1.6773,1.6655,1.6292,1.5587,1.4898,1.4292,1.408,1.5891,1.6669,1.6107,1.6682,1.6535,1.5525,1.5016,1.4783,1.464,1.425,1.3811,1.3516,1.2996,1.2322,1.178,1.0801,0.9916,0.9167,0.8077,0.7182,0.6681,0.5884,0.5343,0.5111,0.4532,0.3851,0.3044,0.1997,0.1455,0.1234,0.1065,0.0673,0.0168,0.0,0.0,0.0,0.0,0.0,0.0,0.0,0.0,0.0,0.0,0.0,0.0,0.034,0.057,0.0746,0.1141,0.1419,0.1689,0.1743,0.1851,0.2187,0.2579,0.2635,0.2803,0.3083,0.3138,0.2802,0.2185,0.1289,0.0785,0.0448,0.0,3.1388,3.1552,3.1668,3.1705,3.1705,3.1705,3.1705,3.1693,3.1428,3.1245,3.1221,3.1193,3.0974,3.0866,3.0331,2.9855,2.9326,2.8685,2.8168,2.7659,2.7528,2.679,2.5776,2.4918,2.4541,2.4569,2.4614,2.4227,2.4004,2.3501,2.3016,2.2619,2.2208,2.1752,2.1569,2.1564,2.1311,2.1267,2.0676,1.9994,1.9454,1.8821,1.8209,1.777,1.7321,1.6866,1.6408,1.6253,1.5814,1.5274,1.6985,1.7958,1.7485,1.7302,1.694,1.632,1.5512,1.5185,1.5322,1.4921,1.449,1.4394,1.4004,1.3377,1.237,1.1785,1.0949,1.001,0.9072,0.8173,0.7077,0.6389,0.5823,0.509,0.4547,0.3947,0.3211,0.2661,0.2185,0.1739,0.129,0.0953,0.0673,0.0,0.0,0.0,0.0,0.0,0.0,0.0,0.0,0.0,0.0,0.0,0.0,0.0,0.0397,0.0516,0.0804,0.1146,0.1421,0.1639,0.1857,0.2187,0.2803,0.297,0.3307,0.3587,0.3475,0.3418,0.2802,0.2131,0.1681,0.1289,0.0561,3.1278,3.1425,3.154,3.1641,3.1622,3.1653,3.1705,3.1705,3.1805,3.1805,3.1893,3.2069,3.2113,3.1945,3.1523,3.1016,3.0474,2.9856,2.9167,2.856,2.8309,2.7762,2.703,2.626,2.5991,2.6023,2.5942,2.5948,2.5779,2.5167,2.4907,2.483,2.4255,2.4023,2.4103,2.3455,2.3233,2.3172,2.2289,2.129,2.0983,2.0189,1.9421,1.8847,1.8249,1.7796,1.7048,1.7184,1.7052,1.6713,1.7656,1.8433,1.8265,1.7981,1.7536,1.701,1.6354,1.6169,1.6184,1.5817,1.5547,1.5397,1.5016,1.4202,1.3286,1.2608,1.1634,1.0806,1.001,0.9118,0.8233,0.7278,0.6185,0.5229,0.4771,0.4428,0.3929,0.3438,0.2966,0.2522,0.213,0.1625,0.1346,0.0729,0.0448,0.0,0.0,0.0,0.0,0.0,0.0,0.0,0.0,0.0,0.0,0.0,0.0,0.0,0.0633,0.092,0.1201,0.1475,0.1803,0.2187,0.2858,0.3362,0.3531,0.3811,0.4147,0.3979,0.3477,0.3085,0.2633,0.2129,0.1401,3.1144,3.132,3.1455,3.1508,3.154,3.1612,3.1739,3.1772,3.1913,3.1998,3.2064,3.2326,3.2376,3.24,3.2215,3.192,3.1081,3.0877,3.0213,2.9601,2.915,2.8843,2.8832,2.7972,2.7697,2.7719,2.8049,2.7776,2.7404,2.7386,2.7377,2.6939,2.6909,2.7098,2.6439,2.5992,2.5807,2.5165,2.3597,2.2609,2.2189,2.144,2.0618,1.9861,1.9419,1.8466,1.7655,1.7745,1.788,1.7139,1.8175,1.8535,1.8357,1.8521,1.8147,1.7527,1.72,1.7146,1.7015,1.664,1.6529,1.6319,1.5635,1.4962,1.4244,1.3335,1.2365,1.1634,1.0757,1.0237,0.9801,0.8383,0.6881,0.5917,0.5589,0.5391,0.5215,0.4441,0.3699,0.3587,0.3306,0.2746,0.2075,0.1346,0.0841,0.0617,0.0,0.0,0.0,0.0,0.0,0.0,0.0,0.0,0.0,0.0,0.0,0.0,0.0,0.0804,0.1031,0.1308,0.1635,0.2075,0.2635,0.3083,0.3362,0.381,0.437,0.4594,0.4091,0.3811,0.353,0.2969,0.2353,3.1445,3.138,3.1336,3.1451,3.1574,3.1605,3.1768,3.199,3.1955,3.2067,3.2302,3.2416,3.2436,3.2431,3.255,3.2376,3.208,3.1937,3.1814,3.1678,3.1542,3.1455,3.089,2.941,2.8258,2.829,2.817,2.8137,2.8074,2.8065,2.7679,2.77,2.7763,2.7397,2.734,2.67,2.5967,2.5732,2.4578,2.364,2.3056,2.2604,2.1886,2.1058,2.0281,1.8885,1.7638,1.7986,1.8108,1.7768,1.839,1.9082,1.8712,1.8441,1.8119,1.7724,1.7481,1.7248,1.6873,1.6922,1.6881,1.6657,1.6258,1.5689,1.4962,1.416,1.319,1.2365,1.1688,1.1298,1.0947,0.9248,0.7991,0.7361,0.6934,0.6689,0.6704,0.5579,0.4482,0.4036,0.3586,0.297,0.258,0.1682,0.1233,0.0897,0.0,0.0,0.0,0.0,0.0,0.0,0.0,0.0,0.0,0.0,0.0,0.0,0.0,0.0635,0.0863,0.1194,0.1519,0.1907,0.2356,0.2747,0.3195,0.3755,0.437,0.4538,0.4706,0.4426,0.4089,0.3642,0.3305,3.141,3.1343,3.1327,3.1478,3.1636,3.1693,3.1851,3.1987,3.2069,3.2234,3.2449,3.2592,3.268,3.2723,3.281,3.281,3.2723,3.2605,3.2463,3.2363,3.2332,3.2388,3.2264,3.1045,3.0052,2.9883,2.9834,2.9724,2.9497,2.936,2.9392,2.9091,2.9035,2.9048,2.8634,2.7856,2.7558,2.7083,2.5813,2.478,2.4401,2.373,2.303,2.2101,2.1078,1.9946,1.9445,1.9561,1.9416,1.9191,1.9726,2.0039,1.9368,1.8876,1.8552,1.8693,1.8133,1.7916,1.7662,1.7425,1.7326,1.7127,1.6784,1.6157,1.558,1.4919,1.4273,1.3455,1.28,1.2278,1.1622,1.0254,0.9149,0.8528,0.816,0.7898,0.7514,0.6262,0.5268,0.5043,0.4815,0.4313,0.3586,0.2688,0.2129,0.2018,0.1009,0.0,0.0,0.0,0.0,0.0,0.0,0.0,0.0,0.0,0.0,0.0,0.0,0.0403,0.0581,0.0971,0.1347,0.174,0.2137,0.2636,0.3139,0.3701,0.4204,0.4538,0.465,0.4706,0.465,0.4484,0.4033,3.1556,3.1447,3.1546,3.1666,3.1821,3.1902,3.1991,3.2027,3.2188,3.234,3.2526,3.2688,3.2777,3.2976,3.2942,3.3005,3.292,3.2794,3.2603,3.2471,3.2562,3.2469,3.2314,3.2062,3.1748,3.1796,3.1491,3.1288,3.1027,3.1132,3.0624,3.0646,3.0672,3.0355,3.0088,2.9543,2.8868,2.8377,2.7016,2.5937,2.5634,2.4795,2.3973,2.2702,2.1999,2.1366,2.1112,2.1064,2.0891,2.0612,2.1297,2.1268,2.0776,1.9984,1.9598,2.0376,1.9479,1.8884,1.847,1.8167,1.7834,1.7791,1.7301,1.6826,1.6232,1.5754,1.5194,1.4584,1.3874,1.3082,1.2084,1.1311,1.0367,0.9628,0.9337,0.8951,0.8306,0.6982,0.6485,0.6267,0.5931,0.5429,0.4981,0.4308,0.3696,0.2971,0.1906,0.1121,0.0897,0.0,0.0,0.0,0.0,0.0,0.0,0.0,0.0,0.0,0.0566,0.0686,0.0869,0.1654,0.2132,0.1633,0.1916,0.2416,0.2861,0.3309,0.3813,0.437,0.465,0.4706,0.4931,0.5214,0.465,3.2668,3.2237,3.2404,3.2409,3.2291,3.2312,3.2292,3.2321,3.2265,3.2336,3.254,3.2515,3.2555,3.272,3.2678,3.2678,3.2735,3.2784,3.281,3.2777,3.2946,3.2997,3.2746,3.2713,3.2241,3.1686,3.1813,3.1851,3.1278,3.1141,3.1059,3.0958,3.0727,3.0587,3.0442,2.9846,2.9258,2.9036,2.7897,2.695,2.6121,2.543,2.457,2.3183,2.27,2.2366,2.1774,2.1573,2.1386,2.1309,2.1161,2.1763,2.2256,2.1981,2.1581,2.1122,2.0559,1.9874,1.9283,1.8707,1.8355,1.7991,1.7574,1.7432,1.7108,1.6545,1.5969,1.5576,1.4838,1.4049,1.3786,1.3027,1.2423,1.1612,1.0967,1.0503,1.0178,0.935,0.7913,0.7368,0.6927,0.6432,0.6038,0.559,0.4979,0.4198,0.3246,0.2296,0.1792,0.1289,0.0,0.0,0.0,0.0,0.0,0.0,0.0,0.0,0.1294,0.1578,0.1988,0.2765,0.2977,0.2206,0.1919,0.2189,0.2635,0.2973,0.3421,0.3979,0.437,0.465,0.4819,0.4931,0.4651,3.3058,3.2739,3.281,3.2881,3.2846,3.2632,3.2568,3.2531,3.2304,3.2323,3.2429,3.2442,3.267,3.2868,3.271,3.2619,3.2697,3.3234,3.3393,3.3487,3.3998,3.4301,3.394,3.3893,3.3727,3.3516,3.3462,3.2557,3.1394,3.1217,3.11,3.0856,3.0731,3.0664,3.0477,3.0064,2.9811,2.9531,2.8732,2.7733,2.6617,2.5846,2.45,2.3951,2.3663,2.3383,2.3102,2.2961,2.2711,2.2471,2.2649,2.3009,2.3296,2.352,2.3316,2.2437,2.149,2.0711,2.0032,1.9458,1.887,1.8628,1.8079,1.7727,1.7625,1.7224,1.6862,1.6583,1.587,1.5205,1.5065,1.4477,1.372,1.3131,1.2743,1.2363,1.1714,1.1483,1.0323,0.8786,0.8358,0.7867,0.7038,0.6591,0.6091,0.5365,0.4529,0.3691,0.2853,0.2351,0.1847,0.0,0.0,0.0,0.0,0.0,0.1177,0.1737,0.2074,0.2359,0.2701,0.3317,0.3057,0.2398,0.2327,0.2748,0.2298,0.2634,0.3139,0.3643,0.4035,0.437,0.4538,0.4538,0.4314,3.3534,3.3164,3.3234,3.3339,3.3339,3.3058,3.281,3.2668,3.2408,3.2326,3.2359,3.2388,3.2728,3.3105,3.2973,3.276,3.2788,3.3552,3.3751,3.4056,3.462,3.521,3.5435,3.5463,3.5083,3.4535,3.4615,3.3771,3.2084,3.1678,3.1466,3.137,3.1317,3.122,3.1068,3.1301,3.0925,3.0434,2.9851,2.8932,2.7558,2.6119,2.5041,2.4924,2.4927,2.4987,2.4913,2.4702,2.4387,2.411,2.4105,2.4319,2.3947,2.4421,2.4521,2.3785,2.2384,2.1608,2.0961,2.0093,1.9404,1.9188,1.855,1.8171,1.8048,1.7984,1.7839,1.7637,1.6988,1.6303,1.6045,1.5497,1.4724,1.4244,1.4369,1.4471,1.3398,1.2847,1.2552,1.1352,1.0331,0.9453,0.8731,0.8309,0.7974,0.7085,0.6251,0.5308,0.4468,0.3913,0.3466,0.3075,0.0,0.0,0.0,0.0,0.2409,0.2744,0.297,0.3199,0.3376,0.3609,0.3292,0.3244,0.3904,0.4199,0.3305,0.2353,0.2691,0.3139,0.3699,0.4035,0.4147,0.4258,0.4203,3.4758,3.3736,3.4059,3.4059,3.377,3.3667,3.3269,3.2775,3.2668,3.2458,3.2404,3.2291,3.2545,3.2928,3.3254,3.3151,3.3137,3.3389,3.382,3.4209,3.4628,3.5109,3.5121,3.5093,3.5408,3.528,3.5034,3.3899,3.3019,3.2751,3.2539,3.241,3.2273,3.2448,3.2874,3.2708,3.2958,3.2383,3.1907,3.0783,2.91,2.7932,2.7268,2.6923,2.6869,2.6785,2.6424,2.61,2.5854,2.5809,2.4922,2.4684,2.471,2.422,2.479,2.4805,2.4162,2.2792,2.2082,2.0988,2.0209,1.9816,1.9074,1.8676,1.8491,1.848,1.8445,1.8542,1.7974,1.7416,1.6964,1.6495,1.5731,1.5257,1.512,1.512,1.4524,1.4632,1.4277,1.3524,1.234,1.1452,1.0623,1.0272,0.986,0.8916,0.7971,0.6972,0.6142,0.5528,0.4972,0.4582,0.4359,0.4137,0.4029,0.3749,0.3818,0.4038,0.4089,0.4209,0.4622,0.4799,0.4491,0.4664,0.5262,0.4983,0.3638,0.2856,0.2579,0.2924,0.3779,0.3826,0.3643,0.3813,0.4217,3.5625,3.4419,3.4399,3.4312,3.4128,3.3908,3.3632,3.3339,3.3129,3.3101,3.3171,3.315,3.3276,3.3681,3.416,3.4194,3.408,3.4418,3.4845,3.5238,3.5787,3.6299,3.6616,3.675,3.6736,3.658,3.6495,3.6151,3.5059,3.4128,3.3702,3.3428,3.3196,3.3119,3.3845,3.3336,3.2918,3.2306,3.1509,3.0568,2.9718,2.89,2.806,2.7426,2.7678,2.7491,2.7101,2.687,2.6826,2.6856,2.6258,2.6218,2.6308,2.6126,2.6268,2.655,2.6142,2.516,2.3988,2.2422,2.1608,2.1038,2.0246,1.9342,1.8877,1.8701,1.8686,1.8694,1.854,1.8216,1.7941,1.7674,1.6823,1.6293,1.6086,1.5601,1.5601,1.624,1.6068,1.5263,1.4454,1.3573,1.2641,1.1851,1.1332,1.0507,0.946,0.8416,0.7697,0.7204,0.6647,0.6089,0.5922,0.5755,0.5646,0.5481,0.5583,0.5693,0.5377,0.5674,0.6219,0.6278,0.5839,0.5594,0.5931,0.5202,0.3971,0.3808,0.3868,0.395,0.4035,0.4082,0.4131,0.4368,0.454,3.6228,3.5151,3.4787,3.4668,3.462,3.4216,3.4011,3.3928,3.3742,3.3728,3.3908,3.4091,3.4452,3.4869,3.5263,3.5371,3.5522,3.5885,3.6308,3.6896,3.7416,3.7855,3.8058,3.8326,3.8377,3.856,3.804,3.7762,3.7155,3.6171,3.5283,3.4554,3.4303,3.4298,3.412,3.3954,3.3594,3.2992,3.2031,3.1351,3.0937,3.0493,2.9744,2.9168,2.88,2.8541,2.7872,2.7676,2.7878,2.7743,2.7425,2.726,2.7404,2.7195,2.7327,2.7491,2.7259,2.6941,2.5729,2.4468,2.3239,2.2477,2.1661,2.034,1.9503,1.9215,1.9174,1.93,1.9023,1.889,1.876,1.8579,1.7838,1.7358,1.7153,1.6564,1.6133,1.6723,1.7054,1.6524,1.5933,1.5879,1.484,1.3599,1.2743,1.1982,1.1,0.9853,0.9089,0.8429,0.7873,0.7257,0.6982,0.6871,0.6763,0.6837,0.7062,0.7075,0.6748,0.6735,0.6998,0.7046,0.6723,0.6654,0.6654,0.6374,0.559,0.5431,0.5218,0.4734,0.442,0.4741,0.4923,0.5104,0.4738,3.6523,3.5863,3.5527,3.5365,3.527,3.4986,3.462,3.4404,3.4476,3.4269,3.4277,3.4848,3.5937,3.6463,3.6405,3.6675,3.7676,3.6477,3.7094,3.7661,3.7858,3.8432,3.8898,3.9194,3.9119,3.9358,3.9077,3.9103,3.9118,3.8087,3.704,3.6085,3.5601,3.5849,3.5783,3.5311,3.4578,3.402,3.3397,3.3149,3.3032,3.2979,3.3004,3.2434,3.2228,3.1865,3.0882,2.9832,2.9129,2.8818,2.8322,2.8037,2.8234,2.8052,2.822,2.851,2.8243,2.8176,2.7845,2.6119,2.442,2.3567,2.2656,2.1607,2.0836,2.0858,2.072,2.0345,2.0082,1.9711,1.9479,1.9094,1.852,1.795,1.7641,1.7424,1.7047,1.71,1.7437,1.7351,1.7139,1.6808,1.643,1.5018,1.4094,1.3339,1.1987,1.084,0.9805,0.9147,0.8761,0.826,0.7986,0.7768,0.7546,0.763,0.7765,0.7609,0.7363,0.7293,0.7416,0.7393,0.7546,0.7432,0.7376,0.7321,0.721,0.6768,0.6105,0.5112,0.4861,0.5545,0.5574,0.5516,0.4907,3.7148,3.6647,3.6892,3.6388,3.54,3.5285,3.5103,3.4953,3.5154,3.5737,3.628,3.6953,3.7805,3.8309,3.7981,3.8168,3.9062,3.7701,3.8399,3.8888,3.9051,3.9103,3.9684,3.9944,3.9886,3.9943,3.9779,3.9745,3.9868,3.9309,3.9133,3.8235,3.7128,3.6983,3.6896,3.6317,3.5413,3.4836,3.4475,3.4155,3.4352,3.414,3.4123,3.3798,3.3165,3.2427,3.1344,3.0577,3.0032,2.9694,2.9421,2.9304,2.9254,2.9138,2.9392,2.9709,2.9247,2.9577,2.9584,2.7778,2.5897,2.4701,2.3821,2.2991,2.2286,2.2114,2.2078,2.1724,2.1228,2.0817,2.0369,1.9768,1.9049,1.8377,1.801,1.801,1.8055,1.8101,1.7667,1.7562,1.7384,1.7133,1.6755,1.6271,1.5506,1.4696,1.3236,1.1823,1.0789,1.0025,0.9746,0.953,0.9313,0.893,0.8709,0.8611,0.851,0.8298,0.8026,0.8029,0.8078,0.8285,0.8383,0.8214,0.8054,0.8066,0.7955,0.766,0.7115,0.6534,0.6421,0.6779,0.6565,0.6113,0.5311,3.7927,3.7557,3.8169,3.7528,3.6101,3.6039,3.5957,3.5844,3.6051,3.6971,3.8337,3.8589,3.9244,3.974,3.9022,3.9382,3.9834,3.9154,3.9556,3.9799,3.9803,3.9769,4.0176,4.0415,4.0261,4.0391,4.0384,4.0355,4.0587,3.9973,3.9895,3.9573,3.8647,3.7948,3.7505,3.6801,3.6038,3.5806,3.5766,3.5554,3.5915,3.5731,3.5464,3.5295,3.4821,3.406,3.3105,3.2299,3.142,3.103,3.0739,3.0555,3.0495,3.0536,3.0745,3.0654,3.0603,3.0811,3.0396,2.9225,2.7312,2.6041,2.5355,2.4509,2.3776,2.3405,2.3344,2.293,2.2481,2.2013,2.1489,2.0834,2.0431,1.9908,1.925,1.9146,1.919,1.9183,1.8307,1.7711,1.7752,1.8016,1.7226,1.6802,1.5832,1.5125,1.4099,1.2797,1.171,1.1164,1.1,1.0844,1.0688,1.0363,0.9981,0.9985,0.9934,0.9282,0.9071,0.8811,0.8863,0.9134,0.9009,0.8667,0.8624,0.8762,0.8693,0.8458,0.8339,0.8158,0.8022,0.7723,0.7164,0.6643,0.6027,3.8792,3.8569,3.9265,3.8764,3.7647,3.7492,3.735,3.7102,3.7188,3.7998,3.9255,3.948,3.9998,4.0404,3.9612,4.0148,4.1059,3.9962,4.0003,4.1164,4.0642,4.0388,4.0626,4.0883,4.116,4.0912,4.1072,4.1255,4.1385,4.0546,4.0573,4.0563,3.9596,3.8424,3.818,3.7539,3.744,3.7852,3.8086,3.7983,3.7803,3.7659,3.7445,3.7277,3.6736,3.5947,3.5124,3.3896,3.2934,3.2304,3.2008,3.1493,3.0678,3.1559,3.1547,3.0742,3.0974,3.1125,3.1033,2.9822,2.869,2.746,2.6787,2.6129,2.5449,2.5042,2.4741,2.4382,2.3665,2.3302,2.2752,2.2198,2.1844,2.1277,2.0621,2.0166,2.021,1.996,1.9139,1.9007,1.9213,1.9212,1.8167,1.7219,1.6146,1.528,1.4691,1.3771,1.2792,1.2575,1.2575,1.1932,1.1837,1.1722,1.1397,1.1468,1.1244,1.0594,1.024,1.0172,0.9972,1.0036,0.9735,0.9255,0.9318,0.9627,0.9475,0.9256,0.9057,0.8816,0.8608,0.8282,0.7719,0.7357,0.7033,3.9812,3.9557,4.0275,4.0547,4.0259,3.9314,3.8576,3.8153,3.8407,3.9409,4.081,4.096,4.1545,4.188,4.149,4.1463,4.2288,4.1305,4.1344,4.3073,4.1884,4.2275,4.2489,4.2419,4.2484,4.2671,4.2611,4.2334,4.2525,4.1602,4.1501,4.1484,4.0591,3.943,3.87,3.8282,3.8486,3.8396,3.8573,3.8718,3.8819,3.8802,3.8832,3.8899,3.825,3.7595,3.6847,3.5465,3.4283,3.3505,3.3157,3.2408,3.1787,3.2507,3.2357,3.1897,3.2064,3.1852,3.1828,3.1221,3.0355,2.9127,2.8071,2.7469,2.6863,2.6744,2.6398,2.5906,2.5266,2.4914,2.466,2.3624,2.2976,2.2257,2.16,2.1159,2.0963,2.0577,2.0151,2.0649,2.0979,2.038,1.9502,1.8691,1.7635,1.6993,1.6521,1.5351,1.4256,1.4363,1.4363,1.3285,1.2767,1.2795,1.2834,1.2848,1.2657,1.2026,1.1868,1.1933,1.1672,1.1195,1.1191,1.1067,1.0775,1.0532,1.0226,0.9914,0.9596,0.9391,0.9212,0.9101,0.874,0.869,0.8697,4.1119,4.1304,4.1909,4.2282,4.2219,4.0862,3.9874,3.9466,3.9656,4.0658,4.1865,4.2091,4.2466,4.2895,4.2638,4.2588,4.3322,4.2197,4.2057,4.3877,4.2877,4.2801,4.3232,4.3726,4.3236,4.353,4.3607,4.3435,4.2973,4.2983,4.2547,4.1943,4.1613,4.0992,4.0212,3.9863,3.9639,3.9679,3.9926,3.9889,3.9884,3.978,3.966,3.9708,3.9367,3.8814,3.7979,3.6816,3.5418,3.4871,3.4238,3.3486,3.3133,3.3191,3.3234,3.3092,3.2857,3.2521,3.2264,3.2202,3.1187,3.009,2.9138,2.8451,2.8028,2.761,2.7384,2.704,2.6733,2.6426,2.5983,2.4905,2.4405,2.3687,2.3199,2.2759,2.2776,2.2492,2.1844,2.2299,2.2283,2.1615,2.0865,2.0205,1.9442,1.8941,1.8485,1.7191,1.5963,1.5903,1.5892,1.4894,1.413,1.4198,1.4227,1.4269,1.3962,1.3491,1.3445,1.3445,1.2843,1.2312,1.2589,1.2758,1.2078,1.1449,1.0936,1.0578,1.0482,1.0226,0.9946,0.9837,0.971,0.973,0.9769,4.2686,4.3651,4.4087,4.4002,4.3446,4.2024,4.1249,4.1082,4.1033,4.1543,4.2393,4.2882,4.3158,4.302,4.2614,4.2926,4.3405,4.2746,4.3122,4.3451,4.3362,4.3309,4.3321,4.3537,4.3803,4.3649,4.3653,4.3938,4.3244,4.3098,4.267,4.2446,4.2675,4.226,4.1724,4.1167,4.0877,4.0936,4.0915,4.0896,4.0839,4.0696,4.0507,4.0443,4.0209,4.0069,3.9455,3.8571,3.7498,3.6761,3.6043,3.4653,3.4072,3.4352,3.4087,3.3821,3.3579,3.3122,3.2605,3.2519,3.1933,3.0892,3.0045,2.9371,2.8771,2.8279,2.8045,2.7809,2.7468,2.7363,2.7067,2.6628,2.6224,2.5644,2.5158,2.508,2.5246,2.4805,2.3958,2.3786,2.37,2.3125,2.2299,2.1644,2.1366,2.1121,2.0665,1.9804,1.8589,1.7224,1.7075,1.6501,1.5865,1.567,1.5695,1.5652,1.5423,1.495,1.4807,1.47,1.4024,1.374,1.4029,1.3962,1.3084,1.2458,1.2028,1.1724,1.151,1.1221,1.0921,1.0454,1.0349,1.0326,1.0366,4.3932,4.5149,4.5305,4.5301,4.5039,4.3306,4.268,4.2912,4.2398,4.2559,4.3448,4.3664,4.3724,4.3757,4.3839,4.3995,4.4022,4.4094,4.4357,4.4477,4.4457,4.463,4.4725,4.4784,4.4862,4.4811,4.4767,4.4633,4.4323,4.3844,4.3702,4.3841,4.3573,4.3183,4.266,4.2093,4.1885,4.1624,4.154,4.1474,4.1489,4.129,4.114,4.1005,4.0938,4.0851,4.0507,3.9343,3.8353,3.7871,3.6637,3.5397,3.517,3.5062,3.4753,3.4699,3.448,3.4092,3.3369,3.2986,3.2394,3.1528,3.0802,3.008,2.952,2.9013,2.8689,2.8373,2.8186,2.8034,2.7904,2.76,2.721,2.6733,2.6235,2.5966,2.6034,2.5742,2.4998,2.4975,2.4843,2.4546,2.3746,2.3564,2.334,2.3207,2.2759,2.1989,2.087,1.9411,1.8467,1.7906,1.7495,1.7287,1.7092,1.7085,1.6794,1.6496,1.6303,1.6218,1.6178,1.5943,1.5748,1.5183,1.4375,1.3713,1.3227,1.2994,1.2806,1.2332,1.1947,1.1368,1.094,1.0861,1.0827,4.4543,4.5651,4.561,4.552,4.5232,4.4066,4.3753,4.3913,4.3053,4.3095,4.3877,4.4023,4.4155,4.4276,4.4507,4.4701,4.4838,4.4959,4.511,4.5153,4.558,4.5468,4.5666,4.5887,4.5858,4.5837,4.5743,4.5588,4.525,4.4892,4.4674,4.4712,4.435,4.3864,4.3376,4.2953,4.2475,4.2061,4.1753,4.1621,4.1588,4.1588,4.1522,4.1423,4.1357,4.1272,4.1021,3.9711,3.8934,3.8406,3.7021,3.6159,3.5884,3.5602,3.5249,3.5169,3.5019,3.4304,3.3492,3.3122,3.2513,3.1913,3.1395,3.0713,3.008,2.9474,2.9117,2.8792,2.8746,2.8699,2.8524,2.8337,2.7951,2.7515,2.6941,2.6405,2.6279,2.6143,2.6065,2.6045,2.5892,2.5699,2.5428,2.5356,2.5095,2.4668,2.4236,2.3646,2.2405,2.0908,2.0128,1.9614,1.9174,1.8782,1.8631,1.8481,1.8306,1.8021,1.7675,1.7706,1.8026,1.7636,1.6871,1.627,1.5667,1.5014,1.4454,1.4391,1.4212,1.3596,1.2908,1.2284,1.1638,1.1102,1.1024,4.4798,4.5908,4.5391,4.5105,4.4694,4.4429,4.4378,4.4474,4.3513,4.3335,4.3931,4.4143,4.4367,4.4686,4.4944,4.5257,4.545,4.5641,4.5743,4.5563,4.6045,4.6119,4.6137,4.6211,4.6453,4.6477,4.6332,4.6094,4.5953,4.5597,4.5319,4.5424,4.5345,4.4838,4.4152,4.3558,4.2986,4.2396,4.19,4.1588,4.1588,4.1588,4.1588,4.1555,4.1456,4.129,4.1005,4.0224,3.9211,3.8465,3.7653,3.6702,3.6244,3.6072,3.571,3.5575,3.5521,3.4771,3.4008,3.3501,3.2785,3.2232,3.1717,3.1172,3.0532,2.9943,2.9531,2.8989,2.8803,2.8757,2.8617,2.8524,2.8243,2.7926,2.7479,2.6972,2.6721,2.6753,2.6943,2.6913,2.689,2.6727,2.6483,2.6352,2.6483,2.6002,2.5567,2.513,2.419,2.2674,2.1663,2.118,2.0916,2.0516,2.0188,2.006,1.9908,1.9625,1.9112,1.8996,1.9181,1.8584,1.7765,1.7243,1.6726,1.624,1.5759,1.5724,1.5322,1.4412,1.3727,1.3131,1.245,1.1797,1.1241,4.5829,4.7358,4.6422,4.579,4.5393,4.4778,4.457,4.4598,4.45,4.4372,4.4401,4.4631,4.4906,4.5133,4.5372,4.5675,4.5963,4.6151,4.6394,4.6489,4.6742,4.6742,4.6858,4.6949,4.708,4.688,4.6672,4.6447,4.6137,4.5955,4.5846,4.5829,4.5752,4.5354,4.4729,4.4066,4.3363,4.2833,4.2142,4.1737,4.172,4.1621,4.1588,4.1588,4.1522,4.1489,4.1241,4.0836,3.9854,3.8979,3.8256,3.7337,3.6431,3.6365,3.6325,3.6298,3.6057,3.5345,3.4731,3.4121,3.3501,3.2667,3.2113,3.1584,3.0994,3.0352,2.976,2.9174,2.8803,2.8757,2.8664,2.8571,2.8495,2.8195,2.7976,2.7641,2.7264,2.7519,2.7783,2.7794,2.783,2.768,2.7477,2.7495,2.7704,2.7491,2.7154,2.6693,2.6133,2.4907,2.3173,2.264,2.2636,2.2308,2.1869,2.143,2.1209,2.0866,2.0386,2.035,2.0378,1.9706,1.8993,1.8314,1.7755,1.746,1.7258,1.7061,1.6487,1.5524,1.4918,1.4488,1.3615,1.2893,1.2071,4.5872,4.6562,4.5864,4.5527,4.5403,4.5029,4.4886,4.4923,4.5222,4.5311,4.5115,4.5079,4.5133,4.5372,4.5572,4.5938,4.6217,4.6537,4.6584,4.6794,4.7196,4.7214,4.7345,4.7518,4.75,4.7331,4.7057,4.6754,4.6368,4.6147,4.6073,4.6073,4.5955,4.5735,4.5205,4.4546,4.3922,4.3423,4.2584,4.2158,4.1997,4.1802,4.1621,4.1588,4.1588,4.1588,4.139,4.1005,4.015,3.9015,3.8046,3.7236,3.651,3.6405,3.6431,3.6403,3.6243,3.603,3.5413,3.4855,3.4288,3.3416,3.2593,3.2089,3.1472,3.0824,3.025,2.9658,2.8932,2.8746,2.8524,2.8384,2.8327,2.8147,2.8282,2.8198,2.8184,2.836,2.8462,2.8442,2.8499,2.8563,2.8338,2.8157,2.831,2.8406,2.8111,2.7645,2.7147,2.6639,2.5066,2.3977,2.395,2.3744,2.3295,2.2813,2.2402,2.2063,2.1658,2.1274,2.1045,2.0743,2.0253,1.9631,1.9212,1.9039,1.8796,1.8448,1.7695,1.6768,1.6306,1.5923,1.5018,1.4123,1.3571,4.5572,4.5096,4.4958,4.5022,4.523,4.5283,4.5283,4.5363,4.5794,4.6013,4.587,4.5372,4.5354,4.5477,4.5598,4.592,4.6346,4.6863,4.6886,4.7044,4.7414,4.756,4.7627,4.7689,4.7733,4.763,4.7349,4.7035,4.6684,4.6416,4.6189,4.6214,4.6147,4.6055,4.5786,4.5337,4.4712,4.4135,4.3466,4.2862,4.2459,4.1981,4.172,4.1621,4.1621,4.1588,4.1341,4.0956,4.0185,3.8994,3.7834,3.7056,3.6693,3.6589,3.6522,3.6533,3.6612,3.6255,3.5843,3.5481,3.48,3.404,3.3318,3.2643,3.2052,3.1371,3.0791,3.0261,2.9497,2.8907,2.8686,2.8509,2.8471,2.8324,2.8528,2.8856,2.8962,2.9075,2.9055,2.9034,2.9155,2.925,2.9016,2.8771,2.8781,2.893,2.8681,2.8229,2.7761,2.7204,2.6153,2.5361,2.5063,2.4827,2.4509,2.4064,2.3592,2.348,2.3079,2.2361,2.1779,2.1696,2.1489,2.1086,2.0716,2.0358,1.9963,1.9543,1.8726,1.7962,1.7449,1.6979,1.6309,1.5542,1.529,4.5895,4.5794,4.597,4.5912,4.5709,4.5701,4.5701,4.576,4.6154,4.6211,4.6137,4.6284,4.6332,4.6357,4.6381,4.6596,4.6903,4.7302,4.7603,4.7829,4.7893,4.7994,4.8034,4.7994,4.7975,4.7793,4.75,4.7125,4.6893,4.6488,4.6214,4.6196,4.6214,4.6147,4.603,4.5572,4.5081,4.4657,4.4175,4.3522,4.2862,4.2332,4.1834,4.1703,4.1654,4.1522,4.1357,4.1256,4.0309,3.9109,3.7805,3.7095,3.6836,3.6811,3.6783,3.6822,3.69,3.6808,3.6441,3.6256,3.5696,3.5102,3.4374,3.3645,3.2932,3.2094,3.162,3.1345,3.058,2.9782,2.9433,2.939,2.933,2.8817,2.8719,2.9116,2.9435,2.9517,2.9558,2.9569,2.9641,2.9501,2.9175,2.8983,2.893,2.8877,2.8611,2.8241,2.8221,2.7703,2.7168,2.6652,2.6136,2.5891,2.5523,2.5174,2.477,2.4723,2.4556,2.388,2.332,2.2926,2.2628,2.2338,2.1892,2.1422,2.0981,2.0637,1.989,1.9138,1.8519,1.7941,1.7297,1.682,1.6526]}]]